Darstellungsparameter: Aktuell verwendete Einstellungen:
Skalierung der Graphiken ... ?
xyx+y,   Skalierungsfaktor:      Skalierung: Modus: x, Faktor: 1
Darstellungszeitraum ... ?
Vom - - bis: - -   Zeitraum: 15.02.2016 - 14.08.2016
Min/Max/Avg-Anzeige ... ?
Zeige MMA aktuell
Zeige MMA Monat
Zeige MMA alles
Zeige --A aktuell
Zeige --A Monat
Zeige --A alles
Keine MMA-Anzeige
MMA:
Average (ber die Originaldaten)
MMA-Basis: 23.02.2003 - 15.08.2016
Quicknavigation für Darstellung... ?
Tage:      1T, 2T, 3T, 5T -1T -2T -3T -5T +1T +2T +3T +5T
Wochen: 1W, 2W, 3W -1W -2W -3W +1W +2W +3W
Monate: 1M, 3M, 6M -1M -3M -6M +1M +3M +6M
Jahre:    1J, 3J, 5J, 10J -1J -3J -5J -10J +1J +3J +5J +10J
Nutze für die Darstellung ... ?
Originaldaten oder ...
Mittelwerte Minima Maxima auf...
Stundenbasis Tagesbasis Wochenbasis
Monatsbasis Jahresbasis      Datenbasis: Mittelwerte auf Stundenbasis
Darstellen als:
Statistik (Auto) Statistik J:M      Darstellung:
Zur Graphik,    zurück zur Übersicht aller Sensoren.
 
Tabellarische Datenbersicht: ?
 
Sensor: Nr:Datum:Temp:Feuchte:Taupunkt:
Aussen-T/F 1 15-02-2016 00:00:00 3.33333 C 92.9167 % 2.3 C
2 15-02-2016 01:00:00 3.00833 C 92.4167 % 1.9 C
3 15-02-2016 02:00:00 2.73333 C 93.2500 % 1.75 C
4 15-02-2016 03:00:00 2.56667 C 94.0000 % 1.7 C
5 15-02-2016 04:00:00 2.4 C 93.3333 % 1.44 C
6 15-02-2016 05:00:00 2.3 C 93.0000 % 1.29 C
7 15-02-2016 06:00:00 2.23333 C 92.5000 % 1.15 C
8 15-02-2016 07:00:00 2.175 C 92.8333 % 1.14 C
9 15-02-2016 08:00:00 1.94167 C 93.7500 % 1.04 C
10 15-02-2016 09:00:00 1.65833 C 94.7500 % 0.91 C
11 15-02-2016 10:00:00 1.94167 C 95.0000 % 1.23 C
12 15-02-2016 11:00:00 2.60833 C 94.0833 % 1.75 C
13 15-02-2016 12:00:00 2.63333 C 93.0000 % 1.62 C
14 15-02-2016 13:00:00 2.56667 C 92.7500 % 1.51 C
15 15-02-2016 14:00:00 2.50833 C 92.0000 % 1.34 C
16 15-02-2016 15:00:00 2.39167 C 91.6667 % 1.18 C
17 15-02-2016 16:00:00 2.20833 C 92.0000 % 1.05 C
18 15-02-2016 17:00:00 2.025 C 91.2500 % 0.75 C
19 15-02-2016 18:00:00 1.89167 C 90.6667 % 0.53 C
20 15-02-2016 19:00:00 1.8 C 89.7500 % 0.3 C
21 15-02-2016 20:00:00 1.7 C 88.5833 % 0.02 C
22 15-02-2016 21:00:00 1.6 C 87.7500 % -0.21 C
23 15-02-2016 22:00:00 1.44167 C 86.2500 % -0.6 C
24 15-02-2016 23:00:00 1.2 C 84.2500 % -1.16 C
25 16-02-2016 00:00:00 0.88333 C 83.8333 % -1.53 C
Sensor: Nr:Datum:Temp:Feuchte:Taupunkt:
Aussen-T/F 26 16-02-2016 01:00:00 0.55 C 81.7500 % -2.2 C
27 16-02-2016 02:00:00 0.29167 C 81.0833 % -2.56 C
28 16-02-2016 03:00:00 0.25833 C 81.5000 % -2.53 C
29 16-02-2016 04:00:00 0.06667 C 80.5000 % -2.88 C
30 16-02-2016 05:00:00 -0.13333 C 80.5000 % -3.08 C
31 16-02-2016 06:00:00 -0.34167 C 81.0000 % -3.2 C
32 16-02-2016 07:00:00 -0.675 C 82.7500 % -3.24 C
33 16-02-2016 08:00:00 -1.05 C 84.6667 % -3.3 C
34 16-02-2016 09:00:00 -1.1 C 85.6667 % -3.19 C
35 16-02-2016 10:00:00 -0.23333 C 81.5833 % -3 C
36 16-02-2016 11:00:00 0.58333 C 77.4167 % -2.9 C
37 16-02-2016 12:00:00 0.80833 C 77.4167 % -2.68 C
38 16-02-2016 13:00:00 1.91667 C 72.8333 % -2.43 C
39 16-02-2016 14:00:00 2.725 C 70.0833 % -2.17 C
40 16-02-2016 15:00:00 3.1 C 68.5833 % -2.1 C
41 16-02-2016 16:00:00 2.94167 C 73.6667 % -1.29 C
42 16-02-2016 17:00:00 1.21667 C 81.3333 % -1.62 C
43 16-02-2016 18:00:00 -0.35833 C 85.5000 % -2.49 C
44 16-02-2016 19:00:00 -0.875 C 86.4167 % -2.85 C
45 16-02-2016 20:00:00 -1.13333 C 87.6667 % -2.91 C
46 16-02-2016 21:00:00 -1.44167 C 89.0000 % -3.01 C
47 16-02-2016 22:00:00 -1.79167 C 89.5000 % -3.29 C
48 16-02-2016 23:00:00 -1.45833 C 91.0000 % -2.73 C
49 17-02-2016 00:00:00 -1.29167 C 91.0000 % -2.57 C
50 17-02-2016 01:00:00 -1.84167 C 91.5000 % -3.04 C
Sensor: Nr:Datum:Temp:Feuchte:Taupunkt:
Aussen-T/F 51 17-02-2016 02:00:00 -1.75 C 91.2500 % -2.98 C
52 17-02-2016 03:00:00 -1.55 C 91.6667 % -2.73 C
53 17-02-2016 04:00:00 -1.36667 C 91.9167 % -2.51 C
54 17-02-2016 05:00:00 -1.55 C 91.8333 % -2.7 C
55 17-02-2016 06:00:00 -2.175 C 91.9167 % -3.31 C
56 17-02-2016 07:00:00 -2.63333 C 92.7500 % -3.64 C
57 17-02-2016 08:00:00 -2.5 C 93.7500 % -3.37 C
58 17-02-2016 09:00:00 -2.025 C 94.0000 % -2.86 C
59 17-02-2016 10:00:00 -1.225 C 93.2500 % -2.17 C
60 17-02-2016 11:00:00 0.85833 C 88.0000 % -0.9 C
61 17-02-2016 12:00:00 2.54167 C 79.5833 % -0.62 C
62 17-02-2016 13:00:00 3.35833 C 77.1667 % -0.25 C
63 17-02-2016 14:00:00 3.71667 C 75.8333 % -0.14 C
64 17-02-2016 15:00:00 3.5 C 78.3333 % 0.09 C
65 17-02-2016 16:00:00 3.25833 C 83.3333 % 0.71 C
66 17-02-2016 17:00:00 2.65 C 86.5000 % 0.63 C
67 17-02-2016 18:00:00 2.025 C 88.6667 % 0.36 C
68 17-02-2016 19:00:00 1.675 C 90.5833 % 0.3 C
69 17-02-2016 20:00:00 1.54167 C 91.1667 % 0.26 C
70 17-02-2016 21:00:00 1.54167 C 91.7500 % 0.35 C
71 17-02-2016 22:00:00 1.49167 C 91.0000 % 0.19 C
72 17-02-2016 23:00:00 1.5 C 91.5000 % 0.27 C
73 18-02-2016 00:00:00 1.63333 C 92.0000 % 0.48 C
74 18-02-2016 01:00:00 1.525 C 92.0000 % 0.37 C
75 18-02-2016 02:00:00 1.4 C 93.0000 % 0.4 C
Sensor: Nr:Datum:Temp:Feuchte:Taupunkt:
Aussen-T/F 76 18-02-2016 03:00:00 1.4 C 93.1667 % 0.42 C
77 18-02-2016 04:00:00 1.4 C 94.0000 % 0.54 C
78 18-02-2016 05:00:00 1.35833 C 94.0000 % 0.5 C
79 18-02-2016 06:00:00 1.3 C 94.0000 % 0.44 C
80 18-02-2016 07:00:00 1.3 C 93.0000 % 0.3 C
81 18-02-2016 08:00:00 1.45 C 93.0000 % 0.44 C
82 18-02-2016 09:00:00 1.88333 C 93.0000 % 0.87 C
83 18-02-2016 10:00:00 2.50833 C 89.8333 % 1.01 C
84 18-02-2016 11:00:00 3.66667 C 82.3333 % 0.94 C
85 18-02-2016 12:00:00 4.24167 C 72.4167 % -0.27 C
86 18-02-2016 13:00:00 4.76667 C 69.1667 % -0.39 C
87 18-02-2016 14:00:00 5.43333 C 64.5833 % -0.69 C
88 18-02-2016 15:00:00 5.6 C 64.8333 % -0.48 C
89 18-02-2016 16:00:00 4.95 C 70.7500 % 0.09 C
90 18-02-2016 17:00:00 3.3 C 80.2500 % 0.23 C
91 18-02-2016 18:00:00 1.88333 C 84.3333 % -0.47 C
92 18-02-2016 19:00:00 1.26667 C 86.0000 % -0.81 C
93 18-02-2016 20:00:00 0.33333 C 87.7500 % -1.45 C
94 18-02-2016 21:00:00 -0.55 C 88.0833 % -2.27 C
95 18-02-2016 22:00:00 -0.79167 C 89.3333 % -2.32 C
96 18-02-2016 23:00:00 -0.55 C 90.0000 % -1.98 C
97 19-02-2016 00:00:00 -0.425 C 90.0000 % -1.86 C
98 19-02-2016 01:00:00 -0.24167 C 90.0000 % -1.68 C
99 19-02-2016 02:00:00 -0.04167 C 90.0000 % -1.48 C
100 19-02-2016 03:00:00 0 C 90.0000 % -1.44 C
Sensor: Nr:Datum:Temp:Feuchte:Taupunkt:
Aussen-T/F 101 19-02-2016 04:00:00 0 C 90.0833 % -1.43 C
102 19-02-2016 05:00:00 0.33333 C 90.5833 % -1.02 C
103 19-02-2016 06:00:00 0.525 C 90.9167 % -0.78 C
104 19-02-2016 07:00:00 0.63333 C 91.2500 % -0.62 C
105 19-02-2016 08:00:00 0.88333 C 92.3333 % -0.22 C
106 19-02-2016 09:00:00 1.45 C 93.8333 % 0.57 C
107 19-02-2016 10:00:00 1.975 C 94.0000 % 1.11 C
108 19-02-2016 11:00:00 2.79167 C 93.1667 % 1.8 C
109 19-02-2016 12:00:00 3.46667 C 90.8333 % 2.11 C
110 19-02-2016 13:00:00 3.73333 C 90.6667 % 2.35 C
111 19-02-2016 14:00:00 3.75833 C 92.5833 % 2.67 C
112 19-02-2016 15:00:00 4.38333 C 92.8333 % 3.33 C
113 19-02-2016 16:00:00 4.61667 C 90.0000 % 3.12 C
114 19-02-2016 17:00:00 3.05 C 92.1667 % 1.91 C
115 19-02-2016 18:00:00 2.025 C 94.1667 % 1.19 C
116 19-02-2016 19:00:00 1.425 C 95.0000 % 0.71 C
117 19-02-2016 20:00:00 0.69167 C 95.0000 % -0.02 C
118 19-02-2016 21:00:00 0.19167 C 95.4167 % -0.45 C
119 19-02-2016 22:00:00 -0.21667 C 95.5000 % -0.85 C
120 19-02-2016 23:00:00 -0.56667 C 96.0000 % -1.12 C
121 20-02-2016 00:00:00 0.175 C 96.1667 % -0.36 C
122 20-02-2016 01:00:00 1.2 C 96.5000 % 0.71 C
123 20-02-2016 02:00:00 1.9 C 96.0000 % 1.33 C
124 20-02-2016 03:00:00 2.93333 C 93.0833 % 1.93 C
125 20-02-2016 04:00:00 4 C 89.5000 % 2.43 C
Sensor: Nr:Datum:Temp:Feuchte:Taupunkt:
Aussen-T/F 126 20-02-2016 05:00:00 4.2 C 91.2500 % 2.9 C
127 20-02-2016 06:00:00 4.23333 C 91.9167 % 3.04 C
128 20-02-2016 07:00:00 4.25 C 91.9167 % 3.06 C
129 20-02-2016 08:00:00 4.5 C 91.9167 % 3.3 C
130 20-02-2016 09:00:00 5.3 C 89.5833 % 3.73 C
131 20-02-2016 10:00:00 6 C 88.8333 % 4.3 C
132 20-02-2016 11:00:00 6.68333 C 89.0000 % 5 C
133 20-02-2016 12:00:00 7.2 C 89.0833 % 5.53 C
134 20-02-2016 13:00:00 7.94167 C 88.6667 % 6.19 C
135 20-02-2016 14:00:00 8.425 C 89.0000 % 6.72 C
136 20-02-2016 15:00:00 8.91667 C 90.0000 % 7.37 C
137 20-02-2016 16:00:00 9.14167 C 91.5000 % 7.83 C
138 20-02-2016 17:00:00 8.69167 C 94.0000 % 7.78 C
139 20-02-2016 18:00:00 8.70833 C 95.2500 % 7.99 C
140 20-02-2016 19:00:00 9.00833 C 95.1667 % 8.28 C
141 20-02-2016 20:00:00 9.36667 C 95.0000 % 8.61 C
142 20-02-2016 21:00:00 9.94167 C 94.0000 % 9.02 C
143 20-02-2016 22:00:00 10.51667 C 92.3333 % 9.33 C
144 20-02-2016 23:00:00 10.73333 C 93.0000 % 9.65 C
145 21-02-2016 00:00:00 11.075 C 92.6667 % 9.93 C
146 21-02-2016 01:00:00 11.53333 C 92.2500 % 10.32 C
147 21-02-2016 02:00:00 11.31667 C 94.4167 % 10.45 C
148 21-02-2016 03:00:00 11.33333 C 94.8333 % 10.54 C
149 21-02-2016 04:00:00 11.13333 C 92.8333 % 10.02 C
150 21-02-2016 05:00:00 11.24167 C 90.7500 % 9.79 C
Sensor: Nr:Datum:Temp:Feuchte:Taupunkt:
Aussen-T/F 151 21-02-2016 06:00:00 11.225 C 89.8333 % 9.62 C
152 21-02-2016 07:00:00 11.2 C 89.5833 % 9.55 C
153 21-02-2016 08:00:00 11.25833 C 90.0833 % 9.69 C
154 21-02-2016 09:00:00 11.675 C 89.8333 % 10.06 C
155 21-02-2016 10:00:00 12.35833 C 88.1667 % 10.46 C
156 21-02-2016 11:00:00 12.90833 C 86.7500 % 10.76 C
157 21-02-2016 12:00:00 13.275 C 84.6667 % 10.75 C
158 21-02-2016 13:00:00 13.425 C 83.5833 % 10.7 C
159 21-02-2016 14:00:00 13.24167 C 83.5000 % 10.51 C
160 21-02-2016 15:00:00 13.11667 C 83.0000 % 10.3 C
161 21-02-2016 16:00:00 12.60833 C 84.2500 % 10.02 C
162 21-02-2016 17:00:00 12.075 C 86.0833 % 9.82 C
163 21-02-2016 18:00:00 11.76667 C 87.0000 % 9.68 C
164 21-02-2016 19:00:00 11.53333 C 87.0833 % 9.46 C
165 21-02-2016 20:00:00 11.4 C 87.0000 % 9.32 C
166 21-02-2016 21:00:00 11.3 C 86.7500 % 9.17 C
167 21-02-2016 22:00:00 11.125 C 85.2500 % 8.74 C
168 21-02-2016 23:00:00 10.975 C 84.3333 % 8.44 C
169 22-02-2016 00:00:00 10.96667 C 82.0000 % 8.02 C
170 22-02-2016 01:00:00 10.81667 C 81.0833 % 7.71 C
171 22-02-2016 02:00:00 10.61667 C 81.0833 % 7.51 C
172 22-02-2016 03:00:00 10.28333 C 81.5833 % 7.28 C
173 22-02-2016 04:00:00 10.28333 C 81.0833 % 7.19 C
174 22-02-2016 05:00:00 10.29167 C 81.0000 % 7.18 C
175 22-02-2016 06:00:00 10.24167 C 81.0000 % 7.13 C
Sensor: Nr:Datum:Temp:Feuchte:Taupunkt:
Aussen-T/F 176 22-02-2016 07:00:00 10.05 C 81.9167 % 7.11 C
177 22-02-2016 08:00:00 9.85 C 82.6667 % 7.04 C
178 22-02-2016 09:00:00 10.025 C 82.5833 % 7.2 C
179 22-02-2016 10:00:00 10.20833 C 84.1667 % 7.66 C
180 22-02-2016 11:00:00 10.54167 C 83.6667 % 7.9 C
181 22-02-2016 12:00:00 11.09167 C 81.7500 % 8.09 C
182 22-02-2016 13:00:00 11.51667 C 81.7500 % 8.51 C
183 22-02-2016 14:00:00 11.70833 C 82.8333 % 8.89 C
184 22-02-2016 15:00:00 11.23333 C 85.7500 % 8.94 C
185 22-02-2016 16:00:00 10.80833 C 87.3333 % 8.79 C
186 22-02-2016 17:00:00 10.59167 C 87.4167 % 8.59 C
187 22-02-2016 18:00:00 10.36667 C 88.0833 % 8.48 C
188 22-02-2016 19:00:00 10.09167 C 87.0833 % 8.04 C
189 22-02-2016 20:00:00 5.96667 C 92.7500 % 4.88 C
190 22-02-2016 21:00:00 4.79167 C 94.5000 % 3.99 C
191 22-02-2016 22:00:00 4.05833 C 95.0000 % 3.33 C
192 22-02-2016 23:00:00 3.46667 C 94.9167 % 2.73 C
193 23-02-2016 00:00:00 2.66667 C 94.9167 % 1.94 C
194 23-02-2016 01:00:00 1.80833 C 94.6667 % 1.05 C
195 23-02-2016 02:00:00 1.43333 C 95.0000 % 0.72 C
196 23-02-2016 03:00:00 1.21667 C 95.5000 % 0.58 C
197 23-02-2016 04:00:00 1.05833 C 96.0000 % 0.49 C
198 23-02-2016 05:00:00 1 C 96.0000 % 0.44 C
199 23-02-2016 06:00:00 0.96667 C 96.0000 % 0.4 C
200 23-02-2016 07:00:00 1 C 96.0000 % 0.44 C
Sensor: Nr:Datum:Temp:Feuchte:Taupunkt:
Aussen-T/F 201 23-02-2016 08:00:00 1.14167 C 96.0000 % 0.58 C
202 23-02-2016 09:00:00 1.46667 C 96.6667 % 1 C
203 23-02-2016 10:00:00 1.88333 C 97.0000 % 1.46 C
204 23-02-2016 11:00:00 2.325 C 97.0000 % 1.9 C
205 23-02-2016 12:00:00 2.81667 C 97.0000 % 2.39 C
206 23-02-2016 13:00:00 3.44167 C 96.7500 % 2.98 C
207 23-02-2016 14:00:00 3.8 C 96.0000 % 3.22 C
208 23-02-2016 15:00:00 4.31667 C 95.5833 % 3.67 C
209 23-02-2016 16:00:00 4.09167 C 95.2500 % 3.4 C
210 23-02-2016 17:00:00 3.44167 C 94.2500 % 2.61 C
211 23-02-2016 18:00:00 2.9 C 95.0000 % 2.18 C
212 23-02-2016 19:00:00 2.725 C 95.6667 % 2.1 C
213 23-02-2016 20:00:00 3.03333 C 96.0000 % 2.46 C
214 23-02-2016 21:00:00 2.25 C 95.5000 % 1.61 C
215 23-02-2016 22:00:00 1.825 C 95.9167 % 1.24 C
216 23-02-2016 23:00:00 1.73333 C 96.3333 % 1.21 C
217 24-02-2016 00:00:00 2.24167 C 96.7500 % 1.78 C
218 24-02-2016 01:00:00 2.45833 C 96.1667 % 1.91 C
219 24-02-2016 02:00:00 1.91667 C 96.0000 % 1.35 C
220 24-02-2016 03:00:00 1.46667 C 96.0000 % 0.9 C
221 24-02-2016 04:00:00 1.45 C 96.0000 % 0.88 C
222 24-02-2016 05:00:00 0.875 C 96.0000 % 0.31 C
223 24-02-2016 06:00:00 0.6 C 96.0000 % 0.04 C
224 24-02-2016 07:00:00 0.79167 C 96.3333 % 0.28 C
225 24-02-2016 08:00:00 1.09167 C 96.5833 % 0.61 C
Sensor: Nr:Datum:Temp:Feuchte:Taupunkt:
Aussen-T/F 226 24-02-2016 09:00:00 1.425 C 96.0000 % 0.86 C
227 24-02-2016 10:00:00 1.89167 C 96.0000 % 1.32 C
228 24-02-2016 11:00:00 2.71667 C 94.1667 % 1.87 C
229 24-02-2016 12:00:00 4.01667 C 89.2500 % 2.41 C
230 24-02-2016 13:00:00 4.85 C 85.4167 % 2.62 C
231 24-02-2016 14:00:00 5.85 C 75.1667 % 1.8 C
232 24-02-2016 15:00:00 5.775 C 73.4167 % 1.4 C
233 24-02-2016 16:00:00 5.56667 C 78.1667 % 2.07 C
234 24-02-2016 17:00:00 3.675 C 86.1667 % 1.58 C
235 24-02-2016 18:00:00 2.05833 C 89.6667 % 0.54 C
236 24-02-2016 19:00:00 1.425 C 90.5833 % 0.06 C
237 24-02-2016 20:00:00 0.70833 C 91.6667 % -0.49 C
238 24-02-2016 21:00:00 0.04167 C 92.5000 % -1.03 C
239 24-02-2016 22:00:00 -0.46667 C 92.9167 % -1.47 C
240 24-02-2016 23:00:00 -0.76667 C 93.5000 % -1.68 C
241 25-02-2016 00:00:00 -0.93333 C 94.0000 % -1.77 C
242 25-02-2016 01:00:00 -1.24167 C 94.5833 % -2 C
243 25-02-2016 02:00:00 -1.45 C 95.0000 % -2.15 C
244 25-02-2016 03:00:00 -1.74167 C 95.0000 % -2.43 C
245 25-02-2016 04:00:00 -1.59167 C 95.8333 % -2.17 C
246 25-02-2016 05:00:00 -1.80833 C 96.0000 % -2.36 C
247 25-02-2016 06:00:00 -1.99167 C 96.0000 % -2.54 C
248 25-02-2016 07:00:00 -2.23333 C 96.0000 % -2.78 C
249 25-02-2016 08:00:00 -2.15833 C 96.0000 % -2.71 C
250 25-02-2016 09:00:00 -1.85833 C 96.5000 % -2.34 C
Sensor: Nr:Datum:Temp:Feuchte:Taupunkt:
Aussen-T/F 251 25-02-2016 10:00:00 -1.51667 C 97.0000 % -1.93 C
252 25-02-2016 11:00:00 -0.70833 C 97.0000 % -1.12 C
253 25-02-2016 12:00:00 0.45 C 97.0000 % 0.03 C
254 25-02-2016 13:00:00 2.68333 C 96.5000 % 2.18 C
255 25-02-2016 14:00:00 4.39167 C 81.1667 % 1.45 C
256 25-02-2016 15:00:00 5.23333 C 69.6667 % 0.15 C
257 25-02-2016 16:00:00 5.20833 C 69.5833 % 0.11 C
258 25-02-2016 17:00:00 4.74167 C 70.1667 % -0.22 C
259 25-02-2016 18:00:00 2.66667 C 83.3333 % 0.13 C
260 25-02-2016 19:00:00 2.35 C 87.4167 % 0.48 C
261 25-02-2016 20:00:00 2.39167 C 89.1667 % 0.79 C
262 25-02-2016 21:00:00 1.96667 C 90.7500 % 0.62 C
263 25-02-2016 22:00:00 1.675 C 92.1667 % 0.54 C
264 25-02-2016 23:00:00 1.45833 C 92.5833 % 0.39 C
265 26-02-2016 00:00:00 1.4 C 92.4167 % 0.31 C
266 26-02-2016 01:00:00 1.29167 C 92.0000 % 0.14 C
267 26-02-2016 02:00:00 1.125 C 92.6667 % 0.07 C
268 26-02-2016 03:00:00 1.275 C 93.0000 % 0.27 C
269 26-02-2016 04:00:00 1.175 C 93.0000 % 0.17 C
270 26-02-2016 05:00:00 0.24167 C 93.0000 % -0.75 C
271 26-02-2016 06:00:00 0.1 C 93.9167 % -0.76 C
272 26-02-2016 07:00:00 0.2 C 94.0833 % -0.64 C
273 26-02-2016 08:00:00 0.63333 C 95.0000 % -0.07 C
274 26-02-2016 09:00:00 1.425 C 93.8333 % 0.54 C
275 26-02-2016 10:00:00 2.65833 C 89.2500 % 1.07 C
Sensor: Nr:Datum:Temp:Feuchte:Taupunkt:
Aussen-T/F 276 26-02-2016 11:00:00 4.06667 C 81.0833 % 1.12 C
277 26-02-2016 12:00:00 4.58333 C 76.0833 % 0.74 C
278 26-02-2016 13:00:00 4.75833 C 76.2500 % 0.94 C
279 26-02-2016 14:00:00 5.03333 C 74.0000 % 0.79 C
280 26-02-2016 15:00:00 5.175 C 69.7500 % 0.11 C
281 26-02-2016 16:00:00 4.83333 C 73.5833 % 0.52 C
282 26-02-2016 17:00:00 4.41667 C 74.5833 % 0.31 C
283 26-02-2016 18:00:00 3.35 C 78.5000 % -0.02 C
284 26-02-2016 19:00:00 1.85833 C 84.3333 % -0.5 C
285 26-02-2016 20:00:00 1.725 C 86.6667 % -0.25 C
286 26-02-2016 21:00:00 1.99167 C 85.9167 % -0.11 C
287 26-02-2016 22:00:00 1.78333 C 84.8333 % -0.49 C
288 26-02-2016 23:00:00 1.725 C 84.0833 % -0.67 C
289 27-02-2016 00:00:00 1.76667 C 83.5000 % -0.72 C
290 27-02-2016 01:00:00 1.75 C 84.7500 % -0.54 C
291 27-02-2016 02:00:00 1.66667 C 84.5833 % -0.64 C
292 27-02-2016 03:00:00 1.29167 C 85.0000 % -0.94 C
293 27-02-2016 04:00:00 0.25833 C 85.5833 % -1.87 C
294 27-02-2016 05:00:00 -0.58333 C 87.1667 % -2.45 C
295 27-02-2016 06:00:00 -0.75833 C 87.2500 % -2.61 C
296 27-02-2016 07:00:00 -0.8 C 87.1667 % -2.66 C
297 27-02-2016 08:00:00 -0.625 C 87.6667 % -2.41 C
298 27-02-2016 09:00:00 -0.3 C 87.8333 % -2.07 C
299 27-02-2016 10:00:00 0.71667 C 85.0000 % -1.51 C
300 27-02-2016 11:00:00 3.3 C 73.9167 % -0.89 C
Sensor: Nr:Datum:Temp:Feuchte:Taupunkt:
Aussen-T/F 301 27-02-2016 12:00:00 4.74167 C 63.5000 % -1.58 C
302 27-02-2016 13:00:00 6.01667 C 56.4167 % -1.98 C
303 27-02-2016 14:00:00 6.775 C 53.9167 % -1.89 C
304 27-02-2016 15:00:00 7.125 C 54.8333 % -1.33 C
305 27-02-2016 16:00:00 7.33333 C 55.6667 % -0.93 C
306 27-02-2016 17:00:00 6.34167 C 62.5833 % -0.26 C
307 27-02-2016 18:00:00 3.45833 C 75.4167 % -0.47 C
308 27-02-2016 19:00:00 2.45 C 79.0833 % -0.8 C
309 27-02-2016 20:00:00 1.79167 C 81.5000 % -1.03 C
310 27-02-2016 21:00:00 1.29167 C 82.4167 % -1.36 C
311 27-02-2016 22:00:00 0.85 C 85.0833 % -1.36 C
312 27-02-2016 23:00:00 0.70833 C 86.1667 % -1.33 C
313 28-02-2016 00:00:00 0.25 C 87.0833 % -1.64 C
314 28-02-2016 01:00:00 -0.28333 C 88.1667 % -2 C
315 28-02-2016 02:00:00 -0.95833 C 89.5833 % -2.45 C
316 28-02-2016 03:00:00 -1.16667 C 90.1667 % -2.57 C
317 28-02-2016 04:00:00 -1.33333 C 90.3333 % -2.71 C
318 28-02-2016 05:00:00 -1.325 C 90.0833 % -2.74 C
319 28-02-2016 06:00:00 -1.5 C 90.1667 % -2.9 C
320 28-02-2016 07:00:00 -1.35 C 89.5833 % -2.84 C
321 28-02-2016 08:00:00 -0.81667 C 89.9167 % -2.26 C
322 28-02-2016 09:00:00 0.27778 C 86.5556 % -1.69 C
323 28-02-2016 10:00:00 2.5 C 77.0000 % -1.11 C
324 28-02-2016 11:00:00 3.93333 C 71.2500 % -0.79 C
325 28-02-2016 12:00:00 5.68333 C 63.1667 % -0.76 C
Sensor: Nr:Datum:Temp:Feuchte:Taupunkt:
Aussen-T/F 326 28-02-2016 13:00:00 6.725 C 57.9167 % -0.96 C
327 28-02-2016 14:00:00 6.98333 C 57.2500 % -0.88 C
328 28-02-2016 15:00:00 6.59167 C 58.0833 % -1.05 C
329 28-02-2016 16:00:00 6.16667 C 59.0000 % -1.23 C
330 28-02-2016 17:00:00 5.65833 C 59.3333 % -1.63 C
331 28-02-2016 18:00:00 4.23333 C 69.8333 % -0.77 C
332 28-02-2016 19:00:00 3.61667 C 72.0833 % -0.93 C
333 28-02-2016 20:00:00 2.2 C 79.5000 % -0.97 C
334 28-02-2016 21:00:00 1.8 C 79.9167 % -1.29 C
335 28-02-2016 22:00:00 1.58333 C 81.5833 % -1.22 C
336 28-02-2016 23:00:00 1.38333 C 82.3333 % -1.29 C
337 29-02-2016 00:00:00 1.625 C 79.8333 % -1.47 C
338 29-02-2016 01:00:00 1.75833 C 78.5000 % -1.57 C
339 29-02-2016 02:00:00 1.58333 C 79.4167 % -1.58 C
340 29-02-2016 03:00:00 1.38333 C 80.0000 % -1.68 C
341 29-02-2016 04:00:00 0.96667 C 82.4167 % -1.68 C
342 29-02-2016 05:00:00 0.34167 C 85.1667 % -1.85 C
343 29-02-2016 06:00:00 0.19167 C 86.1667 % -1.84 C
344 29-02-2016 07:00:00 0.30833 C 85.8333 % -1.78 C
345 29-02-2016 08:00:00 0.2 C 85.0833 % -2 C
346 29-02-2016 09:00:00 -0.14167 C 86.7500 % -2.08 C
347 29-02-2016 10:00:00 1.65 C 81.3333 % -1.19 C
348 29-02-2016 11:00:00 4.65833 C 68.5833 % -0.61 C
349 29-02-2016 12:00:00 6.54167 C 58.4167 % -1.02 C
350 29-02-2016 13:00:00 7.4 C 55.1667 % -0.99 C
Sensor: Nr:Datum:Temp:Feuchte:Taupunkt:
Aussen-T/F 351 29-02-2016 14:00:00 7.65833 C 53.9167 % -1.06 C
352 29-02-2016 15:00:00 7.75 C 53.9167 % -0.98 C
353 29-02-2016 16:00:00 7.58333 C 55.3333 % -0.78 C
354 29-02-2016 17:00:00 6.95 C 54.7500 % -1.52 C
355 29-02-2016 18:00:00 6.08333 C 54.8333 % -2.3 C
356 29-02-2016 19:00:00 4.875 C 59.0833 % -2.43 C
357 29-02-2016 20:00:00 4.08333 C 62.6667 % -2.38 C
358 29-02-2016 21:00:00 3.40833 C 65.6667 % -2.39 C
359 29-02-2016 22:00:00 2.44167 C 69.1667 % -2.62 C
360 29-02-2016 23:00:00 0.51667 C 76.8333 % -3.07 C
361 01-03-2016 00:00:00 -0.45833 C 80.0000 % -3.48 C
362 01-03-2016 01:00:00 -0.94167 C 83.0000 % -3.46 C
363 01-03-2016 02:00:00 -1.38333 C 85.1667 % -3.55 C
364 01-03-2016 03:00:00 -2.16667 C 87.5833 % -3.94 C
365 01-03-2016 04:00:00 -2.61667 C 89.5000 % -4.1 C
366 01-03-2016 05:00:00 -3.05833 C 90.7500 % -4.35 C
367 01-03-2016 06:00:00 -3.41667 C 91.9167 % -4.54 C
368 01-03-2016 07:00:00 -3.51667 C 92.5833 % -4.54 C
369 01-03-2016 08:00:00 -3.05833 C 93.0000 % -4.03 C
370 01-03-2016 09:00:00 -2.5 C 93.0000 % -3.47 C
371 01-03-2016 10:00:00 -0.875 C 90.6667 % -2.21 C
372 01-03-2016 11:00:00 2.16667 C 76.6667 % -1.49 C
373 01-03-2016 12:00:00 4.23333 C 64.0833 % -1.94 C
374 01-03-2016 13:00:00 5.7 C 55.5000 % -2.5 C
375 01-03-2016 14:00:00 6.50833 C 52.0000 % -2.62 C
Sensor: Nr:Datum:Temp:Feuchte:Taupunkt:
Aussen-T/F 376 01-03-2016 15:00:00 6.36667 C 51.8333 % -2.8 C
377 01-03-2016 16:00:00 5.76667 C 57.8333 % -1.88 C
378 01-03-2016 17:00:00 3.84167 C 78.7500 % 0.5 C
379 01-03-2016 18:00:00 2.43333 C 89.7500 % 0.93 C
380 01-03-2016 19:00:00 2.525 C 89.5000 % 0.98 C
381 01-03-2016 20:00:00 2.39167 C 92.0000 % 1.23 C
382 01-03-2016 21:00:00 2.75833 C 92.7500 % 1.7 C
383 01-03-2016 22:00:00 3.55833 C 92.0000 % 2.38 C
384 01-03-2016 23:00:00 4.24167 C 91.8333 % 3.03 C
385 02-03-2016 00:00:00 4.99167 C 91.0000 % 3.65 C
386 02-03-2016 01:00:00 5.03333 C 91.7500 % 3.81 C
387 02-03-2016 02:00:00 5.31667 C 92.2500 % 4.16 C
388 02-03-2016 03:00:00 5.84167 C 92.0000 % 4.64 C
389 02-03-2016 04:00:00 5.84167 C 92.8333 % 4.77 C
390 02-03-2016 05:00:00 6.45 C 93.2500 % 5.44 C
391 02-03-2016 06:00:00 7.9 C 86.3333 % 5.76 C
392 02-03-2016 07:00:00 7.45833 C 89.8333 % 5.9 C
393 02-03-2016 08:00:00 7.13333 C 93.7500 % 6.2 C
394 02-03-2016 09:00:00 7.55 C 91.9167 % 6.32 C
395 02-03-2016 10:00:00 7.90833 C 89.5833 % 6.3 C
396 02-03-2016 11:00:00 8 C 83.3333 % 5.35 C
397 02-03-2016 12:00:00 7.425 C 82.5000 % 4.65 C
398 02-03-2016 13:00:00 7.6 C 73.6667 % 3.21 C
399 02-03-2016 14:00:00 7.64167 C 69.8333 % 2.5 C
400 02-03-2016 15:00:00 7.91667 C 69.8333 % 2.76 C
Sensor: Nr:Datum:Temp:Feuchte:Taupunkt:
Aussen-T/F 401 02-03-2016 16:00:00 8.525 C 68.0833 % 2.98 C
402 02-03-2016 17:00:00 7.85 C 69.7500 % 2.68 C
403 02-03-2016 18:00:00 5.85833 C 77.1667 % 2.18 C
404 02-03-2016 19:00:00 4.48333 C 81.9167 % 1.67 C
405 02-03-2016 20:00:00 5.1 C 79.5833 % 1.87 C
406 02-03-2016 21:00:00 5.41667 C 78.7500 % 2.03 C
407 02-03-2016 22:00:00 4.775 C 80.7500 % 1.76 C
408 02-03-2016 23:00:00 4.28333 C 82.8333 % 1.63 C
409 03-03-2016 00:00:00 4.1 C 81.1667 % 1.17 C
410 03-03-2016 01:00:00 3.725 C 82.5833 % 1.04 C
411 03-03-2016 02:00:00 3.375 C 84.4167 % 1 C
412 03-03-2016 03:00:00 3.425 C 84.3333 % 1.04 C
413 03-03-2016 04:00:00 3.41667 C 84.2500 % 1.02 C
414 03-03-2016 05:00:00 3.60833 C 82.0833 % 0.84 C
415 03-03-2016 06:00:00 2.70833 C 85.0833 % 0.46 C
416 03-03-2016 07:00:00 2.50833 C 89.0833 % 0.9 C
417 03-03-2016 08:00:00 3.05 C 90.9167 % 1.72 C
418 03-03-2016 09:00:00 4.05 C 88.6667 % 2.35 C
419 03-03-2016 10:00:00 5.5 C 82.6667 % 2.79 C
420 03-03-2016 11:00:00 5.65 C 80.5000 % 2.57 C
421 03-03-2016 12:00:00 5.98333 C 80.3333 % 2.86 C
422 03-03-2016 13:00:00 5.85833 C 80.8333 % 2.83 C
423 03-03-2016 14:00:00 5.78333 C 82.0833 % 2.97 C
424 03-03-2016 15:00:00 4.13333 C 90.6667 % 2.75 C
425 03-03-2016 16:00:00 4.65 C 91.7500 % 3.43 C
Sensor: Nr:Datum:Temp:Feuchte:Taupunkt:
Aussen-T/F 426 03-03-2016 17:00:00 5.225 C 88.9167 % 3.55 C
427 03-03-2016 18:00:00 4.4 C 88.1667 % 2.62 C
428 03-03-2016 19:00:00 2.71667 C 92.2500 % 1.59 C
429 03-03-2016 20:00:00 1.625 C 93.4167 % 0.68 C
430 03-03-2016 21:00:00 0.9 C 94.3333 % 0.1 C
431 03-03-2016 22:00:00 0.44167 C 95.0000 % -0.26 C
432 03-03-2016 23:00:00 -0.01667 C 95.0000 % -0.72 C
433 04-03-2016 00:00:00 -0.325 C 95.1667 % -1 C
434 04-03-2016 01:00:00 -0.53333 C 95.7500 % -1.13 C
435 04-03-2016 02:00:00 -0.61667 C 95.7500 % -1.21 C
436 04-03-2016 03:00:00 -1.325 C 95.8333 % -1.9 C
437 04-03-2016 04:00:00 -1.475 C 96.0000 % -2.03 C
438 04-03-2016 05:00:00 -0.925 C 96.0000 % -1.48 C
439 04-03-2016 06:00:00 -0.81667 C 96.0000 % -1.37 C
440 04-03-2016 07:00:00 -0.325 C 96.2500 % -0.85 C
441 04-03-2016 08:00:00 0.81667 C 95.9167 % 0.24 C
442 04-03-2016 09:00:00 1.7 C 92.6667 % 0.64 C
443 04-03-2016 10:00:00 2.475 C 88.9167 % 0.84 C
444 04-03-2016 11:00:00 3.25833 C 86.6667 % 1.25 C
445 04-03-2016 12:00:00 3.9 C 84.6667 % 1.56 C
446 04-03-2016 13:00:00 4.2 C 83.9167 % 1.73 C
447 04-03-2016 14:00:00 3.70833 C 89.2500 % 2.11 C
448 04-03-2016 15:00:00 3.05 C 92.7500 % 1.99 C
449 04-03-2016 16:00:00 2.89167 C 94.0000 % 2.02 C
450 04-03-2016 17:00:00 3.25 C 94.0000 % 2.38 C
Sensor: Nr:Datum:Temp:Feuchte:Taupunkt:
Aussen-T/F 451 04-03-2016 18:00:00 3.2 C 94.6667 % 2.43 C
452 04-03-2016 19:00:00 3.19167 C 95.0833 % 2.48 C
453 04-03-2016 20:00:00 3.18333 C 95.8333 % 2.58 C
454 04-03-2016 21:00:00 3.225 C 96.0000 % 2.65 C
455 04-03-2016 22:00:00 3.3 C 96.0000 % 2.72 C
456 04-03-2016 23:00:00 3.35833 C 96.2500 % 2.82 C
457 05-03-2016 00:00:00 3.39167 C 96.3333 % 2.86 C
458 05-03-2016 01:00:00 3.36667 C 96.2500 % 2.83 C
459 05-03-2016 02:00:00 3.25 C 96.8333 % 2.8 C
460 05-03-2016 03:00:00 3.2 C 97.0000 % 2.77 C
461 05-03-2016 04:00:00 3.28333 C 97.0000 % 2.85 C
462 05-03-2016 05:00:00 3.35 C 97.0000 % 2.92 C
463 05-03-2016 06:00:00 3.29167 C 97.0000 % 2.86 C
464 05-03-2016 07:00:00 3.2 C 97.0000 % 2.77 C
465 05-03-2016 08:00:00 3.2 C 97.0000 % 2.77 C
466 05-03-2016 09:00:00 3.36667 C 97.0000 % 2.94 C
467 05-03-2016 10:00:00 3.95833 C 97.0000 % 3.53 C
468 05-03-2016 11:00:00 4.675 C 96.0833 % 4.11 C
469 05-03-2016 12:00:00 6.16667 C 91.5833 % 4.9 C
470 05-03-2016 13:00:00 6.95 C 87.0000 % 4.94 C
471 05-03-2016 14:00:00 7.1 C 83.6667 % 4.53 C
472 05-03-2016 15:00:00 7.65833 C 80.2500 % 4.48 C
473 05-03-2016 16:00:00 7.85833 C 76.3333 % 3.96 C
474 05-03-2016 17:00:00 7.04167 C 77.7500 % 3.43 C
475 05-03-2016 18:00:00 5.05 C 86.7500 % 3.03 C
Sensor: Nr:Datum:Temp:Feuchte:Taupunkt:
Aussen-T/F 476 05-03-2016 19:00:00 3.86667 C 90.9167 % 2.52 C
477 05-03-2016 20:00:00 2.95 C 92.4167 % 1.84 C
478 05-03-2016 21:00:00 2.525 C 93.7500 % 1.62 C
479 05-03-2016 22:00:00 2.70833 C 94.1667 % 1.87 C
480 05-03-2016 23:00:00 2.30833 C 94.4167 % 1.51 C
481 06-03-2016 00:00:00 2.30833 C 94.6667 % 1.54 C
482 06-03-2016 01:00:00 2.21667 C 94.0000 % 1.35 C
483 06-03-2016 02:00:00 2.30833 C 94.0000 % 1.44 C
484 06-03-2016 03:00:00 2.3 C 94.0833 % 1.45 C
485 06-03-2016 04:00:00 2.3 C 95.0000 % 1.58 C
486 06-03-2016 05:00:00 2.35833 C 94.3333 % 1.54 C
487 06-03-2016 06:00:00 1.925 C 93.9167 % 1.05 C
488 06-03-2016 07:00:00 2.10833 C 93.6667 % 1.2 C
489 06-03-2016 08:00:00 2.65 C 91.6667 % 1.43 C
490 06-03-2016 09:00:00 3.26667 C 92.6667 % 2.2 C
491 06-03-2016 10:00:00 3.425 C 93.8333 % 2.53 C
492 06-03-2016 11:00:00 3.58333 C 94.2500 % 2.75 C
493 06-03-2016 12:00:00 4.13333 C 94.1667 % 3.28 C
494 06-03-2016 13:00:00 4.56667 C 91.9167 % 3.37 C
495 06-03-2016 14:00:00 3.59167 C 93.7500 % 2.68 C
496 06-03-2016 15:00:00 4.25 C 94.8333 % 3.5 C
497 06-03-2016 16:00:00 4.59167 C 93.5000 % 3.64 C
498 06-03-2016 17:00:00 3.43333 C 93.4167 % 2.47 C
499 06-03-2016 18:00:00 3.15833 C 95.0833 % 2.45 C
500 06-03-2016 19:00:00 3.25 C 95.9167 % 2.66 C
Sensor: Nr:Datum:Temp:Feuchte:Taupunkt:
Aussen-T/F 501 06-03-2016 20:00:00 3.16667 C 95.7500 % 2.56 C
502 06-03-2016 21:00:00 2.70833 C 95.6667 % 2.09 C
503 06-03-2016 22:00:00 2.675 C 96.0000 % 2.1 C
504 06-03-2016 23:00:00 2.76667 C 96.0000 % 2.19 C
505 07-03-2016 00:00:00 2.65 C 96.0000 % 2.08 C
506 07-03-2016 01:00:00 2.3 C 96.0000 % 1.73 C
507 07-03-2016 02:00:00 2 C 96.0000 % 1.43 C
508 07-03-2016 03:00:00 1.8 C 96.5000 % 1.3 C
509 07-03-2016 04:00:00 2.05 C 97.0000 % 1.62 C
510 07-03-2016 05:00:00 1.59167 C 96.4167 % 1.08 C
511 07-03-2016 06:00:00 1.55 C 97.0000 % 1.13 C
512 07-03-2016 07:00:00 1.80833 C 97.0000 % 1.38 C
513 07-03-2016 08:00:00 2.2 C 97.0000 % 1.77 C
514 07-03-2016 09:00:00 3.1 C 96.8333 % 2.65 C
515 07-03-2016 10:00:00 3.775 C 93.4167 % 2.81 C
516 07-03-2016 11:00:00 3.83333 C 90.3333 % 2.4 C
517 07-03-2016 12:00:00 3.35833 C 92.6667 % 2.29 C
518 07-03-2016 13:00:00 3.60833 C 91.9167 % 2.42 C
519 07-03-2016 14:00:00 4.50833 C 87.0000 % 2.54 C
520 07-03-2016 15:00:00 4.71667 C 83.0000 % 2.08 C
521 07-03-2016 16:00:00 4.5 C 86.5833 % 2.46 C
522 07-03-2016 17:00:00 3.5 C 90.2500 % 2.06 C
523 07-03-2016 18:00:00 2.16667 C 92.4167 % 1.07 C
524 07-03-2016 19:00:00 1.56667 C 94.3333 % 0.76 C
525 07-03-2016 20:00:00 1.11667 C 95.0000 % 0.41 C
Sensor: Nr:Datum:Temp:Feuchte:Taupunkt:
Aussen-T/F 526 07-03-2016 21:00:00 0.51667 C 95.0000 % -0.19 C
527 07-03-2016 22:00:00 0.03333 C 95.3333 % -0.62 C
528 07-03-2016 23:00:00 -0.56667 C 95.9167 % -1.14 C
529 08-03-2016 00:00:00 -0.80833 C 96.0000 % -1.36 C
530 08-03-2016 01:00:00 -1.03333 C 96.0000 % -1.59 C
531 08-03-2016 02:00:00 -0.90833 C 96.0000 % -1.46 C
532 08-03-2016 03:00:00 -0.7 C 96.5000 % -1.19 C
533 08-03-2016 04:00:00 -0.36667 C 97.0000 % -0.78 C
534 08-03-2016 05:00:00 -0.18333 C 97.0000 % -0.6 C
535 08-03-2016 06:00:00 -0.125 C 97.0000 % -0.54 C
536 08-03-2016 07:00:00 -0.09167 C 97.0000 % -0.51 C
537 08-03-2016 08:00:00 0.15833 C 97.0000 % -0.26 C
538 08-03-2016 09:00:00 0.34167 C 97.0000 % -0.08 C
539 08-03-2016 10:00:00 0.76667 C 97.0000 % 0.35 C
540 08-03-2016 11:00:00 1.5 C 96.9167 % 1.06 C
541 08-03-2016 12:00:00 2.41667 C 95.0833 % 1.71 C
542 08-03-2016 13:00:00 4.35833 C 84.6667 % 2.01 C
543 08-03-2016 14:00:00 5.575 C 76.1667 % 1.72 C
544 08-03-2016 15:00:00 6.15833 C 72.7500 % 1.64 C
545 08-03-2016 16:00:00 6.45 C 70.4167 % 1.47 C
546 08-03-2016 17:00:00 5.975 C 76.0833 % 2.09 C
547 08-03-2016 18:00:00 3.41667 C 87.7500 % 1.58 C
548 08-03-2016 19:00:00 2.13333 C 89.7500 % 0.63 C
549 08-03-2016 20:00:00 1.85833 C 91.7500 % 0.66 C
550 08-03-2016 21:00:00 2.38333 C 89.8333 % 0.89 C
Sensor: Nr:Datum:Temp:Feuchte:Taupunkt:
Aussen-T/F 551 08-03-2016 22:00:00 2.13333 C 87.9167 % 0.35 C
552 08-03-2016 23:00:00 0.71667 C 91.7500 % -0.47 C
553 09-03-2016 00:00:00 0.04167 C 93.5000 % -0.88 C
554 09-03-2016 01:00:00 -0.18333 C 94.0000 % -1.03 C
555 09-03-2016 02:00:00 0.25833 C 93.5833 % -0.65 C
556 09-03-2016 03:00:00 0.54167 C 91.2500 % -0.72 C
557 09-03-2016 04:00:00 -0.25833 C 91.6667 % -1.45 C
558 09-03-2016 05:00:00 -0.11667 C 92.5833 % -1.17 C
559 09-03-2016 06:00:00 -0.09167 C 90.9167 % -1.39 C
560 09-03-2016 07:00:00 0.60833 C 89.0833 % -0.98 C
561 09-03-2016 08:00:00 0.625 C 89.5833 % -0.88 C
562 09-03-2016 09:00:00 0.89167 C 90.1667 % -0.53 C
563 09-03-2016 10:00:00 2.025 C 86.1667 % -0.04 C
564 09-03-2016 11:00:00 2.73333 C 84.0833 % 0.32 C
565 09-03-2016 12:00:00 4.15 C 79.7500 % 0.97 C
566 09-03-2016 13:00:00 5.70833 C 74.4167 % 1.52 C
567 09-03-2016 14:00:00 7.44167 C 64.7500 % 1.25 C
568 09-03-2016 15:00:00 8.2 C 57.3333 % 0.28 C
569 09-03-2016 16:00:00 9.10833 C 56.5000 % 0.93 C
570 09-03-2016 17:00:00 8.075 C 62.5833 % 1.38 C
571 09-03-2016 18:00:00 4.94167 C 76.5000 % 1.17 C
572 09-03-2016 19:00:00 2.98333 C 83.4167 % 0.46 C
573 09-03-2016 20:00:00 2.19167 C 85.5833 % 0.03 C
574 09-03-2016 21:00:00 1.40833 C 87.7500 % -0.39 C
575 09-03-2016 22:00:00 0.85 C 89.2500 % -0.71 C
Sensor: Nr:Datum:Temp:Feuchte:Taupunkt:
Aussen-T/F 576 09-03-2016 23:00:00 0.45833 C 90.0833 % -0.97 C
577 10-03-2016 00:00:00 -0.10833 C 90.8333 % -1.42 C
578 10-03-2016 01:00:00 -1.025 C 92.0000 % -2.16 C
579 10-03-2016 02:00:00 -1.525 C 92.7500 % -2.54 C
580 10-03-2016 03:00:00 -1.53333 C 93.5000 % -2.44 C
581 10-03-2016 04:00:00 -1.79167 C 93.8333 % -2.65 C
582 10-03-2016 05:00:00 -2.26667 C 94.0000 % -3.1 C
583 10-03-2016 06:00:00 -2.41667 C 94.4167 % -3.19 C
584 10-03-2016 07:00:00 -2.53333 C 94.8333 % -3.25 C
585 10-03-2016 08:00:00 -1.66667 C 95.5833 % -2.28 C
586 10-03-2016 09:00:00 -0.28333 C 95.3333 % -0.94 C
587 10-03-2016 10:00:00 1.46667 C 93.3333 % 0.51 C
588 10-03-2016 11:00:00 3.83333 C 83.9167 % 1.37 C
589 10-03-2016 12:00:00 6.05833 C 74.5833 % 1.89 C
590 10-03-2016 13:00:00 7.81667 C 67.8333 % 2.26 C
591 10-03-2016 14:00:00 8.55833 C 65.1667 % 2.4 C
592 10-03-2016 15:00:00 9.10833 C 65.0833 % 2.9 C
593 10-03-2016 16:00:00 9.46667 C 62.2500 % 2.62 C
594 10-03-2016 17:00:00 9.9 C 60.0833 % 2.53 C
595 10-03-2016 18:00:00 6.68333 C 74.0000 % 2.39 C
596 10-03-2016 19:00:00 4.4 C 83.3333 % 1.83 C
597 10-03-2016 20:00:00 3.73333 C 85.4167 % 1.52 C
598 10-03-2016 21:00:00 3.21667 C 86.5833 % 1.2 C
599 10-03-2016 22:00:00 3.33333 C 86.6667 % 1.33 C
600 10-03-2016 23:00:00 3.23333 C 86.5000 % 1.2 C
Sensor: Nr:Datum:Temp:Feuchte:Taupunkt:
Aussen-T/F 601 11-03-2016 00:00:00 2.75833 C 87.5000 % 0.9 C
602 11-03-2016 01:00:00 2.01667 C 89.9167 % 0.54 C
603 11-03-2016 02:00:00 1.26667 C 91.1667 % -0.01 C
604 11-03-2016 03:00:00 0.275 C 93.0000 % -0.72 C
605 11-03-2016 04:00:00 0.325 C 94.0000 % -0.52 C
606 11-03-2016 05:00:00 0.31667 C 94.0000 % -0.53 C
607 11-03-2016 06:00:00 0.175 C 94.7500 % -0.56 C
608 11-03-2016 07:00:00 0.29167 C 95.1667 % -0.39 C
609 11-03-2016 08:00:00 1.29167 C 95.5833 % 0.67 C
610 11-03-2016 09:00:00 2.19167 C 94.7500 % 1.44 C
611 11-03-2016 10:00:00 3.70833 C 90.6667 % 2.33 C
612 11-03-2016 11:00:00 5.25833 C 85.3333 % 3 C
613 11-03-2016 12:00:00 6.78333 C 81.5833 % 3.86 C
614 11-03-2016 13:00:00 7.98333 C 78.3333 % 4.45 C
615 11-03-2016 14:00:00 9.08333 C 72.0000 % 4.31 C
616 11-03-2016 15:00:00 9.53333 C 62.4167 % 2.72 C
617 11-03-2016 16:00:00 9.625 C 59.8333 % 2.21 C
618 11-03-2016 17:00:00 9.15833 C 61.8333 % 2.23 C
619 11-03-2016 18:00:00 7.69167 C 69.0000 % 2.37 C
620 11-03-2016 19:00:00 5.90833 C 76.4167 % 2.09 C
621 11-03-2016 20:00:00 4.90833 C 80.6667 % 1.87 C
622 11-03-2016 21:00:00 4.46667 C 82.5000 % 1.75 C
623 11-03-2016 22:00:00 3.76667 C 86.0833 % 1.66 C
624 11-03-2016 23:00:00 3.425 C 86.9167 % 1.46 C
625 12-03-2016 00:00:00 3.41667 C 87.1667 % 1.49 C
Sensor: Nr:Datum:Temp:Feuchte:Taupunkt:
Aussen-T/F 626 12-03-2016 01:00:00 3.55833 C 87.0833 % 1.62 C
627 12-03-2016 02:00:00 3.54167 C 82.5833 % 0.86 C
628 12-03-2016 03:00:00 3.28333 C 83.5000 % 0.76 C
629 12-03-2016 04:00:00 3.28333 C 85.0833 % 1.02 C
630 12-03-2016 05:00:00 3.125 C 83.2500 % 0.57 C
631 12-03-2016 06:00:00 2.76667 C 85.1667 % 0.53 C
632 12-03-2016 07:00:00 3.05 C 86.2500 % 0.98 C
633 12-03-2016 08:00:00 4.03333 C 80.1667 % 0.93 C
634 12-03-2016 09:00:00 4.8 C 73.2500 % 0.43 C
635 12-03-2016 10:00:00 4.925 C 72.4167 % 0.39 C
636 12-03-2016 11:00:00 5.35 C 72.2500 % 0.77 C
637 12-03-2016 12:00:00 5.81667 C 70.3333 % 0.84 C
638 12-03-2016 13:00:00 5.51667 C 72.0000 % 0.88 C
639 12-03-2016 14:00:00 5.425 C 71.4167 % 0.68 C
640 12-03-2016 15:00:00 5.275 C 72.7500 % 0.79 C
641 12-03-2016 16:00:00 5.2 C 73.4167 % 0.85 C
642 12-03-2016 17:00:00 5.10833 C 74.5000 % 0.96 C
643 12-03-2016 18:00:00 4.84167 C 75.6667 % 0.92 C
644 12-03-2016 19:00:00 4.69167 C 77.0000 % 1.01 C
645 12-03-2016 20:00:00 4.61667 C 77.8333 % 1.09 C
646 12-03-2016 21:00:00 4.65833 C 75.9167 % 0.79 C
647 12-03-2016 22:00:00 4.35833 C 77.1667 % 0.72 C
648 12-03-2016 23:00:00 4.1 C 78.7500 % 0.75 C
649 13-03-2016 00:00:00 3.83333 C 78.5833 % 0.46 C
650 13-03-2016 01:00:00 3.76667 C 77.9167 % 0.28 C
Sensor: Nr:Datum:Temp:Feuchte:Taupunkt:
Aussen-T/F 651 13-03-2016 02:00:00 3.5 C 78.3333 % 0.09 C
652 13-03-2016 03:00:00 3.10833 C 79.1667 % -0.14 C
653 13-03-2016 04:00:00 2.725 C 82.3333 % 0.02 C
654 13-03-2016 05:00:00 2.39167 C 84.2500 % 0.01 C
655 13-03-2016 06:00:00 2.24167 C 85.6667 % 0.09 C
656 13-03-2016 07:00:00 3.01667 C 83.1667 % 0.45 C
657 13-03-2016 08:00:00 3.775 C 80.5000 % 0.74 C
658 13-03-2016 09:00:00 4.48333 C 79.0000 % 1.17 C
659 13-03-2016 10:00:00 5.225 C 77.0000 % 1.53 C
660 13-03-2016 11:00:00 6.475 C 74.1667 % 2.22 C
661 13-03-2016 12:00:00 7.74167 C 71.2500 % 2.87 C
662 13-03-2016 13:00:00 8.59167 C 69.1667 % 3.27 C
663 13-03-2016 14:00:00 9.03333 C 66.6667 % 3.17 C
664 13-03-2016 15:00:00 8.95 C 66.6667 % 3.09 C
665 13-03-2016 16:00:00 8.93333 C 66.5000 % 3.04 C
666 13-03-2016 17:00:00 8.49167 C 68.1667 % 2.97 C
667 13-03-2016 18:00:00 7.23333 C 73.8333 % 2.89 C
668 13-03-2016 19:00:00 5.175 C 79.9167 % 2 C
669 13-03-2016 20:00:00 4.05 C 83.7500 % 1.56 C
670 13-03-2016 21:00:00 3.84167 C 83.6667 % 1.34 C
671 13-03-2016 22:00:00 3.175 C 82.9167 % 0.56 C
672 13-03-2016 23:00:00 1.90833 C 84.8333 % -0.37 C
673 14-03-2016 00:00:00 0.84167 C 87.0833 % -1.06 C
674 14-03-2016 01:00:00 0.53333 C 88.1667 % -1.19 C
675 14-03-2016 02:00:00 0.78333 C 87.6667 % -1.02 C
Sensor: Nr:Datum:Temp:Feuchte:Taupunkt:
Aussen-T/F 676 14-03-2016 03:00:00 1.725 C 83.5833 % -0.75 C
677 14-03-2016 04:00:00 1.95833 C 82.7500 % -0.66 C
678 14-03-2016 05:00:00 1.91667 C 82.3333 % -0.77 C
679 14-03-2016 06:00:00 1.33333 C 83.6667 % -1.12 C
680 14-03-2016 07:00:00 1.10833 C 84.2500 % -1.25 C
681 14-03-2016 08:00:00 2.01667 C 78.5000 % -1.32 C
682 14-03-2016 09:00:00 2.525 C 75.9167 % -1.28 C
683 14-03-2016 10:00:00 3.91667 C 70.4167 % -0.96 C
684 14-03-2016 11:00:00 5.23333 C 65.2500 % -0.74 C
685 14-03-2016 12:00:00 6.475 C 61.0000 % -0.49 C
686 14-03-2016 13:00:00 7.3 C 57.7500 % -0.46 C
687 14-03-2016 14:00:00 8.20833 C 53.6667 % -0.62 C
688 14-03-2016 15:00:00 8.58333 C 50.4167 % -1.12 C
689 14-03-2016 16:00:00 9.90833 C 46.7500 % -0.93 C
690 14-03-2016 17:00:00 10.71667 C 47.2500 % -0.05 C
691 14-03-2016 18:00:00 7.65 C 59.8333 % 0.35 C
692 14-03-2016 19:00:00 5.23333 C 67.0833 % -0.36 C
693 14-03-2016 20:00:00 4.625 C 68.0000 % -0.76 C
694 14-03-2016 21:00:00 3.65833 C 70.9167 % -1.11 C
695 14-03-2016 22:00:00 2.625 C 74.5833 % -1.42 C
696 14-03-2016 23:00:00 2.03333 C 77.5833 % -1.46 C
697 15-03-2016 00:00:00 1.475 C 80.0833 % -1.58 C
698 15-03-2016 01:00:00 0.8 C 82.3333 % -1.86 C
699 15-03-2016 02:00:00 -0.3 C 85.7500 % -2.39 C
700 15-03-2016 03:00:00 -0.725 C 87.0833 % -2.6 C
Sensor: Nr:Datum:Temp:Feuchte:Taupunkt:
Aussen-T/F 701 15-03-2016 04:00:00 -1.275 C 88.0833 % -2.99 C
702 15-03-2016 05:00:00 -1.25 C 89.8333 % -2.7 C
703 15-03-2016 06:00:00 -0.9 C 90.0000 % -2.33 C
704 15-03-2016 07:00:00 -0.49167 C 90.0833 % -1.91 C
705 15-03-2016 08:00:00 0.625 C 88.2500 % -1.09 C
706 15-03-2016 09:00:00 2.3 C 82.5833 % -0.35 C
707 15-03-2016 10:00:00 4.58333 C 73.2500 % 0.22 C
708 15-03-2016 11:00:00 6.15 C 68.9167 % 0.88 C
709 15-03-2016 12:00:00 7.11667 C 67.0833 % 1.43 C
710 15-03-2016 13:00:00 7.48333 C 70.4167 % 2.46 C
711 15-03-2016 14:00:00 7.65 C 71.0833 % 2.75 C
712 15-03-2016 15:00:00 7.35833 C 78.2500 % 3.83 C
713 15-03-2016 16:00:00 7.81667 C 75.2500 % 3.72 C
714 15-03-2016 17:00:00 7.85833 C 71.1667 % 2.97 C
715 15-03-2016 18:00:00 6.69167 C 77.7500 % 3.09 C
716 15-03-2016 19:00:00 5.88333 C 80.4167 % 2.78 C
717 15-03-2016 20:00:00 5.30833 C 82.1667 % 2.52 C
718 15-03-2016 21:00:00 3.68333 C 85.3333 % 1.46 C
719 15-03-2016 22:00:00 3.70833 C 83.9167 % 1.25 C
720 15-03-2016 23:00:00 3.23333 C 84.9167 % 0.95 C
721 16-03-2016 00:00:00 3.05833 C 87.0000 % 1.11 C
722 16-03-2016 01:00:00 2.44167 C 87.6667 % 0.61 C
723 16-03-2016 02:00:00 2.00833 C 86.2500 % -0.04 C
724 16-03-2016 03:00:00 2.75 C 84.3333 % 0.38 C
725 16-03-2016 04:00:00 3.275 C 81.0833 % 0.35 C
Sensor: Nr:Datum:Temp:Feuchte:Taupunkt:
Aussen-T/F 726 16-03-2016 05:00:00 2.725 C 82.6667 % 0.08 C
727 16-03-2016 06:00:00 1.58333 C 86.0833 % -0.49 C
728 16-03-2016 07:00:00 2.975 C 80.3333 % -0.07 C
729 16-03-2016 08:00:00 4.39167 C 72.9167 % -0.03 C
730 16-03-2016 09:00:00 5.125 C 70.8333 % 0.28 C
731 16-03-2016 10:00:00 6.19167 C 66.4167 % 0.41 C
732 16-03-2016 11:00:00 6.63333 C 63.8333 % 0.28 C
733 16-03-2016 12:00:00 6.86667 C 62.1667 % 0.14 C
734 16-03-2016 13:00:00 7.18333 C 61.0833 % 0.2 C
735 16-03-2016 14:00:00 8.08333 C 57.5833 % 0.23 C
736 16-03-2016 15:00:00 8.35833 C 56.5000 % 0.23 C
737 16-03-2016 16:00:00 8.1 C 57.7500 % 0.29 C
738 16-03-2016 17:00:00 8.19167 C 57.7500 % 0.37 C
739 16-03-2016 18:00:00 6.825 C 62.8333 % 0.25 C
740 16-03-2016 19:00:00 4.525 C 72.1667 % -0.04 C
741 16-03-2016 20:00:00 3.74167 C 76.3333 % -0.03 C
742 16-03-2016 21:00:00 3.06667 C 79.0000 % -0.21 C
743 16-03-2016 22:00:00 2.63333 C 80.3333 % -0.4 C
744 16-03-2016 23:00:00 2.225 C 80.4167 % -0.79 C
745 17-03-2016 00:00:00 1.575 C 83.3333 % -0.94 C
746 17-03-2016 01:00:00 0.65 C 86.1667 % -1.39 C
747 17-03-2016 02:00:00 0.14167 C 88.2500 % -1.57 C
748 17-03-2016 03:00:00 -0.58333 C 89.6667 % -2.07 C
749 17-03-2016 04:00:00 -1.35 C 90.6667 % -2.68 C
750 17-03-2016 05:00:00 -1.63333 C 92.0833 % -2.75 C
Sensor: Nr:Datum:Temp:Feuchte:Taupunkt:
Aussen-T/F 751 17-03-2016 06:00:00 -1.88333 C 92.6667 % -2.91 C
752 17-03-2016 07:00:00 -1.85833 C 93.0000 % -2.84 C
753 17-03-2016 08:00:00 -1.59167 C 93.9167 % -2.44 C
754 17-03-2016 09:00:00 -0.15833 C 94.0833 % -0.99 C
755 17-03-2016 10:00:00 2.85833 C 89.0000 % 1.23 C
756 17-03-2016 11:00:00 6.39167 C 73.1667 % 1.95 C
757 17-03-2016 12:00:00 8.725 C 62.4167 % 1.95 C
758 17-03-2016 13:00:00 10.45 C 54.7500 % 1.74 C
759 17-03-2016 14:00:00 11.74167 C 49.8333 % 1.63 C
760 17-03-2016 15:00:00 12.525 C 45.4167 % 1.06 C
761 17-03-2016 16:00:00 13.39167 C 41.3333 % 0.54 C
762 17-03-2016 17:00:00 14.04167 C 42.1667 % 1.4 C
763 17-03-2016 18:00:00 9.96667 C 58.5833 % 2.24 C
764 17-03-2016 19:00:00 7.23333 C 69.2500 % 1.99 C
765 17-03-2016 20:00:00 6.75 C 71.2500 % 1.92 C
766 17-03-2016 21:00:00 5.675 C 75.6667 % 1.72 C
767 17-03-2016 22:00:00 4.275 C 79.9167 % 1.12 C
768 17-03-2016 23:00:00 2.35833 C 84.9167 % 0.09 C
769 18-03-2016 00:00:00 1.49167 C 87.6667 % -0.33 C
770 18-03-2016 01:00:00 1.05833 C 89.0000 % -0.55 C
771 18-03-2016 02:00:00 0.69167 C 89.3333 % -0.86 C
772 18-03-2016 03:00:00 -0.025 C 90.9167 % -1.33 C
773 18-03-2016 04:00:00 -0.45 C 92.0000 % -1.59 C
774 18-03-2016 05:00:00 -0.775 C 92.8333 % -1.79 C
775 18-03-2016 06:00:00 -1.21667 C 93.0000 % -2.2 C
Sensor: Nr:Datum:Temp:Feuchte:Taupunkt:
Aussen-T/F 776 18-03-2016 07:00:00 -0.99167 C 94.0000 % -1.83 C
777 18-03-2016 08:00:00 -0.55 C 94.0833 % -1.38 C
778 18-03-2016 09:00:00 0.9 C 94.0000 % 0.05 C
779 18-03-2016 10:00:00 3.475 C 89.5833 % 1.93 C
780 18-03-2016 11:00:00 6.9 C 77.7500 % 3.29 C
781 18-03-2016 12:00:00 9.46667 C 66.5833 % 3.57 C
782 18-03-2016 13:00:00 10.725 C 61.2500 % 3.58 C
783 18-03-2016 14:00:00 10.63333 C 58.9167 % 2.94 C
784 18-03-2016 15:00:00 9.66667 C 60.7500 % 2.47 C
785 18-03-2016 16:00:00 8.7 C 64.7500 % 2.44 C
786 18-03-2016 17:00:00 7.175 C 71.7500 % 2.43 C
787 18-03-2016 18:00:00 4.975 C 81.0000 % 1.99 C
788 18-03-2016 19:00:00 4.15833 C 87.0833 % 2.21 C
789 18-03-2016 20:00:00 4.09167 C 88.5833 % 2.38 C
790 18-03-2016 21:00:00 4.25833 C 89.9167 % 2.75 C
791 18-03-2016 22:00:00 4.44167 C 89.5833 % 2.88 C
792 18-03-2016 23:00:00 4.64167 C 89.7500 % 3.11 C
793 19-03-2016 00:00:00 4.76667 C 90.0000 % 3.27 C
794 19-03-2016 01:00:00 4.9 C 90.3333 % 3.45 C
795 19-03-2016 02:00:00 4.89167 C 91.0833 % 3.56 C
796 19-03-2016 03:00:00 4.875 C 92.0000 % 3.69 C
797 19-03-2016 04:00:00 4.88333 C 92.0000 % 3.7 C
798 19-03-2016 05:00:00 4.75 C 92.4167 % 3.63 C
799 19-03-2016 06:00:00 4.61667 C 93.8333 % 3.71 C
800 19-03-2016 07:00:00 4.625 C 94.7500 % 3.86 C
Sensor: Nr:Datum:Temp:Feuchte:Taupunkt:
Aussen-T/F 801 19-03-2016 08:00:00 4.70833 C 93.8333 % 3.8 C
802 19-03-2016 09:00:00 4.94167 C 90.1667 % 3.47 C
803 19-03-2016 10:00:00 5.58333 C 83.7500 % 3.06 C
804 19-03-2016 11:00:00 6.18333 C 82.6667 % 3.46 C
805 19-03-2016 12:00:00 6.45 C 83.5000 % 3.86 C
806 19-03-2016 13:00:00 6.68333 C 82.3333 % 3.89 C
807 19-03-2016 14:00:00 6.825 C 81.5833 % 3.9 C
808 19-03-2016 15:00:00 6.975 C 80.4167 % 3.84 C
809 19-03-2016 16:00:00 6.9 C 81.5000 % 3.96 C
810 19-03-2016 17:00:00 6.64167 C 84.5000 % 4.22 C
811 19-03-2016 18:00:00 6.4 C 85.2500 % 4.11 C
812 19-03-2016 19:00:00 6.21667 C 86.0000 % 4.05 C
813 19-03-2016 20:00:00 6.08333 C 85.9167 % 3.91 C
814 19-03-2016 21:00:00 5.875 C 85.8333 % 3.69 C
815 19-03-2016 22:00:00 5.75 C 85.3333 % 3.48 C
816 19-03-2016 23:00:00 5.66667 C 81.2500 % 2.71 C
817 20-03-2016 00:00:00 5.55833 C 80.0000 % 2.39 C
818 20-03-2016 01:00:00 5.28333 C 79.0000 % 1.94 C
819 20-03-2016 02:00:00 5.00833 C 78.5000 % 1.59 C
820 20-03-2016 03:00:00 4.61667 C 81.2500 % 1.69 C
821 20-03-2016 04:00:00 4.83333 C 80.8333 % 1.83 C
822 20-03-2016 05:00:00 4.85 C 81.0833 % 1.89 C
823 20-03-2016 06:00:00 4.9 C 81.5000 % 2.01 C
824 20-03-2016 07:00:00 4.84167 C 82.5833 % 2.13 C
825 20-03-2016 08:00:00 4.81667 C 83.6667 % 2.29 C
Sensor: Nr:Datum:Temp:Feuchte:Taupunkt:
Aussen-T/F 826 20-03-2016 09:00:00 4.81667 C 84.6667 % 2.46 C
827 20-03-2016 10:00:00 5.05833 C 84.9167 % 2.74 C
828 20-03-2016 11:00:00 5.75 C 83.3333 % 3.15 C
829 20-03-2016 12:00:00 5.725 C 85.6667 % 3.52 C
830 20-03-2016 13:00:00 6.19167 C 83.9167 % 3.68 C
831 20-03-2016 14:00:00 6.75833 C 78.9167 % 3.36 C
832 20-03-2016 15:00:00 7.08333 C 76.0833 % 3.16 C
833 20-03-2016 16:00:00 7.475 C 71.0833 % 2.58 C
834 20-03-2016 17:00:00 7.63333 C 73.1667 % 3.14 C
835 20-03-2016 18:00:00 7.33333 C 75.5000 % 3.3 C
836 20-03-2016 19:00:00 6.79167 C 78.5000 % 3.32 C
837 20-03-2016 20:00:00 6.76667 C 80.0000 % 3.57 C
838 20-03-2016 21:00:00 6.51667 C 83.3333 % 3.9 C
839 20-03-2016 22:00:00 6.45833 C 86.6667 % 4.4 C
840 20-03-2016 23:00:00 6.43333 C 88.6667 % 4.7 C
841 21-03-2016 00:00:00 6.29167 C 91.0000 % 4.93 C
842 21-03-2016 01:00:00 5.95833 C 92.7500 % 4.88 C
843 21-03-2016 02:00:00 5.94167 C 94.0000 % 5.05 C
844 21-03-2016 03:00:00 6.08333 C 94.5000 % 5.27 C
845 21-03-2016 04:00:00 6.2 C 95.0000 % 5.46 C
846 21-03-2016 05:00:00 6.13333 C 93.7500 % 5.2 C
847 21-03-2016 06:00:00 6.05833 C 92.0000 % 4.86 C
848 21-03-2016 07:00:00 6 C 91.9167 % 4.79 C
849 21-03-2016 08:00:00 6.09167 C 91.4167 % 4.8 C
850 21-03-2016 09:00:00 6.5 C 90.2500 % 5.02 C
Sensor: Nr:Datum:Temp:Feuchte:Taupunkt:
Aussen-T/F 851 21-03-2016 10:00:00 7.31667 C 86.5833 % 5.23 C
852 21-03-2016 11:00:00 8.13333 C 83.2500 % 5.47 C
853 21-03-2016 12:00:00 8.4 C 80.7500 % 5.29 C
854 21-03-2016 13:00:00 8.31667 C 79.5000 % 4.99 C
855 21-03-2016 14:00:00 8.00833 C 78.5000 % 4.5 C
856 21-03-2016 15:00:00 8.19167 C 76.2500 % 4.27 C
857 21-03-2016 16:00:00 8.41667 C 75.4167 % 4.33 C
858 21-03-2016 17:00:00 8.4 C 75.2500 % 4.28 C
859 21-03-2016 18:00:00 7.91667 C 75.8333 % 3.92 C
860 21-03-2016 19:00:00 7.34167 C 78.5833 % 3.87 C
861 21-03-2016 20:00:00 7.34167 C 76.9167 % 3.57 C
862 21-03-2016 21:00:00 7.24167 C 78.0833 % 3.68 C
863 21-03-2016 22:00:00 6.74167 C 80.8333 % 3.69 C
864 21-03-2016 23:00:00 6.475 C 82.4167 % 3.7 C
865 22-03-2016 00:00:00 6.16667 C 84.3333 % 3.73 C
866 22-03-2016 01:00:00 6.19167 C 86.8333 % 4.17 C
867 22-03-2016 02:00:00 6.55833 C 87.0833 % 4.57 C
868 22-03-2016 03:00:00 6.3 C 88.7500 % 4.58 C
869 22-03-2016 04:00:00 5.975 C 89.0000 % 4.3 C
870 22-03-2016 05:00:00 5.575 C 89.0000 % 3.91 C
871 22-03-2016 06:00:00 5.18333 C 88.8333 % 3.5 C
872 22-03-2016 07:00:00 4.9 C 89.7500 % 3.36 C
873 22-03-2016 08:00:00 6.08333 C 86.7500 % 4.05 C
874 22-03-2016 09:00:00 6.83333 C 83.5000 % 4.24 C
875 22-03-2016 10:00:00 8.00833 C 79.5000 % 4.69 C
Sensor: Nr:Datum:Temp:Feuchte:Taupunkt:
Aussen-T/F 876 22-03-2016 11:00:00 9.125 C 75.0833 % 4.95 C
877 22-03-2016 12:00:00 10.21667 C 70.0833 % 5.01 C
878 22-03-2016 13:00:00 11.1 C 64.4167 % 4.65 C
879 22-03-2016 14:00:00 10.94167 C 62.0833 % 3.97 C
880 22-03-2016 15:00:00 11.43333 C 60.0000 % 3.95 C
881 22-03-2016 16:00:00 11.08333 C 61.1667 % 3.9 C
882 22-03-2016 17:00:00 10.65833 C 67.4167 % 4.88 C
883 22-03-2016 18:00:00 10.25833 C 70.5000 % 5.14 C
884 22-03-2016 19:00:00 9.49167 C 77.9167 % 5.84 C
885 22-03-2016 20:00:00 8.69167 C 84.5833 % 6.24 C
886 22-03-2016 21:00:00 8.03333 C 87.9167 % 6.16 C
887 22-03-2016 22:00:00 7.83333 C 88.3333 % 6.03 C
888 22-03-2016 23:00:00 7.76667 C 88.4167 % 5.98 C
889 23-03-2016 00:00:00 7.83333 C 88.0000 % 5.97 C
890 23-03-2016 01:00:00 7.71667 C 88.0833 % 5.87 C
891 23-03-2016 02:00:00 7.54167 C 89.6667 % 5.96 C
892 23-03-2016 03:00:00 7.13333 C 91.5833 % 5.86 C
893 23-03-2016 04:00:00 6.76667 C 93.2500 % 5.76 C
894 23-03-2016 05:00:00 6.65 C 93.6667 % 5.7 C
895 23-03-2016 06:00:00 6.6 C 93.0000 % 5.55 C
896 23-03-2016 07:00:00 6.6 C 92.3333 % 5.45 C
897 23-03-2016 08:00:00 6.74167 C 91.6667 % 5.48 C
898 23-03-2016 09:00:00 7.06667 C 88.3333 % 5.27 C
899 23-03-2016 10:00:00 7.9 C 81.8333 % 4.99 C
900 23-03-2016 11:00:00 8.70833 C 80.0000 % 5.46 C
Sensor: Nr:Datum:Temp:Feuchte:Taupunkt:
Aussen-T/F 901 23-03-2016 12:00:00 9.125 C 76.1667 % 5.16 C
902 23-03-2016 13:00:00 9.39167 C 74.0000 % 5 C
903 23-03-2016 14:00:00 9.83333 C 71.3333 % 4.9 C
904 23-03-2016 15:00:00 9.68333 C 69.9167 % 4.47 C
905 23-03-2016 16:00:00 9.50833 C 67.8333 % 3.87 C
906 23-03-2016 17:00:00 9.48333 C 66.3333 % 3.53 C
907 23-03-2016 18:00:00 8.84167 C 70.5000 % 3.78 C
908 23-03-2016 19:00:00 8.25833 C 74.0000 % 3.91 C
909 23-03-2016 20:00:00 7.55833 C 79.3333 % 4.22 C
910 23-03-2016 21:00:00 7.18333 C 80.3333 % 4.03 C
911 23-03-2016 22:00:00 7.29167 C 81.0000 % 4.25 C
912 23-03-2016 23:00:00 7.00833 C 82.4167 % 4.22 C
913 24-03-2016 00:00:00 7.16667 C 80.5000 % 4.04 C
914 24-03-2016 01:00:00 7.00833 C 81.4167 % 4.05 C
915 24-03-2016 02:00:00 6.825 C 82.3333 % 4.03 C
916 24-03-2016 03:00:00 6.38333 C 84.8333 % 4.02 C
917 24-03-2016 04:00:00 6.18333 C 85.9167 % 4.01 C
918 24-03-2016 05:00:00 6.03333 C 86.5833 % 3.97 C
919 24-03-2016 06:00:00 5.20833 C 87.1667 % 3.25 C
920 24-03-2016 07:00:00 5.41667 C 88.7500 % 3.71 C
921 24-03-2016 08:00:00 6.64167 C 83.0833 % 3.98 C
922 24-03-2016 09:00:00 7.81667 C 76.5000 % 3.95 C
923 24-03-2016 10:00:00 8.35 C 74.8333 % 4.15 C
924 24-03-2016 11:00:00 8.80833 C 76.9167 % 4.99 C
925 24-03-2016 12:00:00 9.575 C 74.4167 % 5.26 C
Sensor: Nr:Datum:Temp:Feuchte:Taupunkt:
Aussen-T/F 926 24-03-2016 13:00:00 9.34167 C 75.5000 % 5.24 C
927 24-03-2016 14:00:00 7.70833 C 87.7500 % 5.81 C
928 24-03-2016 15:00:00 7.18333 C 92.5833 % 6.06 C
929 24-03-2016 16:00:00 7.525 C 93.0000 % 6.47 C
930 24-03-2016 17:00:00 7.44167 C 92.9167 % 6.37 C
931 24-03-2016 18:00:00 6.99167 C 93.0000 % 5.94 C
932 24-03-2016 19:00:00 6.73333 C 93.0000 % 5.68 C
933 24-03-2016 20:00:00 6.61667 C 92.5000 % 5.49 C
934 24-03-2016 21:00:00 6.33333 C 93.0000 % 5.29 C
935 24-03-2016 22:00:00 6.10833 C 93.0000 % 5.06 C
936 24-03-2016 23:00:00 5.81667 C 93.0833 % 4.79 C
937 25-03-2016 00:00:00 5.85 C 93.0000 % 4.81 C
938 25-03-2016 01:00:00 5.925 C 92.5000 % 4.8 C
939 25-03-2016 02:00:00 6.15 C 91.1667 % 4.82 C
940 25-03-2016 03:00:00 6.66667 C 87.2500 % 4.7 C
941 25-03-2016 04:00:00 6.38333 C 90.7500 % 4.98 C
942 25-03-2016 05:00:00 5.95 C 92.9167 % 4.89 C
943 25-03-2016 06:00:00 5.71667 C 94.0000 % 4.83 C
944 25-03-2016 07:00:00 5.95833 C 94.7500 % 5.18 C
945 25-03-2016 08:00:00 6.66667 C 93.5833 % 5.71 C
946 25-03-2016 09:00:00 7.25833 C 91.5833 % 5.98 C
947 25-03-2016 10:00:00 7.65 C 91.7500 % 6.4 C
948 25-03-2016 11:00:00 7.54167 C 92.5000 % 6.41 C
949 25-03-2016 12:00:00 7.1 C 92.7500 % 6.01 C
950 25-03-2016 13:00:00 7.125 C 93.5833 % 6.16 C
Sensor: Nr:Datum:Temp:Feuchte:Taupunkt:
Aussen-T/F 951 25-03-2016 14:00:00 7.44167 C 93.2500 % 6.42 C
952 25-03-2016 15:00:00 7.55833 C 93.9167 % 6.64 C
953 25-03-2016 16:00:00 7.75833 C 94.0000 % 6.85 C
954 25-03-2016 17:00:00 7.8 C 94.1667 % 6.92 C
955 25-03-2016 18:00:00 7.56667 C 93.1667 % 6.54 C
956 25-03-2016 19:00:00 6.91667 C 94.3333 % 6.07 C
957 25-03-2016 20:00:00 7.61667 C 90.0000 % 6.08 C
958 25-03-2016 21:00:00 7.48333 C 90.8333 % 6.09 C
959 25-03-2016 22:00:00 7.10833 C 92.8333 % 6.03 C
960 25-03-2016 23:00:00 7.15833 C 92.2500 % 5.99 C
961 26-03-2016 00:00:00 7.05833 C 93.0833 % 6.02 C
962 26-03-2016 01:00:00 6.83333 C 93.6667 % 5.89 C
963 26-03-2016 02:00:00 6.79167 C 94.0000 % 5.9 C
964 26-03-2016 03:00:00 6.50833 C 93.9167 % 5.6 C
965 26-03-2016 04:00:00 5.53333 C 94.4167 % 4.71 C
966 26-03-2016 05:00:00 4.94167 C 94.5833 % 4.15 C
967 26-03-2016 06:00:00 3.61667 C 95.0000 % 2.89 C
968 26-03-2016 07:00:00 3.51667 C 95.8333 % 2.92 C
969 26-03-2016 08:00:00 4.36667 C 96.4167 % 3.85 C
970 26-03-2016 09:00:00 5.35 C 97.0000 % 4.91 C
971 26-03-2016 10:00:00 8.63333 C 86.9167 % 6.58 C
972 26-03-2016 11:00:00 10.91667 C 75.0833 % 6.68 C
973 26-03-2016 12:00:00 12.29167 C 71.0833 % 7.21 C
974 26-03-2016 13:00:00 13.80833 C 66.2500 % 7.63 C
975 26-03-2016 14:00:00 14.85 C 61.4167 % 7.51 C
Sensor: Nr:Datum:Temp:Feuchte:Taupunkt:
Aussen-T/F 976 26-03-2016 15:00:00 15.24167 C 59.5000 % 7.41 C
977 26-03-2016 16:00:00 16.46667 C 56.7500 % 7.87 C
978 26-03-2016 17:00:00 16.06667 C 56.6667 % 7.47 C
979 26-03-2016 18:00:00 12.425 C 70.0833 % 7.13 C
980 26-03-2016 19:00:00 9.15 C 82.9167 % 6.4 C
981 26-03-2016 20:00:00 8.10833 C 85.7500 % 5.87 C
982 26-03-2016 21:00:00 8.225 C 86.4167 % 6.1 C
983 26-03-2016 22:00:00 8.24167 C 86.1667 % 6.07 C
984 26-03-2016 23:00:00 7.725 C 88.0000 % 5.87 C
985 27-03-2016 00:00:00 8.425 C 84.9167 % 6.04 C
986 27-03-2016 01:00:00 8.275 C 84.1667 % 5.76 C
987 27-03-2016 02:00:00 7.31667 C 87.7500 % 5.42 C
988 27-03-2016 04:00:00 7.89167 C 87.5000 % 5.95 C
989 27-03-2016 05:00:00 7.10833 C 88.0833 % 5.27 C
990 27-03-2016 06:00:00 7.26667 C 90.0000 % 5.74 C
991 27-03-2016 07:00:00 8.08333 C 93.2500 % 7.06 C
992 27-03-2016 08:00:00 8.86667 C 91.8333 % 7.61 C
993 27-03-2016 09:00:00 9.34167 C 91.7500 % 8.07 C
994 27-03-2016 10:00:00 9 C 91.5000 % 7.69 C
995 27-03-2016 11:00:00 9.00833 C 87.3333 % 7.02 C
996 27-03-2016 12:00:00 9.775 C 83.3333 % 7.09 C
997 27-03-2016 13:00:00 10.11667 C 83.6667 % 7.48 C
998 27-03-2016 14:00:00 10.96667 C 77.4167 % 7.18 C
999 27-03-2016 15:00:00 11.56667 C 72.8333 % 6.87 C
1000 27-03-2016 16:00:00 12.74167 C 66.0000 % 6.56 C
Sensor: Nr:Datum:Temp:Feuchte:Taupunkt:
Aussen-T/F 1001 27-03-2016 17:00:00 14.08333 C 61.1667 % 6.73 C
1002 27-03-2016 18:00:00 12.65 C 64.3333 % 6.1 C
1003 27-03-2016 19:00:00 11.8 C 69.0833 % 6.32 C
1004 27-03-2016 20:00:00 9.2 C 78.2500 % 5.62 C
1005 27-03-2016 21:00:00 7.61667 C 84.2500 % 5.13 C
1006 27-03-2016 22:00:00 7.24167 C 84.5000 % 4.81 C
1007 27-03-2016 23:00:00 7.06667 C 84.3333 % 4.61 C
1008 28-03-2016 00:00:00 6.25833 C 87.0833 % 4.27 C
1009 28-03-2016 01:00:00 6.00833 C 87.5833 % 4.11 C
1010 28-03-2016 02:00:00 5.56667 C 88.7500 % 3.86 C
1011 28-03-2016 03:00:00 5.14167 C 89.6667 % 3.59 C
1012 28-03-2016 04:00:00 5.23333 C 90.4167 % 3.8 C
1013 28-03-2016 05:00:00 6.075 C 86.5833 % 4.01 C
1014 28-03-2016 06:00:00 6.175 C 85.7500 % 3.97 C
1015 28-03-2016 07:00:00 6.44167 C 83.4167 % 3.84 C
1016 28-03-2016 08:00:00 7.275 C 79.4167 % 3.96 C
1017 28-03-2016 09:00:00 8.51667 C 74.2500 % 4.2 C
1018 28-03-2016 10:00:00 9.43333 C 73.8333 % 5.01 C
1019 28-03-2016 11:00:00 9.125 C 82.2500 % 6.26 C
1020 28-03-2016 12:00:00 10.15 C 79.0000 % 6.68 C
1021 28-03-2016 13:00:00 11.05 C 78.1667 % 7.4 C
1022 28-03-2016 14:00:00 11.975 C 77.8333 % 8.23 C
1023 28-03-2016 15:00:00 11.81667 C 78.2500 % 8.16 C
1024 28-03-2016 16:00:00 8.84167 C 90.6667 % 7.4 C
1025 28-03-2016 17:00:00 9.91667 C 90.2500 % 8.4 C
Sensor: Nr:Datum:Temp:Feuchte:Taupunkt:
Aussen-T/F 1026 28-03-2016 18:00:00 10.05833 C 82.9167 % 7.29 C
1027 28-03-2016 19:00:00 9.60833 C 84.1667 % 7.07 C
1028 28-03-2016 20:00:00 8.30833 C 91.0000 % 6.93 C
1029 28-03-2016 21:00:00 7.85 C 91.6667 % 6.58 C
1030 28-03-2016 22:00:00 8.40833 C 87.0833 % 6.39 C
1031 28-03-2016 23:00:00 8.56667 C 85.5833 % 6.29 C
1032 29-03-2016 00:00:00 8.00833 C 86.0000 % 5.81 C
1033 29-03-2016 01:00:00 6.94167 C 86.7500 % 4.89 C
1034 29-03-2016 02:00:00 6.125 C 88.8333 % 4.42 C
1035 29-03-2016 03:00:00 6.15833 C 89.4167 % 4.55 C
1036 29-03-2016 04:00:00 6.43333 C 86.3333 % 4.32 C
1037 29-03-2016 05:00:00 6.75833 C 83.8333 % 4.22 C
1038 29-03-2016 06:00:00 6.425 C 83.4167 % 3.82 C
1039 29-03-2016 07:00:00 6.56667 C 82.7500 % 3.85 C
1040 29-03-2016 08:00:00 7.125 C 81.8333 % 4.24 C
1041 29-03-2016 09:00:00 7.74167 C 79.3333 % 4.4 C
1042 29-03-2016 10:00:00 8.75 C 75.0833 % 4.59 C
1043 29-03-2016 11:00:00 9.65833 C 69.1667 % 4.29 C
1044 29-03-2016 12:00:00 10.40833 C 64.2500 % 3.96 C
1045 29-03-2016 13:00:00 11.775 C 60.0000 % 4.27 C
1046 29-03-2016 14:00:00 12.33333 C 56.6667 % 3.99 C
1047 29-03-2016 15:00:00 12.39167 C 57.2500 % 4.19 C
1048 29-03-2016 16:00:00 13.175 C 55.2500 % 4.41 C
1049 29-03-2016 17:00:00 14.31667 C 52.0000 % 4.6 C
1050 29-03-2016 18:00:00 13.41667 C 55.9167 % 4.81 C
Sensor: Nr:Datum:Temp:Feuchte:Taupunkt:
Aussen-T/F 1051 29-03-2016 19:00:00 11.2 C 66.1667 % 5.13 C
1052 29-03-2016 20:00:00 8.775 C 77.9167 % 5.14 C
1053 29-03-2016 21:00:00 8.35 C 80.9167 % 5.27 C
1054 29-03-2016 22:00:00 8.75833 C 82.0000 % 5.86 C
1055 29-03-2016 23:00:00 9.15833 C 81.0000 % 6.07 C
1056 30-03-2016 00:00:00 8.58333 C 82.3333 % 5.75 C
1057 30-03-2016 01:00:00 8.35833 C 87.3333 % 6.38 C
1058 30-03-2016 02:00:00 8.45 C 91.0000 % 7.07 C
1059 30-03-2016 03:00:00 8.36667 C 92.0833 % 7.16 C
1060 30-03-2016 04:00:00 9.13333 C 88.1667 % 7.28 C
1061 30-03-2016 05:00:00 9.24167 C 86.5833 % 7.12 C
1062 30-03-2016 06:00:00 9.16667 C 86.3333 % 7.01 C
1063 30-03-2016 07:00:00 9.19167 C 87.4167 % 7.21 C
1064 30-03-2016 08:00:00 9.55 C 87.3333 % 7.55 C
1065 30-03-2016 09:00:00 10.31667 C 83.8333 % 7.71 C
1066 30-03-2016 10:00:00 10.8 C 82.1667 % 7.88 C
1067 30-03-2016 11:00:00 10.34167 C 82.9167 % 7.57 C
1068 30-03-2016 12:00:00 9.20833 C 92.5000 % 8.06 C
1069 30-03-2016 13:00:00 10.69167 C 87.9167 % 8.77 C
1070 30-03-2016 14:00:00 12.30833 C 76.5833 % 8.32 C
1071 30-03-2016 15:00:00 12.875 C 67.8333 % 7.08 C
1072 30-03-2016 16:00:00 13.05 C 69.1667 % 7.54 C
1073 30-03-2016 17:00:00 12.45833 C 73.0833 % 7.77 C
1074 30-03-2016 18:00:00 11.68333 C 76.1667 % 7.63 C
1075 30-03-2016 19:00:00 10.85833 C 81.1667 % 7.76 C
Sensor: Nr:Datum:Temp:Feuchte:Taupunkt:
Aussen-T/F 1076 30-03-2016 20:00:00 9.51667 C 89.9167 % 7.95 C
1077 30-03-2016 21:00:00 8.93333 C 93.2500 % 7.9 C
1078 30-03-2016 22:00:00 8.66667 C 94.5833 % 7.85 C
1079 30-03-2016 23:00:00 8 C 94.1667 % 7.12 C
1080 31-03-2016 00:00:00 7.45833 C 94.0000 % 6.56 C
1081 31-03-2016 01:00:00 7.375 C 93.7500 % 6.44 C
1082 31-03-2016 02:00:00 7.45 C 93.2500 % 6.43 C
1083 31-03-2016 03:00:00 7.55 C 92.0833 % 6.35 C
1084 31-03-2016 04:00:00 7.44167 C 90.7500 % 6.03 C
1085 31-03-2016 05:00:00 7.4 C 90.0000 % 5.87 C
1086 31-03-2016 06:00:00 7.325 C 90.1667 % 5.82 C
1087 31-03-2016 07:00:00 7.09167 C 91.2500 % 5.76 C
1088 31-03-2016 08:00:00 7.075 C 92.0000 % 5.87 C
1089 31-03-2016 09:00:00 7.61667 C 89.0833 % 5.94 C
1090 31-03-2016 10:00:00 8.075 C 87.0000 % 6.05 C
1091 31-03-2016 11:00:00 8.19167 C 88.3333 % 6.38 C
1092 31-03-2016 12:00:00 8.13333 C 92.0833 % 6.93 C
1093 31-03-2016 13:00:00 7.90833 C 93.7500 % 6.97 C
1094 31-03-2016 14:00:00 7.85833 C 94.9167 % 7.1 C
1095 31-03-2016 15:00:00 7.85833 C 95.0000 % 7.11 C
1096 31-03-2016 16:00:00 7.75 C 95.0000 % 7 C
1097 31-03-2016 17:00:00 7.4 C 95.0000 % 6.65 C
1098 31-03-2016 18:00:00 7.16667 C 95.0833 % 6.43 C
1099 31-03-2016 19:00:00 6.7 C 95.3333 % 6.01 C
1100 31-03-2016 20:00:00 5.95833 C 94.2500 % 5.11 C
Sensor: Nr:Datum:Temp:Feuchte:Taupunkt:
Aussen-T/F 1101 31-03-2016 21:00:00 5.075 C 93.5000 % 4.12 C
1102 31-03-2016 22:00:00 4.35833 C 94.7500 % 3.59 C
1103 31-03-2016 23:00:00 4.24167 C 94.8333 % 3.49 C
1104 01-04-2016 00:00:00 4.05833 C 95.0000 % 3.33 C
1105 01-04-2016 01:00:00 3.95833 C 95.0833 % 3.24 C
1106 01-04-2016 02:00:00 4.08333 C 95.0000 % 3.36 C
1107 01-04-2016 03:00:00 4.1 C 95.0000 % 3.37 C
1108 01-04-2016 04:00:00 4.15 C 95.1667 % 3.45 C
1109 01-04-2016 05:00:00 4.2 C 96.0000 % 3.62 C
1110 01-04-2016 06:00:00 4.24167 C 96.0000 % 3.66 C
1111 01-04-2016 07:00:00 4.31667 C 96.0000 % 3.74 C
1112 01-04-2016 08:00:00 4.675 C 96.0000 % 4.09 C
1113 01-04-2016 09:00:00 5.4 C 96.0833 % 4.83 C
1114 01-04-2016 10:00:00 6.25833 C 91.5000 % 4.98 C
1115 01-04-2016 11:00:00 7.35 C 84.5000 % 4.91 C
1116 01-04-2016 12:00:00 8.45 C 79.2500 % 5.07 C
1117 01-04-2016 13:00:00 9.55 C 71.7500 % 4.71 C
1118 01-04-2016 14:00:00 10.85 C 65.6667 % 4.69 C
1119 01-04-2016 15:00:00 11.39167 C 64.5000 % 4.95 C
1120 01-04-2016 16:00:00 11.175 C 65.4167 % 4.94 C
1121 01-04-2016 17:00:00 11.84167 C 63.6667 % 5.19 C
1122 01-04-2016 18:00:00 11.35 C 66.1667 % 5.27 C
1123 01-04-2016 19:00:00 9.79167 C 79.1667 % 6.36 C
1124 01-04-2016 20:00:00 7.86667 C 84.8333 % 5.48 C
1125 01-04-2016 21:00:00 6.79167 C 88.0833 % 4.96 C
Sensor: Nr:Datum:Temp:Feuchte:Taupunkt:
Aussen-T/F 1126 01-04-2016 22:00:00 6.51667 C 91.5833 % 5.25 C
1127 01-04-2016 23:00:00 6.20833 C 91.1667 % 4.88 C
1128 02-04-2016 00:00:00 5.125 C 92.5000 % 4.01 C
1129 02-04-2016 01:00:00 4.60833 C 93.2500 % 3.61 C
1130 02-04-2016 02:00:00 3.89167 C 93.7500 % 2.98 C
1131 02-04-2016 03:00:00 3.33333 C 94.5000 % 2.54 C
1132 02-04-2016 04:00:00 2.825 C 94.9167 % 2.09 C
1133 02-04-2016 05:00:00 2.33333 C 95.0000 % 1.62 C
1134 02-04-2016 06:00:00 2.18333 C 95.7500 % 1.58 C
1135 02-04-2016 07:00:00 1.975 C 96.0000 % 1.41 C
1136 02-04-2016 08:00:00 2.43333 C 96.0833 % 1.87 C
1137 02-04-2016 09:00:00 3.56667 C 96.9167 % 3.12 C
1138 02-04-2016 10:00:00 5.36667 C 96.7500 % 4.89 C
1139 02-04-2016 11:00:00 8.71667 C 85.2500 % 6.38 C
1140 02-04-2016 12:00:00 11.075 C 76.2500 % 7.06 C
1141 02-04-2016 13:00:00 12.83333 C 72.3333 % 7.98 C
1142 02-04-2016 14:00:00 13.90833 C 70.4167 % 8.62 C
1143 02-04-2016 15:00:00 15.04167 C 68.1667 % 9.22 C
1144 02-04-2016 16:00:00 16.16667 C 65.5833 % 9.72 C
1145 02-04-2016 17:00:00 16.45833 C 65.2500 % 9.92 C
1146 02-04-2016 18:00:00 16.175 C 67.5833 % 10.18 C
1147 02-04-2016 19:00:00 13.73333 C 79.4167 % 10.24 C
1148 02-04-2016 20:00:00 11.775 C 85.0833 % 9.35 C
1149 02-04-2016 21:00:00 11.24167 C 87.3333 % 9.22 C
1150 02-04-2016 22:00:00 10.69167 C 88.0000 % 8.79 C
Sensor: Nr:Datum:Temp:Feuchte:Taupunkt:
Aussen-T/F 1151 02-04-2016 23:00:00 9.98333 C 89.5833 % 8.35 C
1152 03-04-2016 00:00:00 9.91667 C 90.4167 % 8.42 C
1153 03-04-2016 01:00:00 9.90833 C 90.6667 % 8.46 C
1154 03-04-2016 02:00:00 10.05833 C 90.4167 % 8.56 C
1155 03-04-2016 03:00:00 9.83333 C 91.0000 % 8.44 C
1156 03-04-2016 04:00:00 9.63333 C 91.0833 % 8.25 C
1157 03-04-2016 05:00:00 9.20833 C 92.0000 % 7.98 C
1158 03-04-2016 06:00:00 8.64167 C 92.8333 % 7.55 C
1159 03-04-2016 07:00:00 8.81667 C 94.0000 % 7.91 C
1160 03-04-2016 08:00:00 9.39167 C 93.5833 % 8.41 C
1161 03-04-2016 09:00:00 10.65833 C 90.6667 % 9.2 C
1162 03-04-2016 10:00:00 12.275 C 84.4167 % 9.73 C
1163 03-04-2016 11:00:00 13.89167 C 81.1667 % 10.72 C
1164 03-04-2016 12:00:00 17.29167 C 71.5000 % 12.09 C
1165 03-04-2016 13:00:00 18.775 C 65.8333 % 12.26 C
1166 03-04-2016 14:00:00 20.10833 C 58.2500 % 11.66 C
1167 03-04-2016 15:00:00 20.30833 C 57.6667 % 11.69 C
1168 03-04-2016 16:00:00 18.85833 C 63.1667 % 11.71 C
1169 03-04-2016 17:00:00 18.29167 C 65.0833 % 11.62 C
1170 03-04-2016 18:00:00 17.66667 C 68.6667 % 11.84 C
1171 03-04-2016 19:00:00 16.69167 C 73.6667 % 11.97 C
1172 03-04-2016 20:00:00 14.85 C 81.5833 % 11.73 C
1173 03-04-2016 21:00:00 13.93333 C 84.9167 % 11.44 C
1174 03-04-2016 22:00:00 13.425 C 87.9167 % 11.46 C
1175 03-04-2016 23:00:00 13.075 C 91.8333 % 11.78 C
Sensor: Nr:Datum:Temp:Feuchte:Taupunkt:
Aussen-T/F 1176 04-04-2016 00:00:00 12.70833 C 93.7500 % 11.73 C
1177 04-04-2016 01:00:00 12.36667 C 94.9167 % 11.58 C
1178 04-04-2016 02:00:00 12.18333 C 95.5000 % 11.49 C
1179 04-04-2016 03:00:00 12.11667 C 96.0000 % 11.5 C
1180 04-04-2016 04:00:00 11.98333 C 96.0000 % 11.37 C
1181 04-04-2016 05:00:00 11.06667 C 96.0000 % 10.45 C
1182 04-04-2016 06:00:00 10.80833 C 96.0000 % 10.2 C
1183 04-04-2016 07:00:00 10.43333 C 96.3333 % 9.88 C
1184 04-04-2016 08:00:00 11.26667 C 97.0000 % 10.81 C
1185 04-04-2016 09:00:00 12.99167 C 94.3333 % 12.1 C
1186 04-04-2016 10:00:00 14.80833 C 82.9167 % 11.94 C
1187 04-04-2016 11:00:00 15.725 C 75.7500 % 11.46 C
1188 04-04-2016 12:00:00 16.025 C 70.7500 % 10.72 C
1189 04-04-2016 13:00:00 16.68333 C 65.5000 % 10.19 C
1190 04-04-2016 14:00:00 16.76667 C 63.0000 % 9.69 C
1191 04-04-2016 15:00:00 16.35833 C 63.8333 % 9.5 C
1192 04-04-2016 16:00:00 16.7 C 63.4167 % 9.73 C
1193 04-04-2016 17:00:00 16.04167 C 65.0833 % 9.49 C
1194 04-04-2016 18:00:00 17.075 C 60.6667 % 9.42 C
1195 04-04-2016 19:00:00 17.19167 C 61.7500 % 9.79 C
1196 04-04-2016 20:00:00 12.95833 C 77.8333 % 9.19 C
1197 04-04-2016 21:00:00 11.40833 C 83.5000 % 8.72 C
1198 04-04-2016 22:00:00 10.71667 C 86.2500 % 8.52 C
1199 04-04-2016 23:00:00 10.80833 C 87.0000 % 8.73 C
1200 05-04-2016 00:00:00 10.75833 C 87.1667 % 8.71 C
Sensor: Nr:Datum:Temp:Feuchte:Taupunkt:
Aussen-T/F 1201 05-04-2016 01:00:00 10.86667 C 90.0833 % 9.31 C
1202 05-04-2016 02:00:00 10.83333 C 89.0833 % 9.11 C
1203 05-04-2016 03:00:00 10.10833 C 91.0000 % 8.71 C
1204 05-04-2016 04:00:00 9.76667 C 93.1667 % 8.72 C
1205 05-04-2016 05:00:00 9.74167 C 94.2500 % 8.86 C
1206 05-04-2016 06:00:00 9.69167 C 95.0000 % 8.93 C
1207 05-04-2016 07:00:00 9.875 C 95.9167 % 9.26 C
1208 05-04-2016 08:00:00 10.73333 C 96.3333 % 10.17 C
1209 05-04-2016 09:00:00 11.64167 C 97.0000 % 11.18 C
1210 05-04-2016 10:00:00 12.7 C 96.6667 % 12.18 C
1211 05-04-2016 11:00:00 13.63333 C 92.0000 % 12.36 C
1212 05-04-2016 12:00:00 13.71667 C 90.5000 % 12.19 C
1213 05-04-2016 13:00:00 15.2 C 84.0833 % 12.53 C
1214 05-04-2016 14:00:00 15.65 C 78.0833 % 11.85 C
1215 05-04-2016 15:00:00 13.19167 C 89.0833 % 11.43 C
1216 05-04-2016 16:00:00 12.19167 C 93.1667 % 11.12 C
1217 05-04-2016 17:00:00 11.29167 C 92.9167 % 10.19 C
1218 05-04-2016 18:00:00 10.425 C 94.6667 % 9.61 C
1219 05-04-2016 19:00:00 10.3 C 95.6667 % 9.64 C
1220 05-04-2016 20:00:00 10.01667 C 96.0000 % 9.41 C
1221 05-04-2016 21:00:00 9.425 C 96.0000 % 8.82 C
1222 05-04-2016 22:00:00 9.20833 C 96.0833 % 8.62 C
1223 05-04-2016 23:00:00 9.05 C 96.8333 % 8.57 C
1224 06-04-2016 00:00:00 8.44167 C 96.4167 % 7.91 C
1225 06-04-2016 01:00:00 7.55833 C 96.5000 % 7.04 C
Sensor: Nr:Datum:Temp:Feuchte:Taupunkt:
Aussen-T/F 1226 06-04-2016 02:00:00 7.44167 C 96.9167 % 6.98 C
1227 06-04-2016 03:00:00 7.50833 C 97.0000 % 7.06 C
1228 06-04-2016 04:00:00 7.65833 C 97.0000 % 7.21 C
1229 06-04-2016 05:00:00 7.26667 C 96.8333 % 6.8 C
1230 06-04-2016 06:00:00 6.58333 C 96.0000 % 5.99 C
1231 06-04-2016 07:00:00 6.66667 C 96.0000 % 6.08 C
1232 06-04-2016 08:00:00 6.98333 C 95.2500 % 6.28 C
1233 06-04-2016 09:00:00 8.06667 C 93.4167 % 7.07 C
1234 06-04-2016 10:00:00 9.61667 C 87.2500 % 7.6 C
1235 06-04-2016 11:00:00 10.98333 C 80.1667 % 7.7 C
1236 06-04-2016 12:00:00 12.31667 C 74.6667 % 7.95 C
1237 06-04-2016 13:00:00 13.56667 C 67.2500 % 7.62 C
1238 06-04-2016 14:00:00 14.60833 C 61.6667 % 7.34 C
1239 06-04-2016 15:00:00 15.48333 C 58.6667 % 7.43 C
1240 06-04-2016 16:00:00 15.825 C 57.0833 % 7.35 C
1241 06-04-2016 17:00:00 14.83333 C 60.0000 % 7.15 C
1242 06-04-2016 18:00:00 14.525 C 60.7500 % 7.04 C
1243 06-04-2016 19:00:00 14.04167 C 62.5000 % 7 C
1244 06-04-2016 20:00:00 13.54167 C 65.5000 % 7.21 C
1245 06-04-2016 21:00:00 13.13333 C 66.1667 % 6.97 C
1246 06-04-2016 22:00:00 12.26667 C 69.2500 % 6.8 C
1247 06-04-2016 23:00:00 12 C 72.1667 % 7.15 C
1248 07-04-2016 00:00:00 10.975 C 78.2500 % 7.34 C
1249 07-04-2016 01:00:00 9.5 C 77.4167 % 5.75 C
1250 07-04-2016 02:00:00 8.91667 C 81.9167 % 6 C
Sensor: Nr:Datum:Temp:Feuchte:Taupunkt:
Aussen-T/F 1251 07-04-2016 03:00:00 9.08333 C 78.1667 % 5.49 C
1252 07-04-2016 04:00:00 8.35 C 86.1667 % 6.18 C
1253 07-04-2016 05:00:00 7.48333 C 88.1667 % 5.66 C
1254 07-04-2016 06:00:00 6.30833 C 93.0833 % 5.27 C
1255 07-04-2016 07:00:00 5.65 C 94.2500 % 4.8 C
1256 07-04-2016 08:00:00 5.175 C 94.2500 % 4.33 C
1257 07-04-2016 09:00:00 6.175 C 90.1667 % 4.69 C
1258 07-04-2016 10:00:00 7.99167 C 78.1667 % 4.43 C
1259 07-04-2016 11:00:00 9.1 C 70.5000 % 4.03 C
1260 07-04-2016 12:00:00 10.075 C 62.7500 % 3.31 C
1261 07-04-2016 13:00:00 10.98333 C 56.9167 % 2.79 C
1262 07-04-2016 14:00:00 11.475 C 54.7500 % 2.7 C
1263 07-04-2016 15:00:00 11.69167 C 53.0000 % 2.44 C
1264 07-04-2016 16:00:00 11.84167 C 53.0833 % 2.6 C
1265 07-04-2016 17:00:00 12.175 C 53.5833 % 3.05 C
1266 07-04-2016 18:00:00 10.31667 C 63.5833 % 3.72 C
1267 07-04-2016 19:00:00 8.35 C 73.0833 % 3.82 C
1268 07-04-2016 20:00:00 7.5 C 75.4167 % 3.44 C
1269 07-04-2016 21:00:00 5.625 C 83.8333 % 3.11 C
1270 07-04-2016 22:00:00 4.90833 C 87.0000 % 2.93 C
1271 07-04-2016 23:00:00 4.225 C 89.3333 % 2.63 C
1272 08-04-2016 00:00:00 3.575 C 90.2500 % 2.13 C
1273 08-04-2016 01:00:00 3.05 C 91.4167 % 1.79 C
1274 08-04-2016 02:00:00 2.39167 C 92.5833 % 1.32 C
1275 08-04-2016 03:00:00 1.925 C 93.5833 % 1 C
Sensor: Nr:Datum:Temp:Feuchte:Taupunkt:
Aussen-T/F 1276 08-04-2016 04:00:00 1.7 C 94.0000 % 0.84 C
1277 08-04-2016 05:00:00 1.125 C 94.2500 % 0.31 C
1278 08-04-2016 06:00:00 0.84167 C 95.0000 % 0.13 C
1279 08-04-2016 07:00:00 0.8 C 95.3333 % 0.14 C
1280 08-04-2016 08:00:00 1.15833 C 95.8333 % 0.57 C
1281 08-04-2016 09:00:00 2.58333 C 96.3333 % 2.06 C
1282 08-04-2016 10:00:00 5.75833 C 91.7500 % 4.52 C
1283 08-04-2016 11:00:00 8.69167 C 76.1667 % 4.74 C
1284 08-04-2016 12:00:00 10.51667 C 62.0000 % 3.55 C
1285 08-04-2016 13:00:00 11.5 C 59.4167 % 3.88 C
1286 08-04-2016 14:00:00 12.4 C 56.7500 % 4.07 C
1287 08-04-2016 15:00:00 12.55833 C 56.9167 % 4.26 C
1288 08-04-2016 16:00:00 12.40833 C 58.3333 % 4.47 C
1289 08-04-2016 17:00:00 12.69167 C 57.4167 % 4.51 C
1290 08-04-2016 18:00:00 11.75 C 59.5000 % 4.13 C
1291 08-04-2016 19:00:00 11.16667 C 68.0000 % 5.49 C
1292 08-04-2016 20:00:00 9.15833 C 74.6667 % 4.9 C
1293 08-04-2016 21:00:00 7.24167 C 80.3333 % 4.09 C
1294 08-04-2016 22:00:00 5.84167 C 84.5000 % 3.44 C
1295 08-04-2016 23:00:00 4.78333 C 86.5000 % 2.73 C
1296 09-04-2016 00:00:00 3.825 C 89.3333 % 2.24 C
1297 09-04-2016 01:00:00 3.24167 C 91.1667 % 1.94 C
1298 09-04-2016 02:00:00 2.7 C 92.1667 % 1.56 C
1299 09-04-2016 03:00:00 2.09167 C 93.2500 % 1.12 C
1300 09-04-2016 04:00:00 1.68333 C 94.0000 % 0.82 C
Sensor: Nr:Datum:Temp:Feuchte:Taupunkt:
Aussen-T/F 1301 09-04-2016 05:00:00 1.30833 C 94.2500 % 0.49 C
1302 09-04-2016 06:00:00 0.81667 C 95.0000 % 0.11 C
1303 09-04-2016 07:00:00 0.675 C 95.0000 % -0.03 C
1304 09-04-2016 08:00:00 1.01667 C 95.6667 % 0.4 C
1305 09-04-2016 09:00:00 2.025 C 96.0833 % 1.47 C
1306 09-04-2016 10:00:00 4.325 C 95.8333 % 3.72 C
1307 09-04-2016 11:00:00 7.99167 C 85.5833 % 5.73 C
1308 09-04-2016 12:00:00 12.35 C 55.6667 % 3.75 C
1309 09-04-2016 13:00:00 13.83333 C 46.0000 % 2.43 C
1310 09-04-2016 14:00:00 14.925 C 43.2500 % 2.55 C
1311 09-04-2016 15:00:00 15.425 C 38.4167 % 1.35 C
1312 09-04-2016 16:00:00 15.66667 C 39.0833 % 1.8 C
1313 09-04-2016 17:00:00 15.34167 C 41.5833 % 2.38 C
1314 09-04-2016 18:00:00 15.93333 C 39.4167 % 2.16 C
1315 09-04-2016 19:00:00 15.125 C 46.0833 % 3.63 C
1316 09-04-2016 20:00:00 11.075 C 63.7500 % 4.48 C
1317 09-04-2016 21:00:00 9.83333 C 69.2500 % 4.48 C
1318 09-04-2016 22:00:00 10.1 C 68.9167 % 4.66 C
1319 09-04-2016 23:00:00 10.725 C 68.3333 % 5.14 C
1320 10-04-2016 00:00:00 10.65 C 70.6667 % 5.55 C
1321 10-04-2016 01:00:00 10.11667 C 74.7500 % 5.84 C
1322 10-04-2016 02:00:00 9.28333 C 79.8333 % 5.99 C
1323 10-04-2016 03:00:00 9.03333 C 82.2500 % 6.17 C
1324 10-04-2016 04:00:00 8.63333 C 83.5000 % 6 C
1325 10-04-2016 05:00:00 8.24167 C 84.0833 % 5.72 C
Sensor: Nr:Datum:Temp:Feuchte:Taupunkt:
Aussen-T/F 1326 10-04-2016 06:00:00 7.06667 C 86.3333 % 4.94 C
1327 10-04-2016 07:00:00 6.225 C 89.5000 % 4.63 C
1328 10-04-2016 08:00:00 6.73333 C 91.1667 % 5.4 C
1329 10-04-2016 09:00:00 8.60833 C 88.8333 % 6.87 C
1330 10-04-2016 10:00:00 11.425 C 72.8333 % 6.73 C
1331 10-04-2016 11:00:00 13.69167 C 59.0833 % 5.85 C
1332 10-04-2016 12:00:00 14.81667 C 53.9167 % 5.59 C
1333 10-04-2016 13:00:00 15.40833 C 52.1667 % 5.66 C
1334 10-04-2016 14:00:00 15.95 C 52.7500 % 6.32 C
1335 10-04-2016 15:00:00 16.40833 C 51.0000 % 6.26 C
1336 10-04-2016 16:00:00 16.675 C 50.5000 % 6.36 C
1337 10-04-2016 17:00:00 16.925 C 49.9167 % 6.42 C
1338 10-04-2016 18:00:00 17.29167 C 48.5000 % 6.34 C
1339 10-04-2016 19:00:00 16.1 C 54.1667 % 6.84 C
1340 10-04-2016 20:00:00 12.425 C 69.3333 % 6.97 C
1341 10-04-2016 21:00:00 10.85 C 75.0000 % 6.6 C
1342 10-04-2016 22:00:00 9.95 C 78.4167 % 6.38 C
1343 10-04-2016 23:00:00 9.43333 C 80.2500 % 6.21 C
1344 11-04-2016 00:00:00 8.75 C 82.4167 % 5.93 C
1345 11-04-2016 01:00:00 8.16667 C 83.7500 % 5.59 C
1346 11-04-2016 02:00:00 7.75833 C 84.6667 % 5.34 C
1347 11-04-2016 03:00:00 7.39167 C 84.8333 % 5.01 C
1348 11-04-2016 04:00:00 6.83333 C 85.8333 % 4.63 C
1349 11-04-2016 05:00:00 6.03333 C 87.7500 % 4.16 C
1350 11-04-2016 06:00:00 5.56667 C 89.1667 % 3.93 C
Sensor: Nr:Datum:Temp:Feuchte:Taupunkt:
Aussen-T/F 1351 11-04-2016 07:00:00 5.29167 C 90.4167 % 3.85 C
1352 11-04-2016 08:00:00 5.71667 C 90.0833 % 4.22 C
1353 11-04-2016 09:00:00 6.775 C 89.4167 % 5.16 C
1354 11-04-2016 10:00:00 9.83333 C 79.0833 % 6.38 C
1355 11-04-2016 11:00:00 13.025 C 67.3333 % 7.12 C
1356 11-04-2016 12:00:00 15.3 C 57.4167 % 6.95 C
1357 11-04-2016 13:00:00 16.41667 C 53.8333 % 7.05 C
1358 11-04-2016 14:00:00 17.275 C 51.1667 % 7.1 C
1359 11-04-2016 15:00:00 18.31667 C 48.6667 % 7.33 C
1360 11-04-2016 16:00:00 19.53333 C 44.8333 % 7.24 C
1361 11-04-2016 17:00:00 20.28333 C 43.1667 % 7.36 C
1362 11-04-2016 18:00:00 20.71667 C 41.9167 % 7.32 C
1363 11-04-2016 19:00:00 18.81667 C 48.3333 % 7.68 C
1364 11-04-2016 20:00:00 13.95 C 65.8333 % 7.67 C
1365 11-04-2016 21:00:00 12.25 C 72.2500 % 7.41 C
1366 11-04-2016 22:00:00 11.975 C 76.2500 % 7.93 C
1367 11-04-2016 23:00:00 12.25833 C 73.0000 % 7.57 C
1368 12-04-2016 00:00:00 11.34167 C 75.5833 % 7.19 C
1369 12-04-2016 01:00:00 9.60833 C 82.3333 % 6.75 C
1370 12-04-2016 02:00:00 9.21667 C 84.5833 % 6.76 C
1371 12-04-2016 03:00:00 8.71667 C 85.5833 % 6.44 C
1372 12-04-2016 04:00:00 7.7 C 88.0833 % 5.86 C
1373 12-04-2016 05:00:00 7.05 C 90.7500 % 5.64 C
1374 12-04-2016 06:00:00 6.70833 C 92.2500 % 5.54 C
1375 12-04-2016 07:00:00 7.075 C 93.1667 % 6.05 C
Sensor: Nr:Datum:Temp:Feuchte:Taupunkt:
Aussen-T/F 1376 12-04-2016 08:00:00 8.04167 C 92.5833 % 6.91 C
1377 12-04-2016 09:00:00 9.41667 C 89.5833 % 7.79 C
1378 12-04-2016 10:00:00 11.6 C 84.3333 % 9.05 C
1379 12-04-2016 11:00:00 14.30833 C 71.7500 % 9.28 C
1380 12-04-2016 12:00:00 15.725 C 62.5000 % 8.59 C
1381 12-04-2016 13:00:00 17.175 C 49.2500 % 6.45 C
1382 12-04-2016 14:00:00 18.225 C 43.0833 % 5.48 C
1383 12-04-2016 15:00:00 18.8 C 40.1667 % 4.99 C
1384 12-04-2016 16:00:00 18.83333 C 44.9167 % 6.63 C
1385 12-04-2016 17:00:00 16.15 C 62.2500 % 8.93 C
1386 12-04-2016 18:00:00 10.61667 C 89.4167 % 8.95 C
1387 12-04-2016 19:00:00 10.49167 C 93.5000 % 9.49 C
1388 12-04-2016 20:00:00 9.65 C 93.6667 % 8.68 C
1389 12-04-2016 21:00:00 8.575 C 94.8333 % 7.79 C
1390 12-04-2016 22:00:00 8.41667 C 95.6667 % 7.77 C
1391 12-04-2016 23:00:00 8.04167 C 95.8333 % 7.42 C
1392 13-04-2016 00:00:00 7.25833 C 95.8333 % 6.64 C
1393 13-04-2016 01:00:00 7.65833 C 96.3333 % 7.11 C
1394 13-04-2016 02:00:00 6.925 C 96.0833 % 6.34 C
1395 13-04-2016 03:00:00 7.025 C 97.0000 % 6.58 C
1396 13-04-2016 04:00:00 7.125 C 97.0000 % 6.68 C
1397 13-04-2016 05:00:00 7.21667 C 97.0000 % 6.77 C
1398 13-04-2016 06:00:00 7.34167 C 97.0000 % 6.9 C
1399 13-04-2016 07:00:00 7.375 C 97.0000 % 6.93 C
1400 13-04-2016 08:00:00 7.64167 C 97.0000 % 7.2 C
Sensor: Nr:Datum:Temp:Feuchte:Taupunkt:
Aussen-T/F 1401 13-04-2016 09:00:00 7.86667 C 97.0000 % 7.42 C
1402 13-04-2016 10:00:00 8.125 C 97.0000 % 7.68 C
1403 13-04-2016 11:00:00 8.49167 C 97.0000 % 8.04 C
1404 13-04-2016 12:00:00 9.09167 C 96.9167 % 8.63 C
1405 13-04-2016 13:00:00 9.9 C 94.5000 % 9.06 C
1406 13-04-2016 14:00:00 10.60833 C 92.8333 % 9.5 C
1407 13-04-2016 15:00:00 10.775 C 93.5833 % 9.78 C
1408 13-04-2016 16:00:00 11.41667 C 88.8333 % 9.64 C
1409 13-04-2016 17:00:00 11.675 C 79.8333 % 8.31 C
1410 13-04-2016 18:00:00 11.125 C 84.6667 % 8.64 C
1411 13-04-2016 19:00:00 10.01667 C 89.5833 % 8.39 C
1412 13-04-2016 20:00:00 9.725 C 91.1667 % 8.36 C
1413 13-04-2016 21:00:00 9.425 C 91.5000 % 8.11 C
1414 13-04-2016 22:00:00 8.96667 C 93.5833 % 7.99 C
1415 13-04-2016 23:00:00 8.75 C 95.0000 % 7.99 C
1416 14-04-2016 00:00:00 8.53333 C 95.7500 % 7.89 C
1417 14-04-2016 01:00:00 8.41667 C 96.0000 % 7.82 C
1418 14-04-2016 02:00:00 7.925 C 95.5000 % 7.25 C
1419 14-04-2016 03:00:00 6.86667 C 95.2500 % 6.16 C
1420 14-04-2016 04:00:00 6.14167 C 95.9167 % 5.54 C
1421 14-04-2016 05:00:00 5.4 C 96.0000 % 4.81 C
1422 14-04-2016 06:00:00 5.525 C 96.0833 % 4.95 C
1423 14-04-2016 07:00:00 5.56667 C 97.0000 % 5.13 C
1424 14-04-2016 08:00:00 5.8 C 97.0000 % 5.36 C
1425 14-04-2016 09:00:00 6.23333 C 97.0000 % 5.79 C
Sensor: Nr:Datum:Temp:Feuchte:Taupunkt:
Aussen-T/F 1426 14-04-2016 10:00:00 7.2 C 97.2500 % 6.79 C
1427 14-04-2016 11:00:00 8.56667 C 96.9167 % 8.11 C
1428 14-04-2016 12:00:00 11.03333 C 90.1667 % 9.49 C
1429 14-04-2016 13:00:00 13.30833 C 74.3333 % 8.84 C
1430 14-04-2016 14:00:00 14.78333 C 59.4167 % 6.96 C
1431 14-04-2016 15:00:00 15.85 C 50.5833 % 5.62 C
1432 14-04-2016 16:00:00 16.44167 C 50.0833 % 6.02 C
1433 14-04-2016 17:00:00 17.43333 C 45.6667 % 5.6 C
1434 14-04-2016 18:00:00 18.59167 C 43.9167 % 6.09 C
1435 14-04-2016 19:00:00 17.14167 C 52.3333 % 7.31 C
1436 14-04-2016 20:00:00 13.79167 C 69.6667 % 8.35 C
1437 14-04-2016 21:00:00 11.80833 C 78.0833 % 8.12 C
1438 14-04-2016 22:00:00 11.1 C 81.4167 % 8.04 C
1439 14-04-2016 23:00:00 10.875 C 83.5833 % 8.21 C
1440 15-04-2016 00:00:00 10.7 C 85.4167 % 8.36 C
1441 15-04-2016 01:00:00 10.01667 C 87.8333 % 8.1 C
1442 15-04-2016 02:00:00 10.16667 C 88.5000 % 8.35 C
1443 15-04-2016 03:00:00 10.04167 C 89.2500 % 8.36 C
1444 15-04-2016 04:00:00 9.775 C 93.2500 % 8.74 C
1445 15-04-2016 05:00:00 9.3 C 94.2500 % 8.42 C
1446 15-04-2016 06:00:00 8.96667 C 95.0000 % 8.21 C
1447 15-04-2016 07:00:00 9.31667 C 95.8333 % 8.69 C
1448 15-04-2016 08:00:00 10.39167 C 93.3333 % 9.36 C
1449 15-04-2016 09:00:00 12.075 C 85.9167 % 9.79 C
1450 15-04-2016 10:00:00 13.125 C 80.1667 % 9.79 C
Sensor: Nr:Datum:Temp:Feuchte:Taupunkt:
Aussen-T/F 1451 15-04-2016 11:00:00 13.95833 C 74.7500 % 9.55 C
1452 15-04-2016 12:00:00 14.59167 C 66.5000 % 8.43 C
1453 15-04-2016 13:00:00 15.26667 C 63.6667 % 8.43 C
1454 15-04-2016 14:00:00 16.14167 C 57.7500 % 7.82 C
1455 15-04-2016 15:00:00 16.93333 C 51.2500 % 6.81 C
1456 15-04-2016 16:00:00 18.03333 C 49.5833 % 7.34 C
1457 15-04-2016 17:00:00 18.675 C 45.0833 % 6.54 C
1458 15-04-2016 18:00:00 18.00833 C 46.9167 % 6.51 C
1459 15-04-2016 19:00:00 17.10833 C 50.4167 % 6.73 C
1460 15-04-2016 20:00:00 14.65833 C 59.3333 % 6.82 C
1461 15-04-2016 21:00:00 12.75 C 67.7500 % 6.95 C
1462 15-04-2016 22:00:00 11.625 C 76.1667 % 7.58 C
1463 15-04-2016 23:00:00 11.48333 C 81.6667 % 8.46 C
1464 16-04-2016 00:00:00 10.76667 C 84.6667 % 8.29 C
1465 16-04-2016 01:00:00 10.85833 C 86.7500 % 8.74 C
1466 16-04-2016 02:00:00 10.775 C 87.3333 % 8.76 C
1467 16-04-2016 03:00:00 10.575 C 88.8333 % 8.81 C
1468 16-04-2016 04:00:00 11.13333 C 85.0000 % 8.71 C
1469 16-04-2016 05:00:00 11.08333 C 85.5833 % 8.76 C
1470 16-04-2016 06:00:00 10.99167 C 86.7500 % 8.87 C
1471 16-04-2016 07:00:00 11.25833 C 85.2500 % 8.88 C
1472 16-04-2016 08:00:00 11.54167 C 83.0000 % 8.76 C
1473 16-04-2016 09:00:00 12.10833 C 80.1667 % 8.8 C
1474 16-04-2016 10:00:00 12.4 C 77.9167 % 8.66 C
1475 16-04-2016 11:00:00 12.88333 C 77.7500 % 9.1 C
Sensor: Nr:Datum:Temp:Feuchte:Taupunkt:
Aussen-T/F 1476 16-04-2016 12:00:00 14.35833 C 68.5000 % 8.64 C
1477 16-04-2016 13:00:00 15.33333 C 61.9167 % 8.08 C
1478 16-04-2016 14:00:00 16.175 C 55.9167 % 7.38 C
1479 16-04-2016 15:00:00 15.45 C 62.5833 % 8.35 C
1480 16-04-2016 16:00:00 14.50833 C 82.2500 % 11.52 C
1481 16-04-2016 17:00:00 14.875 C 72.2500 % 9.93 C
1482 16-04-2016 18:00:00 12.25 C 82.2500 % 9.32 C
1483 16-04-2016 19:00:00 10.90833 C 87.4167 % 8.9 C
1484 16-04-2016 20:00:00 9.925 C 92.0000 % 8.69 C
1485 16-04-2016 21:00:00 9.58333 C 93.5000 % 8.59 C
1486 16-04-2016 22:00:00 9.35833 C 94.0000 % 8.44 C
1487 16-04-2016 23:00:00 8.78333 C 94.5000 % 7.95 C
1488 17-04-2016 00:00:00 8.59167 C 95.0000 % 7.84 C
1489 17-04-2016 01:00:00 8.25 C 95.0000 % 7.5 C
1490 17-04-2016 02:00:00 7.69167 C 95.0000 % 6.94 C
1491 17-04-2016 03:00:00 7.15833 C 95.3333 % 6.46 C
1492 17-04-2016 04:00:00 6.63333 C 95.2500 % 5.93 C
1493 17-04-2016 05:00:00 6.15 C 95.7500 % 5.52 C
1494 17-04-2016 06:00:00 5.88333 C 96.0000 % 5.3 C
1495 17-04-2016 07:00:00 5.84167 C 95.5000 % 5.18 C
1496 17-04-2016 08:00:00 6.28333 C 92.8333 % 5.21 C
1497 17-04-2016 09:00:00 6.96667 C 88.8333 % 5.25 C
1498 17-04-2016 10:00:00 7.71667 C 81.5000 % 4.76 C
1499 17-04-2016 11:00:00 8.83333 C 72.5000 % 4.17 C
1500 17-04-2016 12:00:00 9.05 C 72.6667 % 4.41 C
Sensor: Nr:Datum:Temp:Feuchte:Taupunkt:
Aussen-T/F 1501 17-04-2016 13:00:00 9.6 C 66.4167 % 3.66 C
1502 17-04-2016 14:00:00 10.20833 C 61.6667 % 3.19 C
1503 17-04-2016 15:00:00 10.85833 C 53.2500 % 1.74 C
1504 17-04-2016 16:00:00 12.10833 C 44.6667 % 0.45 C
1505 17-04-2016 17:00:00 13.44167 C 40.0833 % 0.16 C
1506 17-04-2016 18:00:00 13.15 C 41.7500 % 0.46 C
1507 17-04-2016 19:00:00 11.63333 C 54.6667 % 2.82 C
1508 17-04-2016 20:00:00 8.65833 C 70.2500 % 3.55 C
1509 17-04-2016 21:00:00 6.61667 C 79.5000 % 3.33 C
1510 17-04-2016 22:00:00 5.5 C 83.5833 % 2.95 C
1511 17-04-2016 23:00:00 5.04167 C 85.5000 % 2.82 C
1512 18-04-2016 00:00:00 4.21667 C 88.5000 % 2.49 C
1513 18-04-2016 01:00:00 3.30833 C 90.5833 % 1.92 C
1514 18-04-2016 02:00:00 2.58333 C 92.1667 % 1.44 C
1515 18-04-2016 03:00:00 2.08333 C 93.0000 % 1.07 C
1516 18-04-2016 04:00:00 1.64167 C 93.9167 % 0.77 C
1517 18-04-2016 05:00:00 1.225 C 94.0833 % 0.38 C
1518 18-04-2016 06:00:00 0.84167 C 95.0000 % 0.13 C
1519 18-04-2016 07:00:00 0.9 C 95.0833 % 0.2 C
1520 18-04-2016 08:00:00 1.55 C 95.9167 % 0.97 C
1521 18-04-2016 09:00:00 2.63333 C 96.0833 % 2.07 C
1522 18-04-2016 10:00:00 5.125 C 94.4167 % 4.3 C
1523 18-04-2016 11:00:00 8.725 C 76.7500 % 4.88 C
1524 18-04-2016 12:00:00 10.475 C 61.5000 % 3.4 C
1525 18-04-2016 13:00:00 11.51667 C 56.9167 % 3.28 C
Sensor: Nr:Datum:Temp:Feuchte:Taupunkt:
Aussen-T/F 1526 18-04-2016 14:00:00 12.44167 C 54.1667 % 3.45 C
1527 18-04-2016 15:00:00 12.825 C 53.0000 % 3.49 C
1528 18-04-2016 16:00:00 14.025 C 48.1667 % 3.25 C
1529 18-04-2016 17:00:00 13.80833 C 47.5833 % 2.88 C
1530 18-04-2016 18:00:00 14.54167 C 43.0000 % 2.12 C
1531 18-04-2016 19:00:00 14.08333 C 41.8333 % 1.33 C
1532 18-04-2016 20:00:00 11.225 C 55.0000 % 2.53 C
1533 18-04-2016 21:00:00 8.25 C 70.0000 % 3.11 C
1534 18-04-2016 22:00:00 6.85 C 76.3333 % 2.98 C
1535 18-04-2016 23:00:00 5.91667 C 79.5833 % 2.66 C
1536 19-04-2016 00:00:00 5.38333 C 81.4167 % 2.46 C
1537 19-04-2016 01:00:00 4.975 C 83.1667 % 2.36 C
1538 19-04-2016 02:00:00 5.54167 C 82.2500 % 2.76 C
1539 19-04-2016 03:00:00 5.84167 C 81.0000 % 2.84 C
1540 19-04-2016 04:00:00 4.94167 C 84.0000 % 2.47 C
1541 19-04-2016 05:00:00 4.01667 C 86.5000 % 1.97 C
1542 19-04-2016 06:00:00 4.31667 C 86.1667 % 2.21 C
1543 19-04-2016 07:00:00 4.86667 C 85.1667 % 2.59 C
1544 19-04-2016 08:00:00 5.84167 C 83.5833 % 3.28 C
1545 19-04-2016 09:00:00 7.44167 C 78.6667 % 3.98 C
1546 19-04-2016 10:00:00 9.08333 C 73.0000 % 4.51 C
1547 19-04-2016 11:00:00 10.66667 C 68.8333 % 5.19 C
1548 19-04-2016 12:00:00 12.33333 C 63.5833 % 5.63 C
1549 19-04-2016 13:00:00 12.74167 C 61.5000 % 5.54 C
1550 19-04-2016 14:00:00 12.45833 C 61.2500 % 5.21 C
Sensor: Nr:Datum:Temp:Feuchte:Taupunkt:
Aussen-T/F 1551 19-04-2016 15:00:00 13.36667 C 57.2500 % 5.1 C
1552 19-04-2016 16:00:00 14.04167 C 53.0833 % 4.64 C
1553 19-04-2016 17:00:00 13.49167 C 55.5833 % 4.79 C
1554 19-04-2016 18:00:00 13.575 C 55.5833 % 4.87 C
1555 19-04-2016 19:00:00 13.325 C 57.6667 % 5.16 C
1556 19-04-2016 20:00:00 11.58333 C 66.6667 % 5.6 C
1557 19-04-2016 21:00:00 8.89167 C 75.0000 % 4.71 C
1558 19-04-2016 22:00:00 7.3 C 80.5833 % 4.19 C
1559 19-04-2016 23:00:00 6.01667 C 84.0000 % 3.52 C
1560 20-04-2016 00:00:00 5.24167 C 86.1667 % 3.12 C
1561 20-04-2016 01:00:00 4.74167 C 89.4167 % 3.15 C
1562 20-04-2016 02:00:00 5.475 C 88.6667 % 3.76 C
1563 20-04-2016 03:00:00 5.39167 C 85.6667 % 3.19 C
1564 20-04-2016 04:00:00 4.48333 C 86.7500 % 2.47 C
1565 20-04-2016 05:00:00 3.225 C 89.5000 % 1.67 C
1566 20-04-2016 06:00:00 2.35833 C 91.4167 % 1.11 C
1567 20-04-2016 07:00:00 2.16667 C 93.2500 % 1.19 C
1568 20-04-2016 08:00:00 2.93333 C 94.0000 % 2.07 C
1569 20-04-2016 09:00:00 4.36667 C 92.7500 % 3.3 C
1570 20-04-2016 10:00:00 7.80833 C 77.4167 % 4.11 C
1571 20-04-2016 11:00:00 10.03333 C 64.9167 % 3.75 C
1572 20-04-2016 12:00:00 11.30833 C 58.7500 % 3.54 C
1573 20-04-2016 13:00:00 12.55 C 50.2500 % 2.49 C
1574 20-04-2016 14:00:00 13.95 C 40.5833 % 0.79 C
1575 20-04-2016 15:00:00 15.35833 C 34.1667 % -0.33 C
Sensor: Nr:Datum:Temp:Feuchte:Taupunkt:
Aussen-T/F 1576 20-04-2016 16:00:00 16.90833 C 31.4167 % -0.13 C
1577 20-04-2016 17:00:00 17.35 C 29.5833 % -0.57 C
1578 20-04-2016 18:00:00 17.49167 C 29.3333 % -0.56 C
1579 20-04-2016 19:00:00 17.05 C 32.0000 % 0.25 C
1580 20-04-2016 20:00:00 13.2 C 51.5000 % 3.44 C
1581 20-04-2016 21:00:00 10.3 C 59.7500 % 2.83 C
1582 20-04-2016 22:00:00 8.875 C 66.7500 % 3.04 C
1583 20-04-2016 23:00:00 7.175 C 71.5833 % 2.39 C
1584 21-04-2016 00:00:00 6.3 C 75.8333 % 2.36 C
1585 21-04-2016 01:00:00 5.425 C 78.8333 % 2.05 C
1586 21-04-2016 02:00:00 4.76667 C 82.0833 % 1.98 C
1587 21-04-2016 03:00:00 4.04167 C 84.0000 % 1.59 C
1588 21-04-2016 04:00:00 3.38333 C 86.8333 % 1.4 C
1589 21-04-2016 05:00:00 2.675 C 89.0000 % 1.05 C
1590 21-04-2016 06:00:00 2.23333 C 90.5833 % 0.86 C
1591 21-04-2016 07:00:00 2.4 C 91.8333 % 1.21 C
1592 21-04-2016 08:00:00 3 C 92.7500 % 1.94 C
1593 21-04-2016 09:00:00 4.90833 C 91.0833 % 3.58 C
1594 21-04-2016 10:00:00 8.80833 C 78.9167 % 5.36 C
1595 21-04-2016 11:00:00 13.125 C 59.1667 % 5.34 C
1596 21-04-2016 12:00:00 15.85833 C 46.5000 % 4.42 C
1597 21-04-2016 13:00:00 17.35 C 43.7500 % 4.91 C
1598 21-04-2016 14:00:00 18.675 C 40.0000 % 4.82 C
1599 21-04-2016 15:00:00 20.06667 C 34.4167 % 3.91 C
1600 21-04-2016 16:00:00 21.53333 C 31.7500 % 4.04 C
Sensor: Nr:Datum:Temp:Feuchte:Taupunkt:
Aussen-T/F 1601 21-04-2016 17:00:00 22.48333 C 30.3333 % 4.22 C
1602 21-04-2016 18:00:00 22.81667 C 30.8333 % 4.74 C
1603 21-04-2016 19:00:00 20.74167 C 38.6667 % 6.17 C
1604 21-04-2016 20:00:00 16.025 C 52.2500 % 6.25 C
1605 21-04-2016 21:00:00 14.08333 C 58.2500 % 6.02 C
1606 21-04-2016 22:00:00 12.475 C 64.0833 % 5.88 C
1607 21-04-2016 23:00:00 11.2 C 70.0833 % 5.96 C
1608 22-04-2016 00:00:00 10.49167 C 75.4167 % 6.34 C
1609 22-04-2016 01:00:00 9.75 C 79.3333 % 6.35 C
1610 22-04-2016 02:00:00 10.66667 C 76.9167 % 6.79 C
1611 22-04-2016 03:00:00 10.65833 C 77.6667 % 6.92 C
1612 22-04-2016 04:00:00 10.31667 C 77.1667 % 6.5 C
1613 22-04-2016 05:00:00 9.85833 C 78.2500 % 6.26 C
1614 22-04-2016 06:00:00 9.95833 C 75.4167 % 5.82 C
1615 22-04-2016 07:00:00 9.575 C 77.8333 % 5.9 C
1616 22-04-2016 08:00:00 10.25 C 74.2500 % 5.88 C
1617 22-04-2016 09:00:00 11.2 C 72.7500 % 6.5 C
1618 22-04-2016 10:00:00 12.49167 C 65.8333 % 6.28 C
1619 22-04-2016 11:00:00 13.60833 C 56.7500 % 5.2 C
1620 22-04-2016 12:00:00 14.33333 C 53.0833 % 4.91 C
1621 22-04-2016 13:00:00 15.15833 C 48.5000 % 4.38 C
1622 22-04-2016 14:00:00 15.825 C 45.0833 % 3.95 C
1623 22-04-2016 15:00:00 17.11667 C 42.5000 % 4.28 C
1624 22-04-2016 16:00:00 18.58333 C 42.7500 % 5.69 C
1625 22-04-2016 17:00:00 19.13333 C 41.8333 % 5.87 C
Sensor: Nr:Datum:Temp:Feuchte:Taupunkt:
Aussen-T/F 1626 22-04-2016 18:00:00 17.76667 C 42.4167 % 4.84 C
1627 22-04-2016 19:00:00 16.08333 C 47.5833 % 4.96 C
1628 22-04-2016 20:00:00 14.875 C 53.3333 % 5.48 C
1629 22-04-2016 21:00:00 13.975 C 56.0833 % 5.37 C
1630 22-04-2016 22:00:00 12.71667 C 64.2500 % 6.15 C
1631 22-04-2016 23:00:00 11.85 C 67.8333 % 6.11 C
1632 23-04-2016 00:00:00 11.41667 C 69.5000 % 6.04 C
1633 23-04-2016 01:00:00 10.83333 C 73.0833 % 6.21 C
1634 23-04-2016 02:00:00 9.9 C 79.4167 % 6.51 C
1635 23-04-2016 03:00:00 9.09167 C 85.0833 % 6.72 C
1636 23-04-2016 04:00:00 8.4 C 89.5000 % 6.78 C
1637 23-04-2016 05:00:00 7.825 C 91.5833 % 6.54 C
1638 23-04-2016 06:00:00 7.50833 C 92.1667 % 6.32 C
1639 23-04-2016 07:00:00 7.15 C 90.8333 % 5.76 C
1640 23-04-2016 08:00:00 6.63333 C 90.6667 % 5.22 C
1641 23-04-2016 09:00:00 6.33333 C 91.1667 % 5 C
1642 23-04-2016 10:00:00 6.3 C 92.0000 % 5.1 C
1643 23-04-2016 11:00:00 6.4 C 90.3333 % 4.94 C
1644 23-04-2016 12:00:00 6.7 C 87.4167 % 4.76 C
1645 23-04-2016 13:00:00 7.325 C 80.0000 % 4.11 C
1646 23-04-2016 14:00:00 8.2 C 73.1667 % 3.69 C
1647 23-04-2016 15:00:00 9.20833 C 60.1667 % 1.9 C
1648 23-04-2016 16:00:00 8.80833 C 59.5833 % 1.39 C
1649 23-04-2016 17:00:00 9.90833 C 57.1667 % 1.84 C
1650 23-04-2016 18:00:00 10.13333 C 51.4167 % 0.58 C
Sensor: Nr:Datum:Temp:Feuchte:Taupunkt:
Aussen-T/F 1651 23-04-2016 19:00:00 8.325 C 61.1667 % 1.3 C
1652 23-04-2016 20:00:00 7.125 C 69.9167 % 2.02 C
1653 23-04-2016 21:00:00 5.81667 C 79.0000 % 2.46 C
1654 23-04-2016 22:00:00 5.18333 C 83.0833 % 2.55 C
1655 23-04-2016 23:00:00 4.66667 C 80.0833 % 1.53 C
1656 24-04-2016 00:00:00 4.7 C 77.7500 % 1.16 C
1657 24-04-2016 01:00:00 4.80833 C 77.9167 % 1.29 C
1658 24-04-2016 02:00:00 4.475 C 79.3333 % 1.22 C
1659 24-04-2016 03:00:00 4.08333 C 82.2500 % 1.34 C
1660 24-04-2016 04:00:00 3.89167 C 82.9167 % 1.26 C
1661 24-04-2016 05:00:00 2.93333 C 85.7500 % 0.79 C
1662 24-04-2016 06:00:00 2.66667 C 88.4167 % 0.95 C
1663 24-04-2016 07:00:00 3.025 C 90.1667 % 1.57 C
1664 24-04-2016 08:00:00 3.85833 C 87.7500 % 2.02 C
1665 24-04-2016 09:00:00 4.74167 C 82.0000 % 1.94 C
1666 24-04-2016 10:00:00 5.825 C 73.9167 % 1.54 C
1667 24-04-2016 11:00:00 6.06667 C 75.1667 % 2.01 C
1668 24-04-2016 12:00:00 6.75833 C 70.3333 % 1.75 C
1669 24-04-2016 13:00:00 5.40833 C 82.5833 % 2.69 C
1670 24-04-2016 14:00:00 6.825 C 76.5000 % 2.99 C
1671 24-04-2016 15:00:00 8.04167 C 68.2500 % 2.56 C
1672 24-04-2016 16:00:00 8.95 C 60.5000 % 1.73 C
1673 24-04-2016 17:00:00 5.875 C 78.2500 % 2.39 C
1674 24-04-2016 18:00:00 8.85 C 66.2500 % 2.91 C
1675 24-04-2016 19:00:00 7.75 C 64.7500 % 1.54 C
Sensor: Nr:Datum:Temp:Feuchte:Taupunkt:
Aussen-T/F 1676 24-04-2016 20:00:00 5.73333 C 71.9167 % 1.07 C
1677 24-04-2016 21:00:00 4.26667 C 83.2500 % 1.68 C
1678 24-04-2016 22:00:00 3.275 C 89.1667 % 1.67 C
1679 24-04-2016 23:00:00 3.05833 C 89.5000 % 1.5 C
1680 25-04-2016 00:00:00 2.28333 C 92.3333 % 1.17 C
1681 25-04-2016 01:00:00 2.35833 C 94.0000 % 1.49 C
1682 25-04-2016 02:00:00 2.03333 C 94.0000 % 1.17 C
1683 25-04-2016 03:00:00 1.33333 C 94.0833 % 0.49 C
1684 25-04-2016 04:00:00 1.025 C 95.0000 % 0.32 C
1685 25-04-2016 05:00:00 1.10833 C 95.0000 % 0.4 C
1686 25-04-2016 06:00:00 1.225 C 94.9167 % 0.5 C
1687 25-04-2016 07:00:00 1.64167 C 92.4167 % 0.55 C
1688 25-04-2016 08:00:00 2.75 C 89.3333 % 1.17 C
1689 25-04-2016 09:00:00 4.225 C 85.9167 % 2.08 C
1690 25-04-2016 10:00:00 5.525 C 80.7500 % 2.49 C
1691 25-04-2016 11:00:00 6.85 C 72.9167 % 2.34 C
1692 25-04-2016 12:00:00 7.59167 C 69.9167 % 2.46 C
1693 25-04-2016 13:00:00 7.45 C 72.3333 % 2.81 C
1694 25-04-2016 14:00:00 7.46667 C 73.8333 % 3.11 C
1695 25-04-2016 15:00:00 7.74167 C 74.0833 % 3.42 C
1696 25-04-2016 16:00:00 7.01667 C 81.5833 % 4.09 C
1697 25-04-2016 17:00:00 6.86667 C 83.0833 % 4.2 C
1698 25-04-2016 18:00:00 6.79167 C 83.4167 % 4.18 C
1699 25-04-2016 19:00:00 6.44167 C 87.0833 % 4.45 C
1700 25-04-2016 20:00:00 6.13333 C 87.8333 % 4.27 C
Sensor: Nr:Datum:Temp:Feuchte:Taupunkt:
Aussen-T/F 1701 25-04-2016 21:00:00 6.23333 C 88.6667 % 4.5 C
1702 25-04-2016 22:00:00 6.21667 C 89.6667 % 4.65 C
1703 25-04-2016 23:00:00 4.88333 C 91.3333 % 3.59 C
1704 26-04-2016 00:00:00 3.78333 C 93.3333 % 2.81 C
1705 26-04-2016 01:00:00 3.7 C 94.4167 % 2.89 C
1706 26-04-2016 02:00:00 3.70833 C 95.0000 % 2.98 C
1707 26-04-2016 03:00:00 3.1 C 94.0000 % 2.23 C
1708 26-04-2016 04:00:00 2.30833 C 94.0833 % 1.46 C
1709 26-04-2016 05:00:00 2.15833 C 95.0000 % 1.44 C
1710 26-04-2016 06:00:00 1.88333 C 95.0000 % 1.17 C
1711 26-04-2016 07:00:00 1.98333 C 95.4167 % 1.33 C
1712 26-04-2016 08:00:00 2.2 C 95.2500 % 1.52 C
1713 26-04-2016 09:00:00 3.66667 C 88.4167 % 1.93 C
1714 26-04-2016 10:00:00 5.1 C 77.2500 % 1.45 C
1715 26-04-2016 11:00:00 5.90833 C 71.5000 % 1.16 C
1716 26-04-2016 12:00:00 6.78333 C 66.0000 % 0.89 C
1717 26-04-2016 13:00:00 7.21667 C 65.4167 % 1.18 C
1718 26-04-2016 14:00:00 7.45833 C 67.5000 % 1.84 C
1719 26-04-2016 15:00:00 5.99167 C 78.0000 % 2.46 C
1720 26-04-2016 16:00:00 5.65 C 88.7500 % 3.94 C
1721 26-04-2016 17:00:00 7.43333 C 74.6667 % 3.24 C
1722 26-04-2016 18:00:00 6.93333 C 72.3333 % 2.31 C
1723 26-04-2016 19:00:00 6.5 C 72.4167 % 1.91 C
1724 26-04-2016 20:00:00 5.58333 C 73.0000 % 1.14 C
1725 26-04-2016 21:00:00 4.31667 C 78.6667 % 0.95 C
Sensor: Nr:Datum:Temp:Feuchte:Taupunkt:
Aussen-T/F 1726 26-04-2016 22:00:00 3.625 C 81.8333 % 0.82 C
1727 26-04-2016 23:00:00 3.25 C 83.0833 % 0.66 C
1728 27-04-2016 00:00:00 3.23333 C 82.6667 % 0.58 C
1729 27-04-2016 01:00:00 3.41667 C 82.0833 % 0.66 C
1730 27-04-2016 02:00:00 3.5 C 82.7500 % 0.85 C
1731 27-04-2016 03:00:00 3.68333 C 81.7500 % 0.86 C
1732 27-04-2016 04:00:00 3.675 C 82.0833 % 0.91 C
1733 27-04-2016 05:00:00 3.78333 C 81.1667 % 0.86 C
1734 27-04-2016 06:00:00 3.825 C 80.0000 % 0.7 C
1735 27-04-2016 07:00:00 3.89167 C 80.1667 % 0.79 C
1736 27-04-2016 08:00:00 4.7 C 78.0000 % 1.2 C
1737 27-04-2016 09:00:00 5.49167 C 76.4167 % 1.68 C
1738 27-04-2016 10:00:00 4.825 C 84.4167 % 2.43 C
1739 27-04-2016 11:00:00 5.18333 C 83.5833 % 2.64 C
1740 27-04-2016 12:00:00 5.74167 C 83.1667 % 3.11 C
1741 27-04-2016 13:00:00 6.9 C 79.5833 % 3.62 C
1742 27-04-2016 14:00:00 7.35833 C 78.0833 % 3.8 C
1743 27-04-2016 15:00:00 8.29167 C 72.0833 % 3.57 C
1744 27-04-2016 16:00:00 8.575 C 69.5000 % 3.32 C
1745 27-04-2016 17:00:00 8.23333 C 69.9167 % 3.08 C
1746 27-04-2016 18:00:00 9.09167 C 66.7500 % 3.25 C
1747 27-04-2016 19:00:00 8.13333 C 68.5833 % 2.71 C
1748 27-04-2016 20:00:00 6.85 C 71.0000 % 1.97 C
1749 27-04-2016 21:00:00 5.375 C 79.0833 % 2.05 C
1750 27-04-2016 22:00:00 5.23333 C 82.5000 % 2.5 C
Sensor: Nr:Datum:Temp:Feuchte:Taupunkt:
Aussen-T/F 1751 27-04-2016 23:00:00 4.8 C 83.5000 % 2.25 C
1752 28-04-2016 00:00:00 3.96667 C 87.1667 % 2.03 C
1753 28-04-2016 01:00:00 3.26667 C 88.0833 % 1.49 C
1754 28-04-2016 02:00:00 2.73333 C 89.2500 % 1.14 C
1755 28-04-2016 03:00:00 2.05833 C 91.0000 % 0.75 C
1756 28-04-2016 04:00:00 1.60833 C 91.6667 % 0.4 C
1757 28-04-2016 05:00:00 1.75833 C 92.0000 % 0.6 C
1758 28-04-2016 06:00:00 1.79167 C 92.0000 % 0.63 C
1759 28-04-2016 07:00:00 2.43333 C 90.2500 % 1 C
1760 28-04-2016 08:00:00 2.99167 C 88.5000 % 1.28 C
1761 28-04-2016 09:00:00 3.91667 C 86.2500 % 1.83 C
1762 28-04-2016 10:00:00 6.23333 C 79.0000 % 2.87 C
1763 28-04-2016 11:00:00 8.375 C 65.0833 % 2.21 C
1764 28-04-2016 12:00:00 9.30833 C 52.5000 % 0.1 C
1765 28-04-2016 13:00:00 9.50833 C 53.0000 % 0.42 C
1766 28-04-2016 14:00:00 9.45 C 53.0000 % 0.36 C
1767 28-04-2016 15:00:00 11.85 C 43.1667 % -0.26 C
1768 28-04-2016 16:00:00 13.50833 C 38.1667 % -0.45 C
1769 28-04-2016 17:00:00 12.48333 C 43.5000 % 0.42 C
1770 28-04-2016 18:00:00 13.29167 C 39.1667 % -0.29 C
1771 28-04-2016 19:00:00 11.81667 C 45.8333 % 0.54 C
1772 28-04-2016 20:00:00 8.575 C 64.3333 % 2.24 C
1773 28-04-2016 21:00:00 7.16667 C 72.5833 % 2.58 C
1774 28-04-2016 22:00:00 6.375 C 78.3333 % 2.89 C
1775 28-04-2016 23:00:00 5.13333 C 82.5833 % 2.42 C
Sensor: Nr:Datum:Temp:Feuchte:Taupunkt:
Aussen-T/F 1776 29-04-2016 00:00:00 4.29167 C 83.6667 % 1.78 C
1777 29-04-2016 01:00:00 3.14167 C 86.5833 % 1.13 C
1778 29-04-2016 02:00:00 2.10833 C 88.9167 % 0.48 C
1779 29-04-2016 03:00:00 1.65 C 90.5833 % 0.28 C
1780 29-04-2016 04:00:00 1.55833 C 91.9167 % 0.39 C
1781 29-04-2016 05:00:00 1.63333 C 92.4167 % 0.54 C
1782 29-04-2016 06:00:00 1.93333 C 93.0000 % 0.92 C
1783 29-04-2016 07:00:00 2.84167 C 92.4167 % 1.74 C
1784 29-04-2016 08:00:00 4.25 C 88.3333 % 2.5 C
1785 29-04-2016 09:00:00 5.95 C 81.8333 % 3.09 C
1786 29-04-2016 10:00:00 8.525 C 72.0833 % 3.79 C
1787 29-04-2016 11:00:00 11.25 C 52.0000 % 1.77 C
1788 29-04-2016 12:00:00 11.85833 C 46.7500 % 0.85 C
1789 29-04-2016 13:00:00 12.98333 C 43.5000 % 0.87 C
1790 29-04-2016 14:00:00 13.09167 C 43.8333 % 1.08 C
1791 29-04-2016 15:00:00 13.25 C 44.8333 % 1.54 C
1792 29-04-2016 16:00:00 13.33333 C 44.5833 % 1.53 C
1793 29-04-2016 17:00:00 13.63333 C 44.7500 % 1.86 C
1794 29-04-2016 18:00:00 14.98333 C 42.1667 % 2.25 C
1795 29-04-2016 19:00:00 13.56667 C 46.8333 % 2.43 C
1796 29-04-2016 20:00:00 10.86667 C 61.8333 % 3.85 C
1797 29-04-2016 21:00:00 8.43333 C 71.5000 % 3.59 C
1798 29-04-2016 22:00:00 7.4 C 75.6667 % 3.39 C
1799 29-04-2016 23:00:00 6.6 C 78.3333 % 3.11 C
1800 30-04-2016 00:00:00 6.325 C 80.5833 % 3.24 C
Sensor: Nr:Datum:Temp:Feuchte:Taupunkt:
Aussen-T/F 1801 30-04-2016 01:00:00 5.88333 C 81.1667 % 2.91 C
1802 30-04-2016 02:00:00 5.15833 C 83.5000 % 2.6 C
1803 30-04-2016 03:00:00 4.55 C 85.8333 % 2.39 C
1804 30-04-2016 04:00:00 3.98333 C 87.7500 % 2.14 C
1805 30-04-2016 05:00:00 3.48333 C 90.0000 % 2 C
1806 30-04-2016 06:00:00 3.31667 C 91.5833 % 2.08 C
1807 30-04-2016 07:00:00 4.35833 C 91.0833 % 3.03 C
1808 30-04-2016 08:00:00 5.73333 C 87.0833 % 3.76 C
1809 30-04-2016 09:00:00 7.64167 C 80.5833 % 4.52 C
1810 30-04-2016 10:00:00 9.51667 C 74.5000 % 5.22 C
1811 30-04-2016 11:00:00 10.05833 C 75.5000 % 5.93 C
1812 30-04-2016 12:00:00 11.075 C 74.3333 % 6.69 C
1813 30-04-2016 13:00:00 11.29167 C 75.2500 % 7.08 C
1814 30-04-2016 14:00:00 10.31667 C 80.8333 % 7.17 C
1815 30-04-2016 15:00:00 9.64167 C 87.8333 % 7.73 C
1816 30-04-2016 16:00:00 10.41667 C 85.5833 % 8.11 C
1817 30-04-2016 17:00:00 10.25 C 82.0000 % 7.32 C
1818 30-04-2016 18:00:00 10.05833 C 77.8333 % 6.37 C
1819 30-04-2016 19:00:00 9.40833 C 78.7500 % 5.91 C
1820 30-04-2016 20:00:00 8.94167 C 81.1667 % 5.89 C
1821 30-04-2016 21:00:00 8.38333 C 85.1667 % 6.04 C
1822 30-04-2016 22:00:00 7.73333 C 90.0833 % 6.21 C
1823 30-04-2016 23:00:00 7.31667 C 92.6667 % 6.21 C
1824 01-05-2016 00:00:00 7.15 C 91.4167 % 5.85 C
1825 01-05-2016 01:00:00 7.05833 C 91.0833 % 5.71 C
Sensor: Nr:Datum:Temp:Feuchte:Taupunkt:
Aussen-T/F 1826 01-05-2016 02:00:00 6.775 C 92.9167 % 5.71 C
1827 01-05-2016 03:00:00 6.6 C 94.0833 % 5.72 C
1828 01-05-2016 04:00:00 6.525 C 95.0000 % 5.78 C
1829 01-05-2016 05:00:00 6.5 C 94.2500 % 5.64 C
1830 01-05-2016 06:00:00 6.35 C 92.7500 % 5.26 C
1831 01-05-2016 07:00:00 6.29167 C 91.7500 % 5.05 C
1832 01-05-2016 08:00:00 6.38333 C 91.2500 % 5.06 C
1833 01-05-2016 09:00:00 6.825 C 90.0833 % 5.32 C
1834 01-05-2016 10:00:00 7.475 C 88.5000 % 5.7 C
1835 01-05-2016 11:00:00 8.56667 C 87.3333 % 6.58 C
1836 01-05-2016 12:00:00 9.80833 C 85.7500 % 7.54 C
1837 01-05-2016 13:00:00 11.34167 C 81.4167 % 8.28 C
1838 01-05-2016 14:00:00 13.28333 C 73.1667 % 8.59 C
1839 01-05-2016 15:00:00 14.54167 C 67.2500 % 8.55 C
1840 01-05-2016 16:00:00 15.35 C 63.6667 % 8.51 C
1841 01-05-2016 17:00:00 15.8 C 61.1667 % 8.34 C
1842 01-05-2016 18:00:00 15.96667 C 60.2500 % 8.28 C
1843 01-05-2016 19:00:00 16.375 C 58.2500 % 8.16 C
1844 01-05-2016 20:00:00 14.725 C 64.3333 % 8.07 C
1845 01-05-2016 21:00:00 11.73333 C 77.9167 % 8.01 C
1846 01-05-2016 22:00:00 11.28333 C 78.8333 % 7.75 C
1847 01-05-2016 23:00:00 9.80833 C 84.6667 % 7.35 C
1848 02-05-2016 00:00:00 8.84167 C 87.7500 % 6.92 C
1849 02-05-2016 01:00:00 8.31667 C 88.6667 % 6.56 C
1850 02-05-2016 02:00:00 7.6 C 90.4167 % 6.13 C
Sensor: Nr:Datum:Temp:Feuchte:Taupunkt:
Aussen-T/F 1851 02-05-2016 03:00:00 6.45833 C 91.2500 % 5.14 C
1852 02-05-2016 04:00:00 5.26667 C 93.0833 % 4.24 C
1853 02-05-2016 05:00:00 4.475 C 94.0000 % 3.6 C
1854 02-05-2016 06:00:00 4.00833 C 94.9167 % 3.27 C
1855 02-05-2016 07:00:00 4.44167 C 95.5000 % 3.79 C
1856 02-05-2016 08:00:00 5.31667 C 96.0000 % 4.73 C
1857 02-05-2016 09:00:00 6.39167 C 96.2500 % 5.84 C
1858 02-05-2016 10:00:00 8.675 C 95.8333 % 8.05 C
1859 02-05-2016 11:00:00 12.30833 C 81.3333 % 9.21 C
1860 02-05-2016 12:00:00 15.49167 C 60.3333 % 7.85 C
1861 02-05-2016 13:00:00 17.08333 C 49.4167 % 6.42 C
1862 02-05-2016 14:00:00 17.88333 C 46.2500 % 6.19 C
1863 02-05-2016 15:00:00 19.69167 C 42.0833 % 6.46 C
1864 02-05-2016 16:00:00 21.55833 C 39.5833 % 7.24 C
1865 02-05-2016 17:00:00 22.55833 C 37.9167 % 7.5 C
1866 02-05-2016 18:00:00 22.45833 C 36.2500 % 6.76 C
1867 02-05-2016 19:00:00 20.54167 C 46.2500 % 8.61 C
1868 02-05-2016 20:00:00 15.08333 C 65.5833 % 8.69 C
1869 02-05-2016 21:00:00 12.60833 C 73.3333 % 7.97 C
1870 02-05-2016 22:00:00 11.45 C 75.9167 % 7.36 C
1871 02-05-2016 23:00:00 11.025 C 80.5000 % 7.8 C
1872 03-05-2016 00:00:00 9.81667 C 85.4167 % 7.49 C
1873 03-05-2016 01:00:00 9.2 C 88.0833 % 7.33 C
1874 03-05-2016 02:00:00 8.725 C 89.4167 % 7.08 C
1875 03-05-2016 03:00:00 8.425 C 90.7500 % 7 C
Sensor: Nr:Datum:Temp:Feuchte:Taupunkt:
Aussen-T/F 1876 03-05-2016 04:00:00 8.33333 C 91.0000 % 6.95 C
1877 03-05-2016 05:00:00 8.19167 C 91.0000 % 6.81 C
1878 03-05-2016 06:00:00 8.51667 C 90.5833 % 7.07 C
1879 03-05-2016 07:00:00 9.15833 C 90.0000 % 7.61 C
1880 03-05-2016 08:00:00 9.53333 C 91.7500 % 8.26 C
1881 03-05-2016 09:00:00 9.51667 C 92.8333 % 8.42 C
1882 03-05-2016 10:00:00 10.10833 C 90.2500 % 8.59 C
1883 03-05-2016 11:00:00 11.44167 C 81.5833 % 8.41 C
1884 03-05-2016 12:00:00 12.29167 C 73.4167 % 7.68 C
1885 03-05-2016 13:00:00 12.94167 C 67.3333 % 7.04 C
1886 03-05-2016 14:00:00 12.39167 C 66.5833 % 6.35 C
1887 03-05-2016 15:00:00 12.85 C 67.0833 % 6.9 C
1888 03-05-2016 16:00:00 13.81667 C 65.3333 % 7.43 C
1889 03-05-2016 17:00:00 16.71667 C 45.3333 % 4.84 C
1890 03-05-2016 18:00:00 15.6 C 45.0833 % 3.75 C
1891 03-05-2016 19:00:00 14.875 C 44.2500 % 2.83 C
1892 03-05-2016 20:00:00 13.23333 C 52.9167 % 3.85 C
1893 03-05-2016 21:00:00 10.28333 C 66.5000 % 4.33 C
1894 03-05-2016 22:00:00 8.64167 C 73.8333 % 4.24 C
1895 03-05-2016 23:00:00 7.9 C 77.0000 % 4.12 C
1896 04-05-2016 00:00:00 6.375 C 82.5833 % 3.63 C
1897 04-05-2016 01:00:00 5.08333 C 87.5000 % 3.18 C
1898 04-05-2016 02:00:00 4.46667 C 89.3333 % 2.87 C
1899 04-05-2016 03:00:00 3.7 C 90.6667 % 2.32 C
1900 04-05-2016 04:00:00 3.13333 C 92.0833 % 1.98 C
Sensor: Nr:Datum:Temp:Feuchte:Taupunkt:
Aussen-T/F 1901 04-05-2016 05:00:00 2.75 C 93.1667 % 1.76 C
1902 04-05-2016 06:00:00 2.375 C 93.6667 % 1.46 C
1903 04-05-2016 07:00:00 2.75833 C 94.3333 % 1.94 C
1904 04-05-2016 08:00:00 3.71667 C 95.0000 % 2.99 C
1905 04-05-2016 09:00:00 5.36667 C 93.6667 % 4.43 C
1906 04-05-2016 10:00:00 8.26667 C 81.4167 % 5.28 C
1907 04-05-2016 11:00:00 11.10833 C 60.8333 % 3.84 C
1908 04-05-2016 12:00:00 12.25 C 52.3333 % 2.78 C
1909 04-05-2016 13:00:00 13.05833 C 49.0000 % 2.6 C
1910 04-05-2016 14:00:00 14.15833 C 45.1667 % 2.46 C
1911 04-05-2016 15:00:00 15.66667 C 39.1667 % 1.83 C
1912 04-05-2016 16:00:00 16.98333 C 35.3333 % 1.56 C
1913 04-05-2016 17:00:00 17.36667 C 33.1667 % 1.02 C
1914 04-05-2016 18:00:00 16.60833 C 34.6667 % 0.97 C
1915 04-05-2016 19:00:00 13.96667 C 53.3333 % 4.64 C
1916 04-05-2016 20:00:00 12.45833 C 58.5833 % 4.58 C
1917 04-05-2016 21:00:00 10.25833 C 57.5833 % 2.27 C
1918 04-05-2016 22:00:00 8.93333 C 60.8333 % 1.79 C
1919 04-05-2016 23:00:00 7.6 C 68.3333 % 2.15 C
1920 05-05-2016 00:00:00 5.84167 C 76.3333 % 2.01 C
1921 05-05-2016 01:00:00 4.725 C 81.3333 % 1.81 C
1922 05-05-2016 02:00:00 4.04167 C 84.6667 % 1.7 C
1923 05-05-2016 03:00:00 3.475 C 87.0000 % 1.52 C
1924 05-05-2016 04:00:00 3.24167 C 88.4167 % 1.52 C
1925 05-05-2016 05:00:00 2.50833 C 90.0000 % 1.04 C
Sensor: Nr:Datum:Temp:Feuchte:Taupunkt:
Aussen-T/F 1926 05-05-2016 06:00:00 2.06667 C 91.0833 % 0.77 C
1927 05-05-2016 07:00:00 2.375 C 92.1667 % 1.24 C
1928 05-05-2016 08:00:00 3.54167 C 93.1667 % 2.54 C
1929 05-05-2016 09:00:00 7.19167 C 84.1667 % 4.7 C
1930 05-05-2016 10:00:00 11.36667 C 65.5000 % 5.14 C
1931 05-05-2016 11:00:00 13.94167 C 56.4167 % 5.42 C
1932 05-05-2016 12:00:00 15.46667 C 51.4167 % 5.5 C
1933 05-05-2016 13:00:00 17.06667 C 46.5833 % 5.55 C
1934 05-05-2016 14:00:00 18.05833 C 45.8333 % 6.22 C
1935 05-05-2016 15:00:00 19.54167 C 44.2500 % 7.06 C
1936 05-05-2016 16:00:00 21.225 C 39.5833 % 6.95 C
1937 05-05-2016 17:00:00 21.30833 C 39.3333 % 6.93 C
1938 05-05-2016 18:00:00 21.36667 C 40.2500 % 7.32 C
1939 05-05-2016 19:00:00 20.69167 C 42.9167 % 7.65 C
1940 05-05-2016 20:00:00 18.18333 C 54.8333 % 8.96 C
1941 05-05-2016 21:00:00 14.64167 C 65.7500 % 8.31 C
1942 05-05-2016 22:00:00 12.45833 C 74.8333 % 8.12 C
1943 05-05-2016 23:00:00 10.55833 C 80.5833 % 7.36 C
1944 06-05-2016 00:00:00 9.53333 C 84.7500 % 7.1 C
1945 06-05-2016 01:00:00 8.71667 C 87.7500 % 6.8 C
1946 06-05-2016 02:00:00 7.99167 C 89.5833 % 6.39 C
1947 06-05-2016 03:00:00 7.36667 C 91.7500 % 6.12 C
1948 06-05-2016 04:00:00 7.225 C 92.6667 % 6.12 C
1949 06-05-2016 05:00:00 6.8 C 93.2500 % 5.79 C
1950 06-05-2016 06:00:00 6.28333 C 93.6667 % 5.34 C
Sensor: Nr:Datum:Temp:Feuchte:Taupunkt:
Aussen-T/F 1951 06-05-2016 07:00:00 6.49167 C 94.6667 % 5.7 C
1952 06-05-2016 08:00:00 7.75833 C 95.6667 % 7.11 C
1953 06-05-2016 09:00:00 9.99167 C 95.0000 % 9.23 C
1954 06-05-2016 10:00:00 14.975 C 76.4167 % 10.87 C
1955 06-05-2016 11:00:00 18.08333 C 63.0000 % 10.94 C
1956 06-05-2016 12:00:00 19.73333 C 56.5000 % 10.85 C
1957 06-05-2016 13:00:00 20.725 C 52.7500 % 10.74 C
1958 06-05-2016 14:00:00 22.16667 C 48.5000 % 10.8 C
1959 06-05-2016 15:00:00 23.91667 C 43.8333 % 10.87 C
1960 06-05-2016 16:00:00 25.50833 C 39.3333 % 10.67 C
1961 06-05-2016 17:00:00 26.24167 C 36.5000 % 10.2 C
1962 06-05-2016 18:00:00 26.01667 C 31.6667 % 7.9 C
1963 06-05-2016 19:00:00 24.58333 C 37.0833 % 8.97 C
1964 06-05-2016 20:00:00 20.025 C 53.5833 % 10.32 C
1965 06-05-2016 21:00:00 16.86667 C 59.2500 % 8.88 C
1966 06-05-2016 22:00:00 16.6 C 60.5833 % 8.95 C
1967 06-05-2016 23:00:00 14.70833 C 70.5833 % 9.42 C
1968 07-05-2016 00:00:00 12.225 C 79.5000 % 8.79 C
1969 07-05-2016 01:00:00 10.9 C 83.3333 % 8.19 C
1970 07-05-2016 02:00:00 9.84167 C 87.2500 % 7.83 C
1971 07-05-2016 03:00:00 9.06667 C 89.5833 % 7.45 C
1972 07-05-2016 04:00:00 8.5 C 91.5000 % 7.2 C
1973 07-05-2016 05:00:00 7.95833 C 92.5833 % 6.83 C
1974 07-05-2016 06:00:00 7.48333 C 93.5833 % 6.52 C
1975 07-05-2016 07:00:00 7.75 C 94.9167 % 6.99 C
Sensor: Nr:Datum:Temp:Feuchte:Taupunkt:
Aussen-T/F 1976 07-05-2016 08:00:00 8.73333 C 95.2500 % 8.02 C
1977 07-05-2016 09:00:00 10.56667 C 94.9167 % 9.79 C
1978 07-05-2016 10:00:00 14.35833 C 85.0833 % 11.89 C
1979 07-05-2016 11:00:00 19.35 C 61.5833 % 11.79 C
1980 07-05-2016 12:00:00 21.725 C 52.1667 % 11.49 C
1981 07-05-2016 13:00:00 23.29167 C 44.3333 % 10.48 C
1982 07-05-2016 14:00:00 24.525 C 37.8333 % 9.22 C
1983 07-05-2016 15:00:00 25.70833 C 33.4167 % 8.42 C
1984 07-05-2016 16:00:00 27.46667 C 28.6667 % 7.69 C
1985 07-05-2016 17:00:00 28.325 C 28.5833 % 8.38 C
1986 07-05-2016 18:00:00 28.1 C 27.3333 % 7.53 C
1987 07-05-2016 19:00:00 26.55833 C 32.6667 % 8.83 C
1988 07-05-2016 20:00:00 21.35833 C 48.0000 % 9.91 C
1989 07-05-2016 21:00:00 18.36667 C 54.7500 % 9.11 C
1990 07-05-2016 22:00:00 16.33333 C 64.5000 % 9.63 C
1991 07-05-2016 23:00:00 15.55833 C 64.9167 % 8.99 C
1992 08-05-2016 00:00:00 15.41667 C 62.2500 % 8.24 C
1993 08-05-2016 01:00:00 14.875 C 61.6667 % 7.59 C
1994 08-05-2016 02:00:00 14.4 C 62.3333 % 7.3 C
1995 08-05-2016 03:00:00 13.99167 C 63.0833 % 7.09 C
1996 08-05-2016 04:00:00 13.16667 C 65.8333 % 6.93 C
1997 08-05-2016 05:00:00 12.25 C 70.3333 % 7.01 C
1998 08-05-2016 06:00:00 11.725 C 72.9167 % 7.04 C
1999 08-05-2016 07:00:00 11.76667 C 75.7500 % 7.63 C
2000 08-05-2016 08:00:00 12.575 C 76.9167 % 8.64 C
Sensor: Nr:Datum:Temp:Feuchte:Taupunkt:
Aussen-T/F 2001 08-05-2016 09:00:00 14.25833 C 73.2500 % 9.54 C
2002 08-05-2016 10:00:00 17.825 C 57.3333 % 9.29 C
2003 08-05-2016 11:00:00 20.55833 C 47.3333 % 8.97 C
2004 08-05-2016 12:00:00 22.06667 C 37.8333 % 7.04 C
2005 08-05-2016 13:00:00 23.24167 C 34.0833 % 6.55 C
2006 08-05-2016 14:00:00 24.025 C 33.8333 % 7.13 C
2007 08-05-2016 15:00:00 25.225 C 32.5833 % 7.63 C
2008 08-05-2016 16:00:00 26.20833 C 30.6667 % 7.6 C
2009 08-05-2016 17:00:00 26.825 C 28.9167 % 7.27 C
2010 08-05-2016 18:00:00 26.43333 C 27.9167 % 6.42 C
2011 08-05-2016 19:00:00 25.61667 C 29.9167 % 6.72 C
2012 08-05-2016 20:00:00 22.68333 C 43.3333 % 9.59 C
2013 08-05-2016 21:00:00 18.23333 C 54.5000 % 8.91 C
2014 08-05-2016 22:00:00 16.93333 C 57.7500 % 8.56 C
2015 08-05-2016 23:00:00 16.06667 C 60.9167 % 8.53 C
2016 09-05-2016 00:00:00 15.15 C 65.0833 % 8.64 C
2017 09-05-2016 01:00:00 14.38333 C 67.8333 % 8.52 C
2018 09-05-2016 02:00:00 13.89167 C 69.0000 % 8.31 C
2019 09-05-2016 03:00:00 13.64167 C 69.0833 % 8.08 C
2020 09-05-2016 04:00:00 12.70833 C 72.4167 % 7.88 C
2021 09-05-2016 05:00:00 12.04167 C 75.5833 % 7.87 C
2022 09-05-2016 06:00:00 11.39167 C 79.8333 % 8.04 C
2023 09-05-2016 07:00:00 11.025 C 84.5833 % 8.53 C
2024 09-05-2016 08:00:00 12.125 C 85.0833 % 9.7 C
2025 09-05-2016 09:00:00 15 C 74.9167 % 10.59 C
Sensor: Nr:Datum:Temp:Feuchte:Taupunkt:
Aussen-T/F 2026 09-05-2016 10:00:00 18.175 C 62.5833 % 10.92 C
2027 09-05-2016 11:00:00 20.36667 C 55.5000 % 11.17 C
2028 09-05-2016 12:00:00 21.96667 C 50.1667 % 11.12 C
2029 09-05-2016 13:00:00 23.125 C 47.4167 % 11.33 C
2030 09-05-2016 14:00:00 23.98333 C 44.5000 % 11.16 C
2031 09-05-2016 15:00:00 25.49167 C 42.0833 % 11.67 C
2032 09-05-2016 16:00:00 26.09167 C 38.0833 % 10.7 C
2033 09-05-2016 17:00:00 25.725 C 39.7500 % 11.02 C
2034 09-05-2016 18:00:00 24.83333 C 43.1667 % 11.47 C
2035 09-05-2016 19:00:00 23.58333 C 55.8333 % 14.25 C
2036 09-05-2016 20:00:00 20.75833 C 61.3333 % 13.05 C
2037 09-05-2016 21:00:00 18.73333 C 64.3333 % 11.87 C
2038 09-05-2016 22:00:00 17.725 C 66.4167 % 11.39 C
2039 09-05-2016 23:00:00 16.975 C 67.0000 % 10.81 C
2040 10-05-2016 00:00:00 16.56667 C 68.0833 % 10.66 C
2041 10-05-2016 01:00:00 16.30833 C 69.7500 % 10.78 C
2042 10-05-2016 02:00:00 16.59167 C 68.1667 % 10.7 C
2043 10-05-2016 03:00:00 16.01667 C 71.0000 % 10.76 C
2044 10-05-2016 04:00:00 15.25 C 74.0833 % 10.67 C
2045 10-05-2016 05:00:00 15.075 C 74.7500 % 10.63 C
2046 10-05-2016 06:00:00 14.875 C 76.0000 % 10.69 C
2047 10-05-2016 07:00:00 15.11667 C 78.0833 % 11.33 C
2048 10-05-2016 08:00:00 16.45 C 75.7500 % 12.16 C
2049 10-05-2016 09:00:00 17.90833 C 65.5833 % 11.38 C
2050 10-05-2016 10:00:00 19.16667 C 61.9167 % 11.7 C
Sensor: Nr:Datum:Temp:Feuchte:Taupunkt:
Aussen-T/F 2051 10-05-2016 11:00:00 20.2 C 61.0000 % 12.44 C
2052 10-05-2016 12:00:00 19.90833 C 71.6667 % 14.64 C
2053 10-05-2016 13:00:00 18.91667 C 80.3333 % 15.46 C
2054 10-05-2016 14:00:00 18.9 C 81.0833 % 15.58 C
2055 10-05-2016 15:00:00 18.69167 C 83.9167 % 15.92 C
2056 10-05-2016 16:00:00 18.91667 C 82.7500 % 15.92 C
2057 10-05-2016 17:00:00 18.85833 C 82.5000 % 15.81 C
2058 10-05-2016 18:00:00 17.825 C 86.7500 % 15.59 C
2059 10-05-2016 19:00:00 18.3 C 84.0833 % 15.57 C
2060 10-05-2016 20:00:00 16.81667 C 88.2500 % 14.86 C
2061 10-05-2016 21:00:00 15.35 C 90.9167 % 13.88 C
2062 10-05-2016 22:00:00 14.31667 C 92.3333 % 13.09 C
2063 10-05-2016 23:00:00 13.75 C 93.8333 % 12.77 C
2064 11-05-2016 00:00:00 13.40833 C 94.1667 % 12.49 C
2065 11-05-2016 01:00:00 12.85 C 94.8333 % 12.04 C
2066 11-05-2016 02:00:00 12.24167 C 95.0833 % 11.48 C
2067 11-05-2016 03:00:00 11.6 C 95.4167 % 10.89 C
2068 11-05-2016 04:00:00 11.7 C 95.9167 % 11.07 C
2069 11-05-2016 05:00:00 11.21667 C 96.0000 % 10.6 C
2070 11-05-2016 06:00:00 11.53333 C 96.7500 % 11.04 C
2071 11-05-2016 07:00:00 12.2 C 97.0000 % 11.74 C
2072 11-05-2016 08:00:00 12.61667 C 97.0000 % 12.15 C
2073 11-05-2016 09:00:00 13.46667 C 97.0000 % 13 C
2074 11-05-2016 10:00:00 15.60833 C 95.0833 % 14.82 C
2075 11-05-2016 11:00:00 18.1 C 83.7500 % 15.31 C
Sensor: Nr:Datum:Temp:Feuchte:Taupunkt:
Aussen-T/F 2076 11-05-2016 12:00:00 20.63333 C 69.8333 % 14.93 C
2077 11-05-2016 13:00:00 22.075 C 63.7500 % 14.89 C
2078 11-05-2016 14:00:00 23.45833 C 53.5000 % 13.48 C
2079 11-05-2016 15:00:00 24.34167 C 50.6667 % 13.46 C
2080 11-05-2016 16:00:00 25.375 C 47.8333 % 13.52 C
2081 11-05-2016 17:00:00 25.25833 C 45.3333 % 12.59 C
2082 11-05-2016 18:00:00 24.98333 C 43.6667 % 11.77 C
2083 11-05-2016 19:00:00 24.10833 C 45.5833 % 11.63 C
2084 11-05-2016 20:00:00 21.10833 C 58.0000 % 12.53 C
2085 11-05-2016 21:00:00 17.6 C 65.1667 % 10.99 C
2086 11-05-2016 22:00:00 16.68333 C 69.1667 % 11.01 C
2087 11-05-2016 23:00:00 16.25833 C 71.9167 % 11.19 C
2088 12-05-2016 00:00:00 15.8 C 76.3333 % 11.65 C
2089 12-05-2016 01:00:00 15.69167 C 76.5000 % 11.58 C
2090 12-05-2016 02:00:00 15.34167 C 77.2500 % 11.38 C
2091 12-05-2016 03:00:00 14.975 C 77.8333 % 11.14 C
2092 12-05-2016 04:00:00 14.58333 C 79.0000 % 10.99 C
2093 12-05-2016 05:00:00 14.16667 C 79.7500 % 10.72 C
2094 12-05-2016 06:00:00 13.85833 C 81.4167 % 10.73 C
2095 12-05-2016 07:00:00 15.525 C 72.9167 % 10.69 C
2096 12-05-2016 08:00:00 16.175 C 69.0833 % 10.51 C
2097 12-05-2016 09:00:00 16.81667 C 68.8333 % 11.06 C
2098 12-05-2016 10:00:00 17.65833 C 66.5000 % 11.35 C
2099 12-05-2016 11:00:00 18.225 C 65.2500 % 11.6 C
2100 12-05-2016 12:00:00 18.98333 C 64.8333 % 12.22 C
Sensor: Nr:Datum:Temp:Feuchte:Taupunkt:
Aussen-T/F 2101 12-05-2016 13:00:00 20.225 C 63.0833 % 12.98 C
2102 12-05-2016 14:00:00 20.80833 C 61.1667 % 13.06 C
2103 12-05-2016 15:00:00 21.65 C 58.3333 % 13.12 C
2104 12-05-2016 16:00:00 21.75 C 58.1667 % 13.17 C
2105 12-05-2016 17:00:00 22.8 C 54.4167 % 13.13 C
2106 12-05-2016 18:00:00 22.275 C 56.4167 % 13.19 C
2107 12-05-2016 19:00:00 22.175 C 59.6667 % 13.96 C
2108 12-05-2016 20:00:00 19.6 C 69.6667 % 13.91 C
2109 12-05-2016 21:00:00 17.65833 C 75.5000 % 13.28 C
2110 12-05-2016 22:00:00 16.34167 C 80.3333 % 12.95 C
2111 12-05-2016 23:00:00 15.14167 C 84.0833 % 12.47 C
2112 13-05-2016 00:00:00 14.125 C 87.7500 % 12.13 C
2113 13-05-2016 01:00:00 13.025 C 89.8333 % 11.4 C
2114 13-05-2016 02:00:00 12.275 C 91.2500 % 10.89 C
2115 13-05-2016 03:00:00 11.9 C 92.5000 % 10.72 C
2116 13-05-2016 04:00:00 11.95 C 93.0000 % 10.85 C
2117 13-05-2016 05:00:00 11.33333 C 93.0833 % 10.26 C
2118 13-05-2016 06:00:00 11.36667 C 94.5833 % 10.53 C
2119 13-05-2016 07:00:00 12.26667 C 95.0000 % 11.49 C
2120 13-05-2016 08:00:00 13.025 C 94.8333 % 12.22 C
2121 13-05-2016 09:00:00 13.95833 C 93.1667 % 12.87 C
2122 13-05-2016 10:00:00 16.375 C 81.2500 % 13.16 C
2123 13-05-2016 11:00:00 19.075 C 70.0833 % 13.5 C
2124 13-05-2016 12:00:00 20.76667 C 65.5000 % 14.07 C
2125 13-05-2016 13:00:00 17.08333 C 81.5000 % 13.89 C
Sensor: Nr:Datum:Temp:Feuchte:Taupunkt:
Aussen-T/F 2126 13-05-2016 14:00:00 13.91667 C 92.7500 % 12.76 C
2127 13-05-2016 15:00:00 13.26667 C 94.5833 % 12.42 C
2128 13-05-2016 16:00:00 14.04167 C 95.7500 % 13.37 C
2129 13-05-2016 17:00:00 15.19167 C 95.4167 % 14.46 C
2130 13-05-2016 18:00:00 16.58333 C 88.9167 % 14.75 C
2131 13-05-2016 19:00:00 18.075 C 87.1667 % 15.91 C
2132 13-05-2016 20:00:00 15.80833 C 89.9167 % 14.16 C
2133 13-05-2016 21:00:00 13.55 C 92.8333 % 12.41 C
2134 13-05-2016 22:00:00 12.8 C 94.5000 % 11.94 C
2135 13-05-2016 23:00:00 11.85833 C 95.0000 % 11.08 C
2136 14-05-2016 00:00:00 11.28333 C 95.8333 % 10.64 C
2137 14-05-2016 01:00:00 10.69167 C 95.9167 % 10.07 C
2138 14-05-2016 02:00:00 10.56667 C 96.0000 % 9.96 C
2139 14-05-2016 03:00:00 10.24167 C 92.9167 % 9.15 C
2140 14-05-2016 04:00:00 9.98333 C 86.6667 % 7.87 C
2141 14-05-2016 05:00:00 9.56667 C 85.7500 % 7.3 C
2142 14-05-2016 06:00:00 9.30833 C 85.2500 % 6.96 C
2143 14-05-2016 07:00:00 9.19167 C 82.5000 % 6.37 C
2144 14-05-2016 08:00:00 9.09167 C 83.0833 % 6.38 C
2145 14-05-2016 09:00:00 9.33333 C 77.5000 % 5.61 C
2146 14-05-2016 10:00:00 9.81667 C 67.7500 % 4.15 C
2147 14-05-2016 11:00:00 10.75 C 59.7500 % 3.25 C
2148 14-05-2016 12:00:00 11.23333 C 57.5000 % 3.16 C
2149 14-05-2016 13:00:00 11.54167 C 57.9167 % 3.55 C
2150 14-05-2016 14:00:00 11.20833 C 62.6667 % 4.36 C
Sensor: Nr:Datum:Temp:Feuchte:Taupunkt:
Aussen-T/F 2151 14-05-2016 15:00:00 12.31667 C 56.8333 % 4.01 C
2152 14-05-2016 16:00:00 12.35 C 55.7500 % 3.77 C
2153 14-05-2016 17:00:00 12.325 C 53.7500 % 3.23 C
2154 14-05-2016 18:00:00 12.275 C 53.6667 % 3.16 C
2155 14-05-2016 19:00:00 11.33333 C 57.5000 % 3.26 C
2156 14-05-2016 20:00:00 10.925 C 58.5833 % 3.14 C
2157 14-05-2016 21:00:00 9.6 C 63.5833 % 3.04 C
2158 14-05-2016 22:00:00 8.39167 C 69.3333 % 3.11 C
2159 14-05-2016 23:00:00 7.70833 C 70.9167 % 2.78 C
2160 15-05-2016 00:00:00 7.2 C 73.0833 % 2.71 C
2161 15-05-2016 01:00:00 7.15833 C 74.0000 % 2.84 C
2162 15-05-2016 02:00:00 7.1 C 75.7500 % 3.12 C
2163 15-05-2016 03:00:00 6.78333 C 77.3333 % 3.1 C
2164 15-05-2016 04:00:00 6.41667 C 80.0000 % 3.22 C
2165 15-05-2016 05:00:00 6.3 C 80.3333 % 3.17 C
2166 15-05-2016 06:00:00 6.24167 C 82.5000 % 3.49 C
2167 15-05-2016 07:00:00 6.28333 C 82.6667 % 3.56 C
2168 15-05-2016 08:00:00 7.39167 C 78.8333 % 3.97 C
2169 15-05-2016 09:00:00 8.725 C 73.0000 % 4.16 C
2170 15-05-2016 10:00:00 9.64167 C 67.4167 % 3.91 C
2171 15-05-2016 11:00:00 10.21667 C 63.7500 % 3.66 C
2172 15-05-2016 12:00:00 8.79167 C 80.2500 % 5.58 C
2173 15-05-2016 13:00:00 10.34167 C 65.7500 % 4.22 C
2174 15-05-2016 14:00:00 11.19167 C 57.2500 % 3.06 C
2175 15-05-2016 15:00:00 11.78333 C 55.6667 % 3.22 C
Sensor: Nr:Datum:Temp:Feuchte:Taupunkt:
Aussen-T/F 2176 15-05-2016 16:00:00 12.56667 C 54.9167 % 3.76 C
2177 15-05-2016 17:00:00 11.99167 C 55.7500 % 3.44 C
2178 15-05-2016 18:00:00 11.68333 C 61.1667 % 4.46 C
2179 15-05-2016 19:00:00 11.675 C 56.3333 % 3.29 C
2180 15-05-2016 20:00:00 10.85 C 61.0000 % 3.64 C
2181 15-05-2016 21:00:00 9.975 C 68.0000 % 4.35 C
2182 15-05-2016 22:00:00 8.86667 C 76.2500 % 4.92 C
2183 15-05-2016 23:00:00 8.68333 C 79.1667 % 5.28 C
2184 16-05-2016 00:00:00 8.2 C 80.8333 % 5.11 C
2185 16-05-2016 01:00:00 8.20833 C 81.0000 % 5.15 C
2186 16-05-2016 02:00:00 8.16667 C 81.2500 % 5.15 C
2187 16-05-2016 03:00:00 7.925 C 84.2500 % 5.44 C
2188 16-05-2016 04:00:00 7.725 C 86.1667 % 5.56 C
2189 16-05-2016 05:00:00 7.675 C 87.5833 % 5.75 C
2190 16-05-2016 06:00:00 7.55 C 87.5833 % 5.63 C
2191 16-05-2016 07:00:00 7.98333 C 81.0000 % 4.93 C
2192 16-05-2016 08:00:00 8.26667 C 78.2500 % 4.71 C
2193 16-05-2016 09:00:00 8.56667 C 77.0000 % 4.77 C
2194 16-05-2016 10:00:00 9.61667 C 74.3333 % 5.28 C
2195 16-05-2016 11:00:00 11.10833 C 62.7500 % 4.28 C
2196 16-05-2016 12:00:00 11.56667 C 58.6667 % 3.76 C
2197 16-05-2016 13:00:00 11.65 C 58.0000 % 3.68 C
2198 16-05-2016 14:00:00 11.65 C 59.0833 % 3.94 C
2199 16-05-2016 15:00:00 12.25833 C 57.5000 % 4.12 C
2200 16-05-2016 16:00:00 12.95 C 53.6667 % 3.79 C
Sensor: Nr:Datum:Temp:Feuchte:Taupunkt:
Aussen-T/F 2201 16-05-2016 17:00:00 13.30833 C 51.3333 % 3.49 C
2202 16-05-2016 18:00:00 12.98333 C 49.6667 % 2.72 C
2203 16-05-2016 19:00:00 12.19167 C 55.5833 % 3.58 C
2204 16-05-2016 20:00:00 11.75833 C 60.5000 % 4.38 C
2205 16-05-2016 21:00:00 10.10833 C 71.4167 % 5.18 C
2206 16-05-2016 22:00:00 9.425 C 75.0000 % 5.22 C
2207 16-05-2016 23:00:00 8.875 C 79.7500 % 5.57 C
2208 17-05-2016 00:00:00 8.55 C 82.5000 % 5.75 C
2209 17-05-2016 01:00:00 8.1 C 83.9167 % 5.55 C
2210 17-05-2016 02:00:00 7.825 C 85.1667 % 5.49 C
2211 17-05-2016 03:00:00 7.76667 C 86.4167 % 5.65 C
2212 17-05-2016 04:00:00 7.66667 C 87.6667 % 5.75 C
2213 17-05-2016 05:00:00 7.66667 C 86.4167 % 5.55 C
2214 17-05-2016 06:00:00 7.81667 C 86.1667 % 5.65 C
2215 17-05-2016 07:00:00 8.46667 C 83.8333 % 5.89 C
2216 17-05-2016 08:00:00 9.575 C 79.5000 % 6.21 C
2217 17-05-2016 09:00:00 11.09167 C 73.0000 % 6.44 C
2218 17-05-2016 10:00:00 12.45 C 67.3333 % 6.57 C
2219 17-05-2016 11:00:00 14.025 C 59.9167 % 6.37 C
2220 17-05-2016 12:00:00 15.09167 C 53.0833 % 5.62 C
2221 17-05-2016 13:00:00 15.78333 C 49.3333 % 5.2 C
2222 17-05-2016 14:00:00 17.00833 C 44.9167 % 4.98 C
2223 17-05-2016 15:00:00 17.01667 C 45.8333 % 5.27 C
2224 17-05-2016 16:00:00 17.475 C 47.4167 % 6.18 C
2225 17-05-2016 17:00:00 16.675 C 50.8333 % 6.45 C
Sensor: Nr:Datum:Temp:Feuchte:Taupunkt:
Aussen-T/F 2226 17-05-2016 18:00:00 16.63333 C 54.0000 % 7.29 C
2227 17-05-2016 19:00:00 15.90833 C 61.9167 % 8.62 C
2228 17-05-2016 20:00:00 14.60833 C 66.5833 % 8.46 C
2229 17-05-2016 21:00:00 13.61667 C 70.6667 % 8.39 C
2230 17-05-2016 22:00:00 12.78333 C 73.3333 % 8.14 C
2231 17-05-2016 23:00:00 11.975 C 76.5833 % 7.99 C
2232 18-05-2016 00:00:00 11.8 C 77.8333 % 8.06 C
2233 18-05-2016 01:00:00 11.45833 C 79.5833 % 8.06 C
2234 18-05-2016 02:00:00 11.06667 C 82.0000 % 8.11 C
2235 18-05-2016 03:00:00 10.875 C 83.8333 % 8.25 C
2236 18-05-2016 04:00:00 10.89167 C 83.2500 % 8.17 C
2237 18-05-2016 05:00:00 11.10833 C 82.7500 % 8.29 C
2238 18-05-2016 06:00:00 11.14167 C 83.3333 % 8.43 C
2239 18-05-2016 07:00:00 11.43333 C 84.2500 % 8.87 C
2240 18-05-2016 08:00:00 12.66667 C 81.0000 % 9.49 C
2241 18-05-2016 09:00:00 14.075 C 77.7500 % 10.25 C
2242 18-05-2016 10:00:00 15.8 C 71.9167 % 10.75 C
2243 18-05-2016 11:00:00 16.8 C 64.8333 % 10.15 C
2244 18-05-2016 12:00:00 17.425 C 61.4167 % 9.93 C
2245 18-05-2016 13:00:00 18.325 C 57.5833 % 9.82 C
2246 18-05-2016 14:00:00 18.84167 C 53.5833 % 9.23 C
2247 18-05-2016 15:00:00 18.71667 C 57.0000 % 10.03 C
2248 18-05-2016 16:00:00 19.43333 C 51.8333 % 9.28 C
2249 18-05-2016 17:00:00 19.075 C 55.2500 % 9.9 C
2250 18-05-2016 18:00:00 18.34167 C 66.3333 % 11.96 C
Sensor: Nr:Datum:Temp:Feuchte:Taupunkt:
Aussen-T/F 2251 18-05-2016 19:00:00 16.61667 C 70.5000 % 11.23 C
2252 18-05-2016 20:00:00 14.84167 C 79.0833 % 11.25 C
2253 18-05-2016 21:00:00 12.975 C 89.6667 % 11.32 C
2254 18-05-2016 22:00:00 12 C 91.1667 % 10.61 C
2255 18-05-2016 23:00:00 11.7 C 92.6667 % 10.55 C
2256 19-05-2016 00:00:00 11.66667 C 93.1667 % 10.6 C
2257 19-05-2016 01:00:00 11.20833 C 94.0000 % 10.28 C
2258 19-05-2016 02:00:00 11.35 C 94.9167 % 10.57 C
2259 19-05-2016 03:00:00 11.29167 C 94.0000 % 10.36 C
2260 19-05-2016 04:00:00 10.95 C 93.0000 % 9.86 C
2261 19-05-2016 05:00:00 10.81667 C 92.9167 % 9.72 C
2262 19-05-2016 06:00:00 10.93333 C 94.0833 % 10.02 C
2263 19-05-2016 07:00:00 11.33333 C 93.9167 % 10.39 C
2264 19-05-2016 08:00:00 11.65 C 91.5833 % 10.33 C
2265 19-05-2016 09:00:00 12.45833 C 83.7500 % 9.79 C
2266 19-05-2016 10:00:00 13.73333 C 75.0833 % 9.4 C
2267 19-05-2016 11:00:00 14.61667 C 69.4167 % 9.09 C
2268 19-05-2016 12:00:00 15.50833 C 64.1667 % 8.77 C
2269 19-05-2016 13:00:00 16.40833 C 60.0000 % 8.63 C
2270 19-05-2016 14:00:00 17.33333 C 56.4167 % 8.59 C
2271 19-05-2016 15:00:00 17.575 C 55.1667 % 8.48 C
2272 19-05-2016 16:00:00 18.61667 C 51.3333 % 8.39 C
2273 19-05-2016 17:00:00 18.73333 C 51.1667 % 8.45 C
2274 19-05-2016 18:00:00 19.21667 C 50.3333 % 8.65 C
2275 19-05-2016 19:00:00 19.5 C 50.5833 % 8.98 C
Sensor: Nr:Datum:Temp:Feuchte:Taupunkt:
Aussen-T/F 2276 19-05-2016 20:00:00 15.425 C 67.7500 % 9.5 C
2277 19-05-2016 21:00:00 13.31667 C 75.2500 % 9.03 C
2278 19-05-2016 22:00:00 12.11667 C 80.2500 % 8.82 C
2279 19-05-2016 23:00:00 11.375 C 83.7500 % 8.73 C
2280 20-05-2016 00:00:00 10.85 C 86.2500 % 8.65 C
2281 20-05-2016 01:00:00 10.36667 C 88.2500 % 8.51 C
2282 20-05-2016 02:00:00 10.025 C 88.8333 % 8.27 C
2283 20-05-2016 03:00:00 9.76667 C 89.8333 % 8.18 C
2284 20-05-2016 04:00:00 9.28333 C 90.6667 % 7.84 C
2285 20-05-2016 05:00:00 9.11667 C 91.5833 % 7.82 C
2286 20-05-2016 06:00:00 9.16667 C 92.0000 % 7.94 C
2287 20-05-2016 07:00:00 9.99167 C 90.8333 % 8.57 C
2288 20-05-2016 08:00:00 11.81667 C 86.5000 % 9.64 C
2289 20-05-2016 09:00:00 13.425 C 82.9167 % 10.58 C
2290 20-05-2016 10:00:00 14.8 C 78.5833 % 11.12 C
2291 20-05-2016 11:00:00 16.16667 C 73.3333 % 11.4 C
2292 20-05-2016 12:00:00 17.33333 C 67.6667 % 11.3 C
2293 20-05-2016 13:00:00 16.85 C 72.5833 % 11.9 C
2294 20-05-2016 14:00:00 16.48333 C 73.9167 % 11.82 C
2295 20-05-2016 15:00:00 17.65 C 69.4167 % 11.99 C
2296 20-05-2016 16:00:00 17.78333 C 67.7500 % 11.75 C
2297 20-05-2016 17:00:00 19.375 C 62.3333 % 11.99 C
2298 20-05-2016 18:00:00 18.16667 C 65.8333 % 11.68 C
2299 20-05-2016 19:00:00 17.81667 C 69.3333 % 12.13 C
2300 20-05-2016 20:00:00 17.18333 C 72.5833 % 12.22 C
Sensor: Nr:Datum:Temp:Feuchte:Taupunkt:
Aussen-T/F 2301 20-05-2016 21:00:00 15.55 C 80.4167 % 12.19 C
2302 20-05-2016 22:00:00 14.68333 C 84.7500 % 12.15 C
2303 20-05-2016 23:00:00 14.3 C 86.0833 % 12.01 C
2304 21-05-2016 00:00:00 12.975 C 88.8333 % 11.18 C
2305 21-05-2016 01:00:00 12.49167 C 91.8333 % 11.2 C
2306 21-05-2016 02:00:00 12.30833 C 92.2500 % 11.09 C
2307 21-05-2016 03:00:00 11.925 C 92.9167 % 10.82 C
2308 21-05-2016 04:00:00 11.54167 C 94.0000 % 10.61 C
2309 21-05-2016 05:00:00 12.19167 C 94.2500 % 11.3 C
2310 21-05-2016 06:00:00 11.8 C 93.6667 % 10.81 C
2311 21-05-2016 07:00:00 11.83333 C 94.2500 % 10.94 C
2312 21-05-2016 08:00:00 13.15 C 94.5000 % 12.29 C
2313 21-05-2016 09:00:00 15.90833 C 86.6667 % 13.69 C
2314 21-05-2016 10:00:00 18.225 C 75.5000 % 13.82 C
2315 21-05-2016 11:00:00 19.15 C 70.8333 % 13.73 C
2316 21-05-2016 12:00:00 19.78333 C 66.9167 % 13.46 C
2317 21-05-2016 13:00:00 21.11667 C 61.4167 % 13.41 C
2318 21-05-2016 14:00:00 21.91667 C 56.2500 % 12.81 C
2319 21-05-2016 15:00:00 23.15833 C 53.2500 % 13.13 C
2320 21-05-2016 16:00:00 24.85 C 48.4167 % 13.23 C
2321 21-05-2016 17:00:00 25.875 C 46.1667 % 13.43 C
2322 21-05-2016 18:00:00 26.34167 C 44.2500 % 13.2 C
2323 21-05-2016 19:00:00 25.24167 C 47.5833 % 13.32 C
2324 21-05-2016 20:00:00 20.95833 C 65.6667 % 14.29 C
2325 21-05-2016 21:00:00 18.175 C 72.7500 % 13.21 C
Sensor: Nr:Datum:Temp:Feuchte:Taupunkt:
Aussen-T/F 2326 21-05-2016 22:00:00 16.9 C 76.7500 % 12.79 C
2327 21-05-2016 23:00:00 16.43333 C 80.0000 % 12.98 C
2328 22-05-2016 00:00:00 16.4 C 80.6667 % 13.07 C
2329 22-05-2016 01:00:00 16.03333 C 80.0000 % 12.59 C
2330 22-05-2016 02:00:00 14.89167 C 83.5000 % 12.12 C
2331 22-05-2016 03:00:00 13.75 C 86.6667 % 11.57 C
2332 22-05-2016 04:00:00 12.79167 C 90.0000 % 11.19 C
2333 22-05-2016 05:00:00 12.275 C 92.0000 % 11.01 C
2334 22-05-2016 06:00:00 12.15 C 93.1667 % 11.08 C
2335 22-05-2016 07:00:00 13.1 C 93.8333 % 12.13 C
2336 22-05-2016 08:00:00 15.70833 C 89.5000 % 13.99 C
2337 22-05-2016 09:00:00 19.425 C 74.1667 % 14.71 C
2338 22-05-2016 10:00:00 21.40833 C 67.3333 % 15.11 C
2339 22-05-2016 11:00:00 22.05833 C 64.2500 % 14.99 C
2340 22-05-2016 12:00:00 22.975 C 60.7500 % 14.99 C
2341 22-05-2016 13:00:00 23.55833 C 57.6667 % 14.73 C
2342 22-05-2016 14:00:00 24.59167 C 56.1667 % 15.28 C
2343 22-05-2016 15:00:00 24.88333 C 55.4167 % 15.34 C
2344 22-05-2016 16:00:00 24.68333 C 50.6667 % 13.77 C
2345 22-05-2016 17:00:00 23.14167 C 59.1667 % 14.74 C
2346 22-05-2016 18:00:00 21.75 C 68.0000 % 15.58 C
2347 22-05-2016 19:00:00 21.50833 C 61.0000 % 13.67 C
2348 22-05-2016 20:00:00 19.68333 C 61.7500 % 12.14 C
2349 22-05-2016 21:00:00 18.38333 C 68.9167 % 12.58 C
2350 22-05-2016 22:00:00 17.56667 C 72.3333 % 12.53 C
Sensor: Nr:Datum:Temp:Feuchte:Taupunkt:
Aussen-T/F 2351 22-05-2016 23:00:00 16.15833 C 83.1667 % 13.3 C
2352 23-05-2016 00:00:00 14.98333 C 88.9167 % 13.17 C
2353 23-05-2016 01:00:00 14.5 C 91.0833 % 13.06 C
2354 23-05-2016 02:00:00 14.55833 C 88.7500 % 12.72 C
2355 23-05-2016 03:00:00 14.65 C 86.3333 % 12.39 C
2356 23-05-2016 04:00:00 14.00833 C 85.2500 % 11.57 C
2357 23-05-2016 05:00:00 13.05 C 90.1667 % 11.48 C
2358 23-05-2016 06:00:00 12.8 C 90.9167 % 11.35 C
2359 23-05-2016 07:00:00 12.95833 C 89.9167 % 11.34 C
2360 23-05-2016 08:00:00 13.25 C 89.7500 % 11.6 C
2361 23-05-2016 09:00:00 14.25 C 85.3333 % 11.82 C
2362 23-05-2016 10:00:00 14.68333 C 81.0833 % 11.48 C
2363 23-05-2016 11:00:00 15.36667 C 74.4167 % 10.85 C
2364 23-05-2016 12:00:00 16.34167 C 69.0833 % 10.67 C
2365 23-05-2016 13:00:00 16.48333 C 68.8333 % 10.75 C
2366 23-05-2016 14:00:00 15.28333 C 73.1667 % 10.51 C
2367 23-05-2016 15:00:00 15.20833 C 75.1667 % 10.84 C
2368 23-05-2016 16:00:00 14.54167 C 78.4167 % 10.83 C
2369 23-05-2016 17:00:00 14.09167 C 80.5000 % 10.79 C
2370 23-05-2016 18:00:00 13.81667 C 79.5833 % 10.35 C
2371 23-05-2016 19:00:00 13.35833 C 80.7500 % 10.12 C
2372 23-05-2016 20:00:00 12.85833 C 83.7500 % 10.18 C
2373 23-05-2016 21:00:00 12.10833 C 87.8333 % 10.15 C
2374 23-05-2016 22:00:00 11.69167 C 89.8333 % 10.08 C
2375 23-05-2016 23:00:00 11.55 C 89.7500 % 9.93 C
Sensor: Nr:Datum:Temp:Feuchte:Taupunkt:
Aussen-T/F 2376 24-05-2016 00:00:00 11.33333 C 90.0833 % 9.77 C
2377 24-05-2016 01:00:00 11.25 C 90.0833 % 9.69 C
2378 24-05-2016 02:00:00 11.10833 C 90.1667 % 9.56 C
2379 24-05-2016 03:00:00 10.85833 C 91.7500 % 9.57 C
2380 24-05-2016 04:00:00 10.8 C 92.0000 % 9.55 C
2381 24-05-2016 05:00:00 10.73333 C 90.9167 % 9.31 C
2382 24-05-2016 06:00:00 10.675 C 90.0000 % 9.1 C
2383 24-05-2016 07:00:00 10.48333 C 90.0000 % 8.91 C
2384 24-05-2016 08:00:00 10.55833 C 89.5833 % 8.92 C
2385 24-05-2016 09:00:00 10.74167 C 88.0000 % 8.84 C
2386 24-05-2016 10:00:00 10.80833 C 87.5833 % 8.83 C
2387 24-05-2016 11:00:00 10.99167 C 88.0000 % 9.08 C
2388 24-05-2016 12:00:00 10.49167 C 91.2500 % 9.13 C
2389 24-05-2016 13:00:00 10.65 C 90.0833 % 9.09 C
2390 24-05-2016 14:00:00 11.00833 C 91.3333 % 9.65 C
2391 24-05-2016 15:00:00 11.20833 C 92.4167 % 10.03 C
2392 24-05-2016 16:00:00 11.2 C 92.5000 % 10.03 C
2393 24-05-2016 17:00:00 11.59167 C 92.7500 % 10.46 C
2394 24-05-2016 18:00:00 12.01667 C 91.6667 % 10.7 C
2395 24-05-2016 19:00:00 11.95 C 92.9167 % 10.84 C
2396 24-05-2016 20:00:00 11.4 C 93.7500 % 10.43 C
2397 24-05-2016 21:00:00 10.83333 C 94.5000 % 9.99 C
2398 24-05-2016 22:00:00 10.50833 C 95.0000 % 9.74 C
2399 24-05-2016 23:00:00 10.18333 C 95.5000 % 9.5 C
2400 25-05-2016 00:00:00 10.2 C 96.0000 % 9.59 C
Sensor: Nr:Datum:Temp:Feuchte:Taupunkt:
Aussen-T/F 2401 25-05-2016 01:00:00 10.125 C 96.0000 % 9.52 C
2402 25-05-2016 02:00:00 10.14167 C 96.0000 % 9.53 C
2403 25-05-2016 03:00:00 10.25833 C 96.0000 % 9.65 C
2404 25-05-2016 04:00:00 10.4 C 96.2500 % 9.83 C
2405 25-05-2016 05:00:00 10.48333 C 96.1667 % 9.9 C
2406 25-05-2016 06:00:00 10.50833 C 96.0000 % 9.9 C
2407 25-05-2016 07:00:00 10.49167 C 96.0000 % 9.88 C
2408 25-05-2016 08:00:00 10.69167 C 95.7500 % 10.04 C
2409 25-05-2016 09:00:00 11.63333 C 90.9167 % 10.2 C
2410 25-05-2016 10:00:00 12.90833 C 86.3333 % 10.68 C
2411 25-05-2016 11:00:00 13.875 C 81.0833 % 10.69 C
2412 25-05-2016 12:00:00 14.50833 C 77.8333 % 10.69 C
2413 25-05-2016 13:00:00 15.09167 C 75.2500 % 10.75 C
2414 25-05-2016 14:00:00 15.44167 C 74.4167 % 10.92 C
2415 25-05-2016 15:00:00 15.8 C 74.4167 % 11.26 C
2416 25-05-2016 16:00:00 15.875 C 74.5833 % 11.37 C
2417 25-05-2016 17:00:00 15.73333 C 82.6667 % 12.79 C
2418 25-05-2016 18:00:00 14.925 C 86.5833 % 12.71 C
2419 25-05-2016 19:00:00 16.00833 C 78.7500 % 12.32 C
2420 25-05-2016 20:00:00 15.475 C 81.0000 % 12.23 C
2421 25-05-2016 21:00:00 12.71667 C 88.3333 % 10.84 C
2422 25-05-2016 22:00:00 11.45833 C 91.1667 % 10.07 C
2423 25-05-2016 23:00:00 10.35 C 92.6667 % 9.22 C
2424 26-05-2016 00:00:00 9.58333 C 93.9167 % 8.65 C
2425 26-05-2016 01:00:00 8.89167 C 94.6667 % 8.08 C
Sensor: Nr:Datum:Temp:Feuchte:Taupunkt:
Aussen-T/F 2426 26-05-2016 02:00:00 8.40833 C 95.0000 % 7.65 C
2427 26-05-2016 03:00:00 7.96667 C 95.6667 % 7.32 C
2428 26-05-2016 04:00:00 8.1 C 95.9167 % 7.49 C
2429 26-05-2016 05:00:00 8.20833 C 96.0000 % 7.61 C
2430 26-05-2016 06:00:00 8.13333 C 96.0000 % 7.53 C
2431 26-05-2016 07:00:00 8.3 C 96.5833 % 7.79 C
2432 26-05-2016 08:00:00 9.06667 C 97.0000 % 8.62 C
2433 26-05-2016 09:00:00 10.25833 C 97.0000 % 9.8 C
2434 26-05-2016 10:00:00 12.35 C 95.9167 % 11.72 C
2435 26-05-2016 11:00:00 15.50833 C 84.9167 % 12.98 C
2436 26-05-2016 12:00:00 18.00833 C 74.5833 % 13.43 C
2437 26-05-2016 13:00:00 18.4 C 73.9167 % 13.67 C
2438 26-05-2016 14:00:00 20.7 C 63.5000 % 13.53 C
2439 26-05-2016 15:00:00 22.2 C 54.7500 % 12.66 C
2440 26-05-2016 16:00:00 22.99167 C 53.0000 % 12.9 C
2441 26-05-2016 17:00:00 23.69167 C 51.6667 % 13.16 C
2442 26-05-2016 18:00:00 23.96667 C 51.1667 % 13.26 C
2443 26-05-2016 19:00:00 23.60833 C 55.7500 % 14.25 C
2444 26-05-2016 20:00:00 19.58333 C 73.6667 % 14.75 C
2445 26-05-2016 21:00:00 17.63333 C 78.7500 % 13.9 C
2446 26-05-2016 22:00:00 16.575 C 85.5833 % 14.15 C
2447 26-05-2016 23:00:00 15.425 C 91.3333 % 14.02 C
2448 27-05-2016 00:00:00 14.825 C 93.0000 % 13.7 C
2449 27-05-2016 01:00:00 14.36667 C 93.5000 % 13.33 C
2450 27-05-2016 02:00:00 14.46667 C 94.5833 % 13.61 C
Sensor: Nr:Datum:Temp:Feuchte:Taupunkt:
Aussen-T/F 2451 27-05-2016 03:00:00 14.625 C 95.0000 % 13.83 C
2452 27-05-2016 04:00:00 14.41667 C 95.2500 % 13.67 C
2453 27-05-2016 05:00:00 13.93636 C 96.0000 % 13.31 C
2454 27-05-2016 08:00:00 14.65 C 96.3333 % 14.07 C
2455 27-05-2016 09:00:00 15.34167 C 95.6667 % 14.65 C
2456 27-05-2016 10:00:00 16.58333 C 92.5000 % 15.36 C
2457 27-05-2016 11:00:00 17.84167 C 86.9167 % 15.63 C
2458 27-05-2016 12:00:00 18.55833 C 89.0000 % 16.71 C
2459 27-05-2016 13:00:00 19.29167 C 86.9167 % 17.06 C
2460 27-05-2016 14:00:00 20.41667 C 80.0000 % 16.85 C
2461 27-05-2016 15:00:00 22.7 C 65.6667 % 15.94 C
2462 27-05-2016 16:00:00 21.85833 C 78.4167 % 17.93 C
2463 27-05-2016 17:00:00 17.44167 C 89.2500 % 15.65 C
2464 27-05-2016 18:00:00 16.56667 C 94.5833 % 15.69 C
2465 27-05-2016 19:00:00 16.7 C 95.0000 % 15.9 C
2466 27-05-2016 20:00:00 16.54167 C 95.0833 % 15.75 C
2467 27-05-2016 21:00:00 15.85833 C 95.5833 % 15.15 C
2468 27-05-2016 22:00:00 15.125 C 95.9167 % 14.48 C
2469 28-05-2016 01:00:00 13.73333 C 96.6667 % 13.21 C
2470 28-05-2016 02:00:00 14.13333 C 97.0000 % 13.66 C
2471 28-05-2016 03:00:00 13.81667 C 97.0000 % 13.35 C
2472 28-05-2016 04:00:00 13.7 C 97.0000 % 13.23 C
2473 28-05-2016 12:00:00 18.3 C 90.5000 % 16.72 C
2474 28-05-2016 13:00:00 19.73333 C 84.9167 % 17.12 C
2475 28-05-2016 14:00:00 21.75 C 72.5833 % 16.61 C
Sensor: Nr:Datum:Temp:Feuchte:Taupunkt:
Aussen-T/F 2476 28-05-2016 15:00:00 22.68333 C 75.7500 % 18.18 C
2477 28-05-2016 16:00:00 23.03333 C 74.7500 % 18.31 C
2478 28-05-2016 17:00:00 20.65 C 85.2500 % 18.08 C
2479 28-05-2016 18:00:00 18.925 C 90.9167 % 17.41 C
2480 28-05-2016 19:00:00 18.1 C 93.1667 % 16.98 C
2481 28-05-2016 20:00:00 17.73333 C 94.0000 % 16.76 C
2482 28-05-2016 21:00:00 16.5 C 94.0833 % 15.54 C
2483 28-05-2016 22:00:00 15.86667 C 95.0000 % 15.07 C
2484 28-05-2016 23:00:00 15.4 C 95.0000 % 14.6 C
2485 29-05-2016 00:00:00 14.83333 C 95.6667 % 14.15 C
2486 29-05-2016 01:00:00 14.38333 C 96.0000 % 13.75 C
2487 29-05-2016 02:00:00 14.1 C 96.0000 % 13.47 C
2488 29-05-2016 03:00:00 13.31667 C 96.0000 % 12.69 C
2489 29-05-2016 04:00:00 12.8 C 96.5000 % 12.26 C
2490 29-05-2016 05:00:00 13.09167 C 97.0000 % 12.63 C
2491 29-05-2016 06:00:00 13.45833 C 97.0000 % 12.99 C
2492 29-05-2016 07:00:00 13.925 C 97.0000 % 13.46 C
2493 29-05-2016 08:00:00 14.49167 C 97.0833 % 14.03 C
2494 29-05-2016 09:00:00 15.64167 C 97.1667 % 15.19 C
2495 29-05-2016 10:00:00 16.34167 C 94.1667 % 15.4 C
2496 29-05-2016 11:00:00 17.15 C 89.7500 % 15.45 C
2497 29-05-2016 12:00:00 18.325 C 86.7500 % 16.08 C
2498 29-05-2016 13:00:00 20 C 82.0000 % 16.83 C
2499 29-05-2016 14:00:00 20.90833 C 79.0833 % 17.15 C
2500 29-05-2016 15:00:00 22.09167 C 77.0000 % 17.87 C
Sensor: Nr:Datum:Temp:Feuchte:Taupunkt:
Aussen-T/F 2501 29-05-2016 16:00:00 23.40833 C 69.5833 % 17.53 C
2502 29-05-2016 17:00:00 23.85 C 68.5833 % 17.72 C
2503 29-05-2016 18:00:00 21.70833 C 81.7500 % 18.45 C
2504 29-05-2016 19:00:00 20.86667 C 85.2500 % 18.3 C
2505 29-05-2016 20:00:00 19.25 C 88.4167 % 17.29 C
2506 29-05-2016 21:00:00 18.1 C 92.5833 % 16.88 C
2507 29-05-2016 22:00:00 17.31667 C 94.2500 % 16.38 C
2508 29-05-2016 23:00:00 17.40833 C 95.8333 % 16.74 C
2509 30-05-2016 00:00:00 16.98333 C 95.7500 % 16.3 C
2510 30-05-2016 01:00:00 16.93333 C 96.0000 % 16.29 C
2511 30-05-2016 02:00:00 16.66667 C 96.0000 % 16.03 C
2512 30-05-2016 03:00:00 16.375 C 96.0000 % 15.74 C
2513 30-05-2016 04:00:00 16.14167 C 96.0000 % 15.5 C
2514 30-05-2016 05:00:00 15.825 C 96.0000 % 15.19 C
2515 30-05-2016 06:00:00 15.875 C 96.8333 % 15.37 C
2516 30-05-2016 07:00:00 16.13333 C 97.0000 % 15.66 C
2517 30-05-2016 08:00:00 16.58333 C 97.0000 % 16.11 C
2518 30-05-2016 09:00:00 16.95833 C 97.0000 % 16.48 C
2519 30-05-2016 10:00:00 17.33333 C 96.7500 % 16.81 C
2520 30-05-2016 11:00:00 17.95833 C 93.5833 % 16.91 C
2521 30-05-2016 12:00:00 19.11667 C 88.6667 % 17.2 C
2522 30-05-2016 13:00:00 19.375 C 89.7500 % 17.65 C
2523 30-05-2016 14:00:00 20.05 C 87.5833 % 17.93 C
2524 30-05-2016 15:00:00 20.4 C 88.1667 % 18.38 C
2525 30-05-2016 16:00:00 21.3 C 83.4167 % 18.37 C
Sensor: Nr:Datum:Temp:Feuchte:Taupunkt:
Aussen-T/F 2526 30-05-2016 17:00:00 19.925 C 84.5833 % 17.25 C
2527 30-05-2016 18:00:00 18.49167 C 90.2500 % 16.86 C
2528 30-05-2016 19:00:00 17.75833 C 93.6667 % 16.72 C
2529 30-05-2016 20:00:00 16.975 C 94.0000 % 16 C
2530 30-05-2016 21:00:00 15.96667 C 94.3333 % 15.06 C
2531 30-05-2016 22:00:00 15.575 C 95.0000 % 14.78 C
2532 30-05-2016 23:00:00 15.23333 C 95.0000 % 14.44 C
2533 31-05-2016 00:00:00 14.675 C 95.3333 % 13.94 C
2534 31-05-2016 01:00:00 14.5 C 96.0000 % 13.87 C
2535 31-05-2016 02:00:00 13.775 C 96.0000 % 13.15 C
2536 31-05-2016 03:00:00 13.5 C 96.0000 % 12.87 C
2537 31-05-2016 04:00:00 13.11667 C 96.3333 % 12.55 C
2538 31-05-2016 05:00:00 13.24167 C 97.0000 % 12.78 C
2539 31-05-2016 06:00:00 13.575 C 97.0000 % 13.11 C
2540 31-05-2016 07:00:00 14.325 C 96.7500 % 13.82 C
2541 31-05-2016 08:00:00 15.31667 C 91.9167 % 14.01 C
2542 31-05-2016 09:00:00 16.7 C 85.6667 % 14.29 C
2543 31-05-2016 10:00:00 17.58333 C 81.0000 % 14.29 C
2544 31-05-2016 11:00:00 18.125 C 80.6667 % 14.75 C
2545 31-05-2016 12:00:00 18.7 C 77.9167 % 14.77 C
2546 31-05-2016 13:00:00 19.30833 C 75.5833 % 14.89 C
2547 31-05-2016 14:00:00 18.4 C 82.5000 % 15.37 C
2548 31-05-2016 15:00:00 18.975 C 80.9167 % 15.63 C
2549 31-05-2016 16:00:00 19.29167 C 77.3333 % 15.23 C
2550 31-05-2016 17:00:00 19.09167 C 77.0833 % 14.98 C
Sensor: Nr:Datum:Temp:Feuchte:Taupunkt:
Aussen-T/F 2551 31-05-2016 18:00:00 19.88333 C 74.8333 % 15.29 C
2552 31-05-2016 19:00:00 18.58333 C 85.3333 % 16.07 C
2553 31-05-2016 20:00:00 17.65 C 87.4167 % 15.53 C
2554 31-05-2016 21:00:00 16.525 C 88.3333 % 14.59 C
2555 31-05-2016 22:00:00 15.95 C 90.6667 % 14.43 C
2556 31-05-2016 23:00:00 15.55833 C 92.0833 % 14.28 C
2557 01-06-2016 00:00:00 15.3 C 92.9167 % 14.16 C
2558 01-06-2016 01:00:00 15.025 C 93.0833 % 13.92 C
2559 01-06-2016 02:00:00 14.61667 C 94.0000 % 13.66 C
2560 01-06-2016 03:00:00 13.89167 C 94.3333 % 13 C
2561 01-06-2016 04:00:00 13.8 C 95.0000 % 13.01 C
2562 01-06-2016 05:00:00 13.70833 C 95.3333 % 12.98 C
2563 01-06-2016 06:00:00 13.88333 C 95.5833 % 13.19 C
2564 01-06-2016 07:00:00 14.43333 C 94.0833 % 13.49 C
2565 01-06-2016 08:00:00 15.20833 C 91.5833 % 13.85 C
2566 01-06-2016 09:00:00 15.8 C 90.6667 % 14.28 C
2567 01-06-2016 10:00:00 16.03333 C 92.8333 % 14.87 C
2568 01-06-2016 11:00:00 16.26667 C 93.5000 % 15.22 C
2569 01-06-2016 12:00:00 16.5 C 94.7500 % 15.66 C
2570 01-06-2016 13:00:00 16.8 C 95.0000 % 15.99 C
2571 01-06-2016 14:00:00 16.81667 C 95.0000 % 16.01 C
2572 01-06-2016 15:00:00 16.83333 C 95.1667 % 16.05 C
2573 01-06-2016 16:00:00 16.66667 C 95.2500 % 15.9 C
2574 01-06-2016 17:00:00 16.66667 C 96.0000 % 16.03 C
2575 01-06-2016 18:00:00 16.78333 C 96.0000 % 16.14 C
Sensor: Nr:Datum:Temp:Feuchte:Taupunkt:
Aussen-T/F 2576 01-06-2016 19:00:00 16.73333 C 96.0000 % 16.09 C
2577 01-06-2016 20:00:00 16.40833 C 96.0833 % 15.78 C
2578 01-06-2016 21:00:00 16.3 C 97.0000 % 15.82 C
2579 01-06-2016 22:00:00 16.2 C 97.0000 % 15.72 C
2580 01-06-2016 23:00:00 16.10833 C 97.0000 % 15.63 C
2581 02-06-2016 00:00:00 16.16667 C 97.0000 % 15.69 C
2582 02-06-2016 01:00:00 16.25 C 97.0000 % 15.77 C
2583 02-06-2016 02:00:00 16.21667 C 97.0000 % 15.74 C
2584 02-06-2016 03:00:00 15.93333 C 97.0000 % 15.46 C
2585 02-06-2016 04:00:00 15.7 C 97.0000 % 15.23 C
2586 02-06-2016 05:00:00 15.6 C 97.0000 % 15.13 C
2587 02-06-2016 06:00:00 15.66667 C 97.0833 % 15.21 C
2588 02-06-2016 07:00:00 15.99167 C 97.5000 % 15.6 C
2589 02-06-2016 08:00:00 16.45833 C 97.5000 % 16.06 C
2590 02-06-2016 09:00:00 16.8 C 96.5833 % 16.25 C
2591 02-06-2016 10:00:00 17.81667 C 93.5833 % 16.77 C
2592 02-06-2016 11:00:00 18.94167 C 88.7500 % 17.04 C
2593 02-06-2016 12:00:00 19.35833 C 89.6667 % 17.62 C
2594 02-06-2016 13:00:00 20.15 C 83.7500 % 17.31 C
2595 02-06-2016 14:00:00 21.44167 C 76.9167 % 17.22 C
2596 02-06-2016 15:00:00 21.93333 C 75.6667 % 17.44 C
2597 02-06-2016 16:00:00 22 C 79.5833 % 18.31 C
2598 02-06-2016 17:00:00 21.15 C 82.0000 % 17.96 C
2599 02-06-2016 18:00:00 17.75833 C 90.1667 % 16.13 C
2600 02-06-2016 19:00:00 16.19167 C 94.2500 % 15.27 C
Sensor: Nr:Datum:Temp:Feuchte:Taupunkt:
Aussen-T/F 2601 02-06-2016 20:00:00 15.99167 C 95.0000 % 15.19 C
2602 02-06-2016 21:00:00 15.8 C 96.0000 % 15.16 C
2603 02-06-2016 22:00:00 15.61667 C 96.0000 % 14.98 C
2604 02-06-2016 23:00:00 15.54167 C 96.0833 % 14.92 C
2605 03-06-2016 00:00:00 15.36667 C 96.0833 % 14.75 C
2606 03-06-2016 01:00:00 15.10833 C 96.1667 % 14.5 C
2607 03-06-2016 02:00:00 15.10833 C 97.0000 % 14.64 C
2608 03-06-2016 03:00:00 15.31667 C 97.0000 % 14.84 C
2609 03-06-2016 04:00:00 15.43333 C 97.0000 % 14.96 C
2610 03-06-2016 05:00:00 15.4 C 97.0000 % 14.93 C
2611 03-06-2016 06:00:00 15.55 C 97.0000 % 15.08 C
2612 03-06-2016 07:00:00 15.21667 C 97.0000 % 14.74 C
2613 03-06-2016 08:00:00 15.44167 C 97.0000 % 14.97 C
2614 03-06-2016 09:00:00 16.09167 C 97.0833 % 15.63 C
2615 03-06-2016 10:00:00 16.85833 C 94.2500 % 15.93 C
2616 03-06-2016 11:00:00 18.19167 C 88.6667 % 16.29 C
2617 03-06-2016 12:00:00 19.19167 C 84.7500 % 16.56 C
2618 03-06-2016 13:00:00 19.3 C 88.5000 % 17.35 C
2619 03-06-2016 14:00:00 17.7 C 93.6667 % 16.67 C
2620 03-06-2016 15:00:00 18 C 94.9167 % 17.17 C
2621 03-06-2016 16:00:00 17.4 C 94.8333 % 16.56 C
2622 03-06-2016 17:00:00 18.31667 C 95.5833 % 17.6 C
2623 03-06-2016 18:00:00 19.15833 C 94.4167 % 18.24 C
2624 03-06-2016 19:00:00 18.76667 C 94.0000 % 17.78 C
2625 03-06-2016 20:00:00 17.25 C 93.0833 % 16.12 C
Sensor: Nr:Datum:Temp:Feuchte:Taupunkt:
Aussen-T/F 2626 03-06-2016 21:00:00 15.86667 C 95.0833 % 15.08 C
2627 03-06-2016 22:00:00 16.15833 C 96.0000 % 15.52 C
2628 03-06-2016 23:00:00 16.25833 C 96.2500 % 15.66 C
2629 04-06-2016 00:00:00 16.1 C 96.6667 % 15.57 C
2630 04-06-2016 01:00:00 16.01667 C 97.0000 % 15.54 C
2631 04-06-2016 02:00:00 15.3 C 97.0000 % 14.83 C
2632 04-06-2016 03:00:00 15.04167 C 97.0000 % 14.57 C
2633 04-06-2016 04:00:00 15.3 C 97.0000 % 14.83 C
2634 04-06-2016 05:00:00 15.375 C 97.0000 % 14.9 C
2635 04-06-2016 06:00:00 15.24167 C 97.0000 % 14.77 C
2636 04-06-2016 07:00:00 15.4 C 97.0000 % 14.93 C
2637 04-06-2016 08:00:00 15.81667 C 97.0000 % 15.34 C
2638 04-06-2016 09:00:00 16.71667 C 95.4167 % 15.98 C
2639 04-06-2016 10:00:00 17.96667 C 91.5000 % 16.56 C
2640 04-06-2016 11:00:00 19.36667 C 86.8333 % 17.12 C
2641 04-06-2016 12:00:00 19.85833 C 86.8333 % 17.6 C
2642 04-06-2016 13:00:00 20.50833 C 85.7500 % 18.04 C
2643 04-06-2016 14:00:00 21.25833 C 81.9167 % 18.04 C
2644 04-06-2016 15:00:00 22.95 C 72.0833 % 17.65 C
2645 04-06-2016 16:00:00 23.76667 C 68.4167 % 17.6 C
2646 04-06-2016 17:00:00 20.64167 C 82.9167 % 17.64 C
2647 04-06-2016 18:00:00 18.425 C 91.6667 % 17.04 C
2648 04-06-2016 19:00:00 19.44167 C 92.7500 % 18.24 C
2649 04-06-2016 20:00:00 19.35833 C 87.0833 % 17.15 C
2650 04-06-2016 21:00:00 16.51667 C 93.6667 % 15.49 C
Sensor: Nr:Datum:Temp:Feuchte:Taupunkt:
Aussen-T/F 2651 04-06-2016 22:00:00 16.10833 C 95.0000 % 15.31 C
2652 04-06-2016 23:00:00 15.95 C 95.8333 % 15.29 C
2653 05-06-2016 00:00:00 16.4 C 96.7500 % 15.88 C
2654 05-06-2016 01:00:00 16.7 C 97.0000 % 16.22 C
2655 05-06-2016 02:00:00 16.76667 C 97.0000 % 16.29 C
2656 05-06-2016 03:00:00 16.88333 C 97.0000 % 16.4 C
2657 05-06-2016 04:00:00 16.9 C 97.0000 % 16.42 C
2658 05-06-2016 05:00:00 16.84167 C 97.0000 % 16.36 C
2659 05-06-2016 06:00:00 17 C 97.0000 % 16.52 C
2660 05-06-2016 07:00:00 17.41667 C 97.0000 % 16.94 C
2661 05-06-2016 08:00:00 17.76667 C 97.0000 % 17.28 C
2662 05-06-2016 09:00:00 18.175 C 96.9167 % 17.68 C
2663 05-06-2016 10:00:00 18.71667 C 95.7500 % 18.02 C
2664 05-06-2016 11:00:00 19.66667 C 93.6667 % 18.62 C
2665 05-06-2016 12:00:00 21.20833 C 86.9167 % 18.94 C
2666 05-06-2016 13:00:00 23.375 C 77.1667 % 19.15 C
2667 05-06-2016 14:00:00 24.575 C 67.3333 % 18.12 C
2668 05-06-2016 15:00:00 25.7 C 65.0833 % 18.65 C
2669 05-06-2016 16:00:00 23.66667 C 78.0833 % 19.62 C
2670 05-06-2016 17:00:00 21.45833 C 81.8333 % 18.22 C
2671 05-06-2016 18:00:00 22.56667 C 73.4167 % 17.57 C
2672 05-06-2016 19:00:00 21.45833 C 78.1667 % 17.5 C
2673 05-06-2016 20:00:00 18.4 C 88.5000 % 16.47 C
2674 05-06-2016 21:00:00 17.14167 C 93.3333 % 16.06 C
2675 05-06-2016 22:00:00 16.25 C 94.0000 % 15.28 C
Sensor: Nr:Datum:Temp:Feuchte:Taupunkt:
Aussen-T/F 2676 05-06-2016 23:00:00 15.43333 C 94.2500 % 14.51 C
2677 06-06-2016 00:00:00 15.04167 C 94.7500 % 14.21 C
2678 06-06-2016 01:00:00 14.5 C 95.0833 % 13.72 C
2679 06-06-2016 02:00:00 14.39167 C 96.0833 % 13.78 C
2680 06-06-2016 03:00:00 14.91667 C 96.0000 % 14.28 C
2681 06-06-2016 04:00:00 14.88333 C 96.0833 % 14.26 C
2682 06-06-2016 05:00:00 14.4 C 96.5833 % 13.86 C
2683 06-06-2016 06:00:00 14.31667 C 97.0000 % 13.85 C
2684 06-06-2016 07:00:00 14.425 C 97.0000 % 13.95 C
2685 06-06-2016 08:00:00 14.85833 C 97.0000 % 14.39 C
2686 06-06-2016 09:00:00 15.45 C 96.9167 % 14.96 C
2687 06-06-2016 10:00:00 17.24167 C 93.5833 % 16.2 C
2688 06-06-2016 11:00:00 19.64167 C 88.0833 % 17.61 C
2689 06-06-2016 12:00:00 21.71667 C 84.4167 % 18.97 C
2690 06-06-2016 13:00:00 23.80833 C 75.2500 % 19.16 C
2691 06-06-2016 14:00:00 25.3 C 70.4167 % 19.53 C
2692 06-06-2016 15:00:00 25.09167 C 70.8333 % 19.42 C
2693 06-06-2016 16:00:00 22.25833 C 75.5833 % 17.74 C
2694 06-06-2016 17:00:00 24.15 C 73.3333 % 19.08 C
2695 06-06-2016 18:00:00 24.35833 C 77.2500 % 20.12 C
2696 06-06-2016 19:00:00 24.45833 C 77.3333 % 20.23 C
2697 06-06-2016 20:00:00 25.55 C 74.2500 % 20.62 C
2698 06-06-2016 21:00:00 21.95833 C 84.5833 % 19.24 C
2699 06-06-2016 22:00:00 19.675 C 89.4167 % 17.88 C
2700 06-06-2016 23:00:00 18.11667 C 90.9167 % 16.61 C
Sensor: Nr:Datum:Temp:Feuchte:Taupunkt:
Aussen-T/F 2701 07-06-2016 00:00:00 16.89167 C 91.9167 % 15.57 C
2702 07-06-2016 01:00:00 16.05833 C 93.4167 % 15 C
2703 07-06-2016 02:00:00 15.4 C 94.1667 % 14.47 C
2704 07-06-2016 03:00:00 14.94167 C 94.9167 % 14.13 C
2705 07-06-2016 04:00:00 14.41667 C 95.1667 % 13.65 C
2706 07-06-2016 05:00:00 13.88333 C 95.8333 % 13.23 C
2707 07-06-2016 06:00:00 14.41667 C 96.5000 % 13.87 C
2708 07-06-2016 07:00:00 15.04167 C 97.0000 % 14.57 C
2709 07-06-2016 08:00:00 15.475 C 97.0000 % 15 C
2710 07-06-2016 09:00:00 16.575 C 97.0000 % 16.1 C
2711 07-06-2016 10:00:00 19.40833 C 93.2500 % 18.29 C
2712 07-06-2016 11:00:00 21.80833 C 83.3333 % 18.86 C
2713 07-06-2016 12:00:00 24.075 C 67.4167 % 17.66 C
2714 07-06-2016 13:00:00 25.53333 C 54.1667 % 15.59 C
2715 07-06-2016 14:00:00 25.63333 C 62.3333 % 17.89 C
2716 07-06-2016 15:00:00 25.36667 C 71.6667 % 19.88 C
2717 07-06-2016 16:00:00 27.08333 C 63.5000 % 19.56 C
2718 07-06-2016 17:00:00 25.85833 C 67.3333 % 19.34 C
2719 07-06-2016 18:00:00 26 C 63.6667 % 18.58 C
2720 07-06-2016 19:00:00 23.96667 C 70.8333 % 18.35 C
2721 07-06-2016 20:00:00 21.23333 C 80.2500 % 17.69 C
2722 07-06-2016 21:00:00 20.10833 C 80.9167 % 16.73 C
2723 07-06-2016 22:00:00 19.93333 C 77.3333 % 15.85 C
2724 07-06-2016 23:00:00 18.10833 C 82.9167 % 15.16 C
2725 08-06-2016 00:00:00 17.5 C 84.3333 % 14.83 C
Sensor: Nr:Datum:Temp:Feuchte:Taupunkt:
Aussen-T/F 2726 08-06-2016 01:00:00 17.00833 C 86.5000 % 14.74 C
2727 08-06-2016 02:00:00 16.56667 C 89.6667 % 14.86 C
2728 08-06-2016 03:00:00 16.51667 C 89.9167 % 14.86 C
2729 08-06-2016 04:00:00 16.35 C 90.5833 % 14.81 C
2730 08-06-2016 05:00:00 16.325 C 91.4167 % 14.92 C
2731 08-06-2016 06:00:00 16.23333 C 93.2500 % 15.14 C
2732 08-06-2016 07:00:00 16.50833 C 94.5000 % 15.62 C
2733 08-06-2016 08:00:00 17.44167 C 93.6667 % 16.41 C
2734 08-06-2016 09:00:00 18.30833 C 90.0000 % 16.64 C
2735 08-06-2016 10:00:00 18.85833 C 86.8333 % 16.62 C
2736 08-06-2016 11:00:00 19.56667 C 82.9167 % 16.59 C
2737 08-06-2016 12:00:00 20.18333 C 81.1667 % 16.85 C
2738 08-06-2016 13:00:00 20.8 C 78.9167 % 17.01 C
2739 08-06-2016 14:00:00 22.13333 C 73.2500 % 17.12 C
2740 08-06-2016 15:00:00 23.89167 C 65.6667 % 17.07 C
2741 08-06-2016 16:00:00 24.94167 C 57.4167 % 15.95 C
2742 08-06-2016 17:00:00 24.675 C 55.0000 % 15.03 C
2743 08-06-2016 18:00:00 24.41667 C 54.0833 % 14.53 C
2744 08-06-2016 19:00:00 24.025 C 53.0000 % 13.86 C
2745 08-06-2016 20:00:00 22.7 C 53.5000 % 12.78 C
2746 08-06-2016 21:00:00 20.49167 C 57.3333 % 11.78 C
2747 08-06-2016 22:00:00 17.79167 C 71.0000 % 12.47 C
2748 08-06-2016 23:00:00 16.29167 C 80.0833 % 12.85 C
2749 09-06-2016 00:00:00 15.31667 C 83.5833 % 12.55 C
2750 09-06-2016 01:00:00 15.06667 C 86.7500 % 12.88 C
Sensor: Nr:Datum:Temp:Feuchte:Taupunkt:
Aussen-T/F 2751 09-06-2016 02:00:00 14.84167 C 88.5833 % 12.97 C
2752 09-06-2016 03:00:00 14.71667 C 91.0833 % 13.28 C
2753 09-06-2016 04:00:00 14.6 C 90.0000 % 12.98 C
2754 09-06-2016 05:00:00 14.58333 C 89.2500 % 12.83 C
2755 09-06-2016 06:00:00 14.6 C 87.2500 % 12.51 C
2756 09-06-2016 07:00:00 14.725 C 85.4167 % 12.31 C
2757 09-06-2016 08:00:00 15.09167 C 81.0000 % 11.86 C
2758 09-06-2016 09:00:00 15.24167 C 78.0000 % 11.43 C
2759 09-06-2016 10:00:00 16.2 C 73.4167 % 11.45 C
2760 09-06-2016 11:00:00 16.96667 C 68.6667 % 11.17 C
2761 09-06-2016 12:00:00 17.50833 C 65.0833 % 10.88 C
2762 09-06-2016 13:00:00 18.60833 C 59.5833 % 10.59 C
2763 09-06-2016 14:00:00 19.56667 C 55.7500 % 10.49 C
2764 09-06-2016 15:00:00 20.90833 C 53.1667 % 11.02 C
2765 09-06-2016 16:00:00 22.26667 C 49.9167 % 11.32 C
2766 09-06-2016 17:00:00 22.94167 C 48.3333 % 11.46 C
2767 09-06-2016 18:00:00 22.59167 C 48.5833 % 11.21 C
2768 09-06-2016 19:00:00 21.85833 C 51.4167 % 11.4 C
2769 09-06-2016 20:00:00 20.59167 C 54.0833 % 10.99 C
2770 09-06-2016 21:00:00 17.775 C 67.6667 % 11.72 C
2771 09-06-2016 22:00:00 15.26667 C 77.2500 % 11.31 C
2772 09-06-2016 23:00:00 13.825 C 83.5000 % 11.08 C
2773 10-06-2016 00:00:00 12.36667 C 88.3333 % 10.49 C
2774 10-06-2016 01:00:00 11.7 C 90.5000 % 10.2 C
2775 10-06-2016 02:00:00 11.11667 C 91.7500 % 9.83 C
Sensor: Nr:Datum:Temp:Feuchte:Taupunkt:
Aussen-T/F 2776 10-06-2016 03:00:00 10.55 C 92.8333 % 9.44 C
2777 10-06-2016 04:00:00 10.025 C 93.0000 % 8.95 C
2778 10-06-2016 05:00:00 9.43333 C 93.8333 % 8.49 C
2779 10-06-2016 06:00:00 9.59167 C 94.8333 % 8.81 C
2780 10-06-2016 07:00:00 10.23333 C 95.0000 % 9.47 C
2781 10-06-2016 08:00:00 11.425 C 94.5000 % 10.57 C
2782 10-06-2016 09:00:00 13.01667 C 90.2500 % 11.46 C
2783 10-06-2016 10:00:00 16.63333 C 74.5833 % 12.1 C
2784 10-06-2016 11:00:00 17.925 C 59.8333 % 10.01 C
2785 10-06-2016 12:00:00 18.85833 C 53.5833 % 9.24 C
2786 10-06-2016 13:00:00 20.06667 C 53.5000 % 10.34 C
2787 10-06-2016 14:00:00 21.18333 C 53.8333 % 11.47 C
2788 10-06-2016 15:00:00 22.45 C 50.4167 % 11.64 C
2789 10-06-2016 16:00:00 23.68333 C 46.6667 % 11.6 C
2790 10-06-2016 17:00:00 22.84167 C 46.8333 % 10.89 C
2791 10-06-2016 18:00:00 23.10833 C 42.8333 % 9.8 C
2792 10-06-2016 19:00:00 22.98333 C 41.3333 % 9.15 C
2793 10-06-2016 20:00:00 20.34167 C 57.5833 % 11.7 C
2794 10-06-2016 21:00:00 17.25833 C 65.9167 % 10.83 C
2795 10-06-2016 22:00:00 16.15833 C 66.8333 % 9.99 C
2796 10-06-2016 23:00:00 14.775 C 76.0833 % 10.61 C
2797 11-06-2016 00:00:00 14.15 C 81.3333 % 11 C
2798 11-06-2016 01:00:00 13.5 C 83.9167 % 10.84 C
2799 11-06-2016 02:00:00 12.775 C 86.2500 % 10.54 C
2800 11-06-2016 03:00:00 12.71667 C 88.0000 % 10.78 C
Sensor: Nr:Datum:Temp:Feuchte:Taupunkt:
Aussen-T/F 2801 11-06-2016 04:00:00 12.625 C 88.5833 % 10.79 C
2802 11-06-2016 05:00:00 12.25833 C 89.7500 % 10.63 C
2803 11-06-2016 06:00:00 12.46667 C 90.5833 % 10.97 C
2804 11-06-2016 07:00:00 13.425 C 88.7500 % 11.61 C
2805 11-06-2016 08:00:00 14.65 C 83.3333 % 11.86 C
2806 11-06-2016 09:00:00 16.03333 C 79.1667 % 12.43 C
2807 11-06-2016 10:00:00 17.66667 C 74.4167 % 13.06 C
2808 11-06-2016 11:00:00 19.19167 C 66.0000 % 12.69 C
2809 11-06-2016 12:00:00 19.93333 C 63.6667 % 12.84 C
2810 11-06-2016 13:00:00 20.75833 C 61.5000 % 13.09 C
2811 11-06-2016 14:00:00 21.70833 C 54.8333 % 12.23 C
2812 11-06-2016 15:00:00 22.35833 C 53.3333 % 12.41 C
2813 11-06-2016 16:00:00 22.7 C 56.8333 % 13.7 C
2814 11-06-2016 17:00:00 23.075 C 55.8333 % 13.78 C
2815 11-06-2016 18:00:00 23.275 C 53.4167 % 13.28 C
2816 11-06-2016 19:00:00 22.88333 C 64.0833 % 15.73 C
2817 11-06-2016 20:00:00 20.625 C 74.9167 % 16.02 C
2818 11-06-2016 21:00:00 18.49167 C 80.8333 % 15.14 C
2819 11-06-2016 22:00:00 17.51667 C 82.6667 % 14.54 C
2820 11-06-2016 23:00:00 16.825 C 86.0833 % 14.49 C
2821 12-06-2016 00:00:00 16.43333 C 87.1667 % 14.29 C
2822 12-06-2016 01:00:00 16.325 C 88.0833 % 14.35 C
2823 12-06-2016 02:00:00 15.95833 C 89.4167 % 14.22 C
2824 12-06-2016 03:00:00 15.7 C 91.3333 % 14.29 C
2825 12-06-2016 04:00:00 15.45833 C 92.8333 % 14.3 C
Sensor: Nr:Datum:Temp:Feuchte:Taupunkt:
Aussen-T/F 2826 12-06-2016 05:00:00 15.2 C 93.8333 % 14.21 C
2827 12-06-2016 06:00:00 15.2 C 94.4167 % 14.31 C
2828 12-06-2016 07:00:00 15.825 C 95.0000 % 15.03 C
2829 12-06-2016 08:00:00 16.34167 C 94.5000 % 15.46 C
2830 12-06-2016 09:00:00 17.075 C 89.7500 % 15.38 C
2831 12-06-2016 10:00:00 18.225 C 85.0000 % 15.66 C
2832 12-06-2016 11:00:00 18.84167 C 79.9167 % 15.3 C
2833 12-06-2016 12:00:00 19.08333 C 78.1667 % 15.19 C
2834 12-06-2016 13:00:00 18.825 C 78.5833 % 15.02 C
2835 12-06-2016 14:00:00 19.225 C 76.5833 % 15.01 C
2836 12-06-2016 15:00:00 20.325 C 73.5000 % 15.43 C
2837 12-06-2016 16:00:00 21.275 C 70.6667 % 15.73 C
2838 12-06-2016 17:00:00 21.125 C 70.9167 % 15.64 C
2839 12-06-2016 18:00:00 17.55833 C 88.2500 % 15.59 C
2840 12-06-2016 19:00:00 17.08333 C 92.7500 % 15.9 C
2841 12-06-2016 20:00:00 16.2 C 93.0833 % 15.08 C
2842 12-06-2016 21:00:00 15.14167 C 93.8333 % 14.16 C
2843 12-06-2016 22:00:00 14.93333 C 95.1667 % 14.17 C
2844 12-06-2016 23:00:00 15.03333 C 95.0833 % 14.25 C
2845 13-06-2016 00:00:00 14.60833 C 95.3333 % 13.87 C
2846 13-06-2016 01:00:00 14.45833 C 96.0000 % 13.83 C
2847 13-06-2016 02:00:00 14.61667 C 96.0000 % 13.99 C
2848 13-06-2016 03:00:00 14.61667 C 96.0000 % 13.99 C
2849 13-06-2016 04:00:00 14.39167 C 96.0000 % 13.76 C
2850 13-06-2016 05:00:00 14.39167 C 96.3333 % 13.82 C
Sensor: Nr:Datum:Temp:Feuchte:Taupunkt:
Aussen-T/F 2851 13-06-2016 06:00:00 14.875 C 97.0000 % 14.4 C
2852 13-06-2016 07:00:00 15.25833 C 97.0000 % 14.79 C
2853 13-06-2016 08:00:00 15.89167 C 97.0000 % 15.42 C
2854 13-06-2016 09:00:00 16.825 C 96.9167 % 16.33 C
2855 13-06-2016 10:00:00 17.175 C 95.8333 % 16.5 C
2856 13-06-2016 11:00:00 17.81667 C 94.5000 % 16.92 C
2857 13-06-2016 12:00:00 17.39167 C 92.9167 % 16.23 C
2858 13-06-2016 13:00:00 17.43333 C 93.7500 % 16.42 C
2859 13-06-2016 14:00:00 18.68333 C 91.9167 % 17.34 C
2860 13-06-2016 15:00:00 18 C 91.5000 % 16.59 C
2861 13-06-2016 16:00:00 18.20833 C 91.7500 % 16.84 C
2862 13-06-2016 17:00:00 17.83333 C 92.4167 % 16.59 C
2863 13-06-2016 18:00:00 16.7 C 92.5000 % 15.48 C
2864 13-06-2016 19:00:00 15.825 C 94.8333 % 15 C
2865 13-06-2016 20:00:00 14.79167 C 94.2500 % 13.88 C
2866 13-06-2016 21:00:00 14.575 C 95.0000 % 13.78 C
2867 13-06-2016 22:00:00 14.24167 C 95.5833 % 13.55 C
2868 13-06-2016 23:00:00 14.06667 C 96.0000 % 13.44 C
2869 14-06-2016 00:00:00 14.00833 C 96.0000 % 13.38 C
2870 14-06-2016 01:00:00 13.74167 C 96.2500 % 13.16 C
2871 14-06-2016 02:00:00 13.5 C 97.0000 % 13.03 C
2872 14-06-2016 03:00:00 13.6 C 97.0000 % 13.13 C
2873 14-06-2016 04:00:00 13.525 C 97.0000 % 13.06 C
2874 14-06-2016 05:00:00 13.55 C 97.0000 % 13.08 C
2875 14-06-2016 06:00:00 13.725 C 97.0000 % 13.26 C
Sensor: Nr:Datum:Temp:Feuchte:Taupunkt:
Aussen-T/F 2876 14-06-2016 07:00:00 14.39167 C 97.0000 % 13.92 C
2877 14-06-2016 08:00:00 14.76667 C 96.7500 % 14.26 C
2878 14-06-2016 09:00:00 15.55833 C 92.7500 % 14.39 C
2879 14-06-2016 10:00:00 16.98333 C 86.0000 % 14.63 C
2880 14-06-2016 11:00:00 18.03333 C 82.3333 % 14.98 C
2881 14-06-2016 12:00:00 19.025 C 76.2500 % 14.75 C
2882 14-06-2016 13:00:00 18.98333 C 77.5833 % 14.98 C
2883 14-06-2016 14:00:00 19.24167 C 75.7500 % 14.86 C
2884 14-06-2016 15:00:00 19.46667 C 75.1667 % 14.95 C
2885 14-06-2016 16:00:00 18.2 C 84.1667 % 15.48 C
2886 14-06-2016 17:00:00 18.93333 C 81.1667 % 15.63 C
2887 14-06-2016 18:00:00 18.75 C 78.4167 % 14.92 C
2888 14-06-2016 19:00:00 19.43333 C 78.0000 % 15.5 C
2889 14-06-2016 20:00:00 18.55833 C 80.0000 % 15.04 C
2890 14-06-2016 21:00:00 16.43333 C 87.9167 % 14.43 C
2891 14-06-2016 22:00:00 15.50833 C 90.0000 % 13.88 C
2892 14-06-2016 23:00:00 14.86667 C 91.9167 % 13.57 C
2893 15-06-2016 00:00:00 14.15833 C 92.5833 % 12.97 C
2894 15-06-2016 01:00:00 13.58333 C 93.0000 % 12.47 C
2895 15-06-2016 02:00:00 13.23333 C 93.9167 % 12.28 C
2896 15-06-2016 03:00:00 13.26667 C 94.0000 % 12.32 C
2897 15-06-2016 04:00:00 12.91667 C 94.0000 % 11.97 C
2898 15-06-2016 05:00:00 12.39167 C 94.3333 % 11.51 C
2899 15-06-2016 06:00:00 12.73333 C 95.2500 % 11.99 C
2900 15-06-2016 07:00:00 13.63333 C 95.2500 % 12.89 C
Sensor: Nr:Datum:Temp:Feuchte:Taupunkt:
Aussen-T/F 2901 15-06-2016 08:00:00 14.21667 C 94.0833 % 13.28 C
2902 15-06-2016 09:00:00 14.84167 C 92.9167 % 13.71 C
2903 15-06-2016 10:00:00 15.35833 C 90.5000 % 13.81 C
2904 15-06-2016 11:00:00 16.55833 C 84.0833 % 13.86 C
2905 15-06-2016 12:00:00 17.3 C 81.4167 % 14.09 C
2906 15-06-2016 13:00:00 16.98333 C 79.9167 % 13.49 C
2907 15-06-2016 14:00:00 17.6 C 79.0833 % 13.93 C
2908 15-06-2016 15:00:00 18.3 C 78.5833 % 14.51 C
2909 15-06-2016 16:00:00 18.05833 C 76.0000 % 13.76 C
2910 15-06-2016 17:00:00 19.56667 C 69.0833 % 13.75 C
2911 15-06-2016 18:00:00 20.95833 C 61.9167 % 13.38 C
2912 15-06-2016 19:00:00 18.14167 C 76.0000 % 13.85 C
2913 15-06-2016 20:00:00 15.79167 C 91.0833 % 14.34 C
2914 15-06-2016 21:00:00 14.73333 C 90.9167 % 13.27 C
2915 15-06-2016 22:00:00 13.36667 C 93.7500 % 12.38 C
2916 15-06-2016 23:00:00 12.49167 C 94.7500 % 11.67 C
2917 16-06-2016 00:00:00 11.875 C 95.0000 % 11.1 C
2918 16-06-2016 01:00:00 11.33333 C 95.4167 % 10.63 C
2919 16-06-2016 02:00:00 10.8 C 96.0000 % 10.19 C
2920 16-06-2016 03:00:00 10.69167 C 96.0000 % 10.08 C
2921 16-06-2016 04:00:00 10.925 C 96.3333 % 10.36 C
2922 16-06-2016 05:00:00 10.70833 C 96.6667 % 10.2 C
2923 16-06-2016 06:00:00 10.70833 C 96.8333 % 10.23 C
2924 16-06-2016 07:00:00 10.84167 C 97.0000 % 10.38 C
2925 16-06-2016 08:00:00 11.075 C 97.0000 % 10.62 C
Sensor: Nr:Datum:Temp:Feuchte:Taupunkt:
Aussen-T/F 2926 16-06-2016 09:00:00 11.90833 C 97.0000 % 11.45 C
2927 16-06-2016 10:00:00 12.86667 C 97.0000 % 12.4 C
2928 16-06-2016 11:00:00 14.05 C 96.5000 % 13.5 C
2929 16-06-2016 12:00:00 15.90833 C 91.1667 % 14.47 C
2930 16-06-2016 13:00:00 16.16667 C 90.9167 % 14.68 C
2931 16-06-2016 14:00:00 16.50833 C 90.0000 % 14.86 C
2932 16-06-2016 15:00:00 16.95833 C 89.4167 % 15.21 C
2933 16-06-2016 16:00:00 17.30833 C 87.5000 % 15.21 C
2934 16-06-2016 17:00:00 15.6 C 91.1667 % 14.16 C
2935 16-06-2016 18:00:00 15.25833 C 94.2500 % 14.34 C
2936 16-06-2016 19:00:00 17.48333 C 87.0000 % 15.3 C
2937 16-06-2016 20:00:00 17.25833 C 88.4167 % 15.33 C
2938 16-06-2016 21:00:00 16.18333 C 91.1667 % 14.74 C
2939 16-06-2016 22:00:00 14.33333 C 93.3333 % 13.27 C
2940 16-06-2016 23:00:00 13.8 C 95.0833 % 13.03 C
2941 17-06-2016 00:00:00 13.58333 C 96.0000 % 12.96 C
2942 17-06-2016 01:00:00 13.34167 C 96.0000 % 12.72 C
2943 17-06-2016 02:00:00 12.91667 C 96.0000 % 12.29 C
2944 17-06-2016 03:00:00 12.63333 C 96.0000 % 12.01 C
2945 17-06-2016 04:00:00 12.44167 C 96.0833 % 11.84 C
2946 17-06-2016 05:00:00 12.225 C 96.9167 % 11.75 C
2947 17-06-2016 06:00:00 12.16667 C 96.5833 % 11.64 C
2948 17-06-2016 07:00:00 12.34167 C 95.9167 % 11.71 C
2949 17-06-2016 08:00:00 12.79167 C 94.5833 % 11.94 C
2950 17-06-2016 09:00:00 14.04167 C 91.2500 % 12.64 C
Sensor: Nr:Datum:Temp:Feuchte:Taupunkt:
Aussen-T/F 2951 17-06-2016 10:00:00 15.38333 C 88.0833 % 13.42 C
2952 17-06-2016 11:00:00 16.18333 C 85.5833 % 13.77 C
2953 17-06-2016 12:00:00 16.99167 C 81.7500 % 13.85 C
2954 17-06-2016 13:00:00 18.05833 C 77.7500 % 14.12 C
2955 17-06-2016 14:00:00 18.26667 C 77.9167 % 14.35 C
2956 17-06-2016 15:00:00 16.675 C 85.5833 % 14.25 C
2957 17-06-2016 16:00:00 17.26667 C 86.6667 % 15.02 C
2958 17-06-2016 17:00:00 17.675 C 86.8333 % 15.45 C
2959 17-06-2016 18:00:00 17.84167 C 84.9167 % 15.27 C
2960 17-06-2016 19:00:00 15.44167 C 91.0000 % 13.98 C
2961 17-06-2016 20:00:00 14.95833 C 93.5000 % 13.92 C
2962 17-06-2016 21:00:00 14.325 C 94.5833 % 13.47 C
2963 17-06-2016 22:00:00 13 C 94.4167 % 12.12 C
2964 17-06-2016 23:00:00 11.98333 C 95.0000 % 11.21 C
2965 18-06-2016 00:00:00 11.65 C 95.9167 % 11.02 C
2966 18-06-2016 01:00:00 11.33333 C 96.0000 % 10.72 C
2967 18-06-2016 02:00:00 11 C 96.0000 % 10.39 C
2968 18-06-2016 03:00:00 10.76667 C 96.3333 % 10.21 C
2969 18-06-2016 04:00:00 10.79167 C 97.0000 % 10.34 C
2970 18-06-2016 05:00:00 10.95 C 97.0000 % 10.49 C
2971 18-06-2016 06:00:00 11.51667 C 97.0000 % 11.06 C
2972 18-06-2016 07:00:00 12.19167 C 97.0000 % 11.73 C
2973 18-06-2016 08:00:00 13.34167 C 97.0000 % 12.88 C
2974 18-06-2016 09:00:00 13.94167 C 96.5000 % 13.39 C
2975 18-06-2016 10:00:00 15.15 C 92.9167 % 14.01 C
Sensor: Nr:Datum:Temp:Feuchte:Taupunkt:
Aussen-T/F 2976 18-06-2016 11:00:00 16.10833 C 88.5000 % 14.21 C
2977 18-06-2016 12:00:00 16.85 C 84.0833 % 14.15 C
2978 18-06-2016 13:00:00 18.26667 C 78.0833 % 14.38 C
2979 18-06-2016 14:00:00 19.3 C 74.6667 % 14.69 C
2980 18-06-2016 15:00:00 19.90833 C 71.0833 % 14.51 C
2981 18-06-2016 16:00:00 20.375 C 66.9167 % 14.03 C
2982 18-06-2016 17:00:00 18.09167 C 76.0833 % 13.81 C
2983 18-06-2016 18:00:00 16.625 C 77.5833 % 12.69 C
2984 18-06-2016 19:00:00 17.60833 C 76.5000 % 13.43 C
2985 18-06-2016 20:00:00 16.54167 C 84.9167 % 14 C
2986 18-06-2016 21:00:00 15.30833 C 86.9167 % 13.14 C
2987 18-06-2016 22:00:00 14.79167 C 85.3333 % 12.36 C
2988 18-06-2016 23:00:00 13.95833 C 89.5833 % 12.28 C
2989 19-06-2016 00:00:00 13.625 C 89.0833 % 11.86 C
2990 19-06-2016 01:00:00 13.41667 C 89.0833 % 11.66 C
2991 19-06-2016 02:00:00 13.2 C 91.0000 % 11.76 C
2992 19-06-2016 03:00:00 13.2 C 89.5000 % 11.51 C
2993 19-06-2016 04:00:00 13.21667 C 88.3333 % 11.33 C
2994 19-06-2016 05:00:00 13.10833 C 89.7500 % 11.46 C
2995 19-06-2016 06:00:00 13.08333 C 90.4167 % 11.55 C
2996 19-06-2016 07:00:00 13.10833 C 92.1667 % 11.87 C
2997 19-06-2016 08:00:00 13.14167 C 90.7500 % 11.66 C
2998 19-06-2016 09:00:00 13.83333 C 86.7500 % 11.66 C
2999 19-06-2016 10:00:00 14.85 C 79.1667 % 11.28 C
3000 19-06-2016 11:00:00 15.2 C 76.5000 % 11.1 C
Sensor: Nr:Datum:Temp:Feuchte:Taupunkt:
Aussen-T/F 3001 19-06-2016 12:00:00 15.9 C 72.6667 % 11 C
3002 19-06-2016 13:00:00 16.375 C 70.5000 % 11 C
3003 19-06-2016 14:00:00 17.39167 C 65.0833 % 10.77 C
3004 19-06-2016 15:00:00 18.075 C 63.7500 % 11.11 C
3005 19-06-2016 16:00:00 19.225 C 57.4167 % 10.61 C
3006 19-06-2016 17:00:00 19.98333 C 54.0833 % 10.42 C
3007 19-06-2016 18:00:00 20.29167 C 50.9167 % 9.81 C
3008 19-06-2016 19:00:00 19.99167 C 50.2500 % 9.34 C
3009 19-06-2016 20:00:00 18.86667 C 52.0833 % 8.83 C
3010 19-06-2016 21:00:00 15.93333 C 68.7500 % 10.2 C
3011 19-06-2016 22:00:00 13.175 C 79.0000 % 9.62 C
3012 19-06-2016 23:00:00 11.475 C 86.1667 % 9.25 C
3013 20-06-2016 00:00:00 10.25833 C 89.5833 % 8.62 C
3014 20-06-2016 01:00:00 9.53333 C 91.5000 % 8.22 C
3015 20-06-2016 02:00:00 8.95833 C 92.5000 % 7.81 C
3016 20-06-2016 03:00:00 8.40833 C 93.5000 % 7.42 C
3017 20-06-2016 04:00:00 8.15 C 94.0000 % 7.24 C
3018 20-06-2016 05:00:00 7.75833 C 94.4167 % 6.92 C
3019 20-06-2016 06:00:00 7.85833 C 95.2500 % 7.15 C
3020 20-06-2016 07:00:00 8.5 C 96.0000 % 7.9 C
3021 20-06-2016 08:00:00 9.65 C 96.0000 % 9.04 C
3022 20-06-2016 09:00:00 12.16667 C 92.4167 % 10.97 C
3023 20-06-2016 10:00:00 15.66667 C 79.5833 % 12.15 C
3024 20-06-2016 11:00:00 18.425 C 59.8333 % 10.48 C
3025 20-06-2016 12:00:00 19.44167 C 59.1667 % 11.27 C
Sensor: Nr:Datum:Temp:Feuchte:Taupunkt:
Aussen-T/F 3026 20-06-2016 13:00:00 20.93333 C 57.2500 % 12.17 C
3027 20-06-2016 14:00:00 22.075 C 55.8333 % 12.85 C
3028 20-06-2016 15:00:00 22.3 C 56.6667 % 13.28 C
3029 20-06-2016 16:00:00 21.78333 C 60.4167 % 13.78 C
3030 20-06-2016 17:00:00 21.73333 C 62.3333 % 14.22 C
3031 20-06-2016 18:00:00 20.04167 C 72.2500 % 14.89 C
3032 20-06-2016 19:00:00 16.775 C 89.5000 % 15.04 C
3033 20-06-2016 20:00:00 15.79167 C 92.7500 % 14.62 C
3034 20-06-2016 21:00:00 15.04167 C 94.2500 % 14.12 C
3035 20-06-2016 22:00:00 14.825 C 95.0000 % 14.03 C
3036 20-06-2016 23:00:00 14.8 C 95.5000 % 14.09 C
3037 21-06-2016 00:00:00 15.075 C 95.6667 % 14.39 C
3038 21-06-2016 01:00:00 15.275 C 95.0000 % 14.48 C
3039 21-06-2016 02:00:00 15.25 C 95.2500 % 14.49 C
3040 21-06-2016 03:00:00 15.2 C 96.0000 % 14.57 C
3041 21-06-2016 04:00:00 15.2 C 96.0000 % 14.57 C
3042 21-06-2016 05:00:00 15.15 C 96.0000 % 14.52 C
3043 21-06-2016 06:00:00 14.99167 C 96.1667 % 14.39 C
3044 21-06-2016 07:00:00 15.45 C 96.7500 % 14.94 C
3045 21-06-2016 08:00:00 16.61667 C 94.6667 % 15.76 C
3046 21-06-2016 09:00:00 17.725 C 89.4167 % 15.96 C
3047 21-06-2016 10:00:00 18.45833 C 85.7500 % 16.03 C
3048 21-06-2016 11:00:00 19.525 C 81.6667 % 16.31 C
3049 21-06-2016 12:00:00 20.39167 C 78.8333 % 16.59 C
3050 21-06-2016 13:00:00 21.14167 C 76.4167 % 16.83 C
Sensor: Nr:Datum:Temp:Feuchte:Taupunkt:
Aussen-T/F 3051 21-06-2016 14:00:00 21.98333 C 72.5000 % 16.81 C
3052 21-06-2016 15:00:00 23.24167 C 69.0833 % 17.26 C
3053 21-06-2016 16:00:00 22.89167 C 77.0833 % 18.66 C
3054 21-06-2016 17:00:00 22.74167 C 77.4167 % 18.59 C
3055 21-06-2016 18:00:00 20.31667 C 86.8333 % 18.05 C
3056 21-06-2016 19:00:00 19.45833 C 90.9167 % 17.94 C
3057 21-06-2016 20:00:00 18.575 C 92.4167 % 17.32 C
3058 21-06-2016 21:00:00 17.825 C 93.7500 % 16.8 C
3059 21-06-2016 22:00:00 17.50833 C 94.8333 % 16.67 C
3060 21-06-2016 23:00:00 17.225 C 95.0000 % 16.42 C
3061 22-06-2016 00:00:00 17.04167 C 95.3333 % 16.29 C
3062 22-06-2016 01:00:00 16.925 C 96.0000 % 16.28 C
3063 22-06-2016 02:00:00 17.08333 C 96.0000 % 16.44 C
3064 22-06-2016 03:00:00 16.91667 C 96.0000 % 16.27 C
3065 22-06-2016 04:00:00 16.83333 C 96.0000 % 16.19 C
3066 22-06-2016 05:00:00 16.725 C 96.3333 % 16.14 C
3067 22-06-2016 06:00:00 17.05 C 97.0000 % 16.57 C
3068 22-06-2016 07:00:00 17.675 C 97.0000 % 17.19 C
3069 22-06-2016 08:00:00 18.53333 C 96.5000 % 17.97 C
3070 22-06-2016 09:00:00 19.85833 C 91.5833 % 18.45 C
3071 22-06-2016 10:00:00 21.01667 C 86.2500 % 18.63 C
3072 22-06-2016 11:00:00 22.1 C 82.3333 % 18.95 C
3073 22-06-2016 12:00:00 22.78333 C 83.0000 % 19.74 C
3074 22-06-2016 13:00:00 23.225 C 84.4167 % 20.45 C
3075 22-06-2016 14:00:00 23.98333 C 80.5000 % 20.42 C
Sensor: Nr:Datum:Temp:Feuchte:Taupunkt:
Aussen-T/F 3076 22-06-2016 15:00:00 24.99167 C 76.1667 % 20.5 C
3077 22-06-2016 16:00:00 25.025 C 78.7500 % 21.07 C
3078 22-06-2016 17:00:00 25.34167 C 80.0000 % 21.64 C
3079 22-06-2016 18:00:00 25.3 C 79.7500 % 21.55 C
3080 22-06-2016 19:00:00 26.125 C 74.4167 % 21.21 C
3081 22-06-2016 20:00:00 24.85 C 78.3333 % 20.82 C
3082 22-06-2016 21:00:00 22.03333 C 84.5000 % 19.3 C
3083 22-06-2016 22:00:00 20.08333 C 89.7500 % 18.35 C
3084 22-06-2016 23:00:00 18.85 C 92.0833 % 17.54 C
3085 23-06-2016 00:00:00 17.80833 C 93.8333 % 16.8 C
3086 23-06-2016 01:00:00 17.225 C 94.7500 % 16.38 C
3087 23-06-2016 02:00:00 16.66667 C 95.0833 % 15.88 C
3088 23-06-2016 03:00:00 16.06667 C 95.4167 % 15.33 C
3089 23-06-2016 04:00:00 15.60833 C 96.0000 % 14.97 C
3090 23-06-2016 05:00:00 15.29167 C 96.0000 % 14.66 C
3091 23-06-2016 06:00:00 15.74167 C 96.8333 % 15.24 C
3092 23-06-2016 07:00:00 16.4 C 97.0000 % 15.92 C
3093 23-06-2016 08:00:00 17.075 C 97.0000 % 16.59 C
3094 23-06-2016 09:00:00 18.38333 C 97.0000 % 17.9 C
3095 23-06-2016 10:00:00 21.39167 C 94.5833 % 20.49 C
3096 23-06-2016 11:00:00 24.84167 C 83.0000 % 21.75 C
3097 23-06-2016 12:00:00 27.01667 C 75.4167 % 22.29 C
3098 23-06-2016 13:00:00 28.53333 C 71.0833 % 22.78 C
3099 23-06-2016 14:00:00 30.13333 C 65.3333 % 22.91 C
3100 23-06-2016 15:00:00 31.575 C 62.1667 % 23.44 C
Sensor: Nr:Datum:Temp:Feuchte:Taupunkt:
Aussen-T/F 3101 23-06-2016 16:00:00 33.9 C 56.0833 % 23.9 C
3102 23-06-2016 17:00:00 34.68333 C 54.5000 % 24.15 C
3103 23-06-2016 18:00:00 34.73333 C 56.0833 % 24.68 C
3104 23-06-2016 19:00:00 33.60833 C 60.3333 % 24.85 C
3105 23-06-2016 20:00:00 30.175 C 70.2500 % 24.15 C
3106 23-06-2016 21:00:00 26.20833 C 79.0833 % 22.29 C
3107 23-06-2016 22:00:00 24.16667 C 83.5000 % 21.19 C
3108 23-06-2016 23:00:00 23.13333 C 86.2500 % 20.71 C
3109 24-06-2016 00:00:00 22.45833 C 88.9167 % 20.54 C
3110 24-06-2016 01:00:00 22.89167 C 85.0000 % 20.23 C
3111 24-06-2016 02:00:00 21.75 C 87.3333 % 19.55 C
3112 24-06-2016 03:00:00 20.725 C 89.9167 % 19.01 C
3113 24-06-2016 04:00:00 19.76667 C 92.4167 % 18.5 C
3114 24-06-2016 05:00:00 19.35 C 93.5833 % 18.29 C
3115 24-06-2016 06:00:00 19.175 C 94.0833 % 18.2 C
3116 24-06-2016 07:00:00 19.45 C 94.9167 % 18.61 C
3117 24-06-2016 08:00:00 20.425 C 94.9167 % 19.58 C
3118 24-06-2016 09:00:00 21.91667 C 93.2500 % 20.78 C
3119 24-06-2016 10:00:00 25.375 C 82.8333 % 22.24 C
3120 24-06-2016 11:00:00 26.68333 C 80.9167 % 23.13 C
3121 24-06-2016 12:00:00 25.725 C 79.1667 % 21.84 C
3122 24-06-2016 13:00:00 23.075 C 91.2500 % 21.57 C
3123 24-06-2016 14:00:00 23.45 C 91.7500 % 22.03 C
3124 24-06-2016 15:00:00 23.95833 C 83.3333 % 20.96 C
3125 24-06-2016 16:00:00 22.89167 C 89.6667 % 21.1 C
Sensor: Nr:Datum:Temp:Feuchte:Taupunkt:
Aussen-T/F 3126 24-06-2016 17:00:00 22.90833 C 92.5833 % 21.64 C
3127 24-06-2016 18:00:00 23.35833 C 91.9167 % 21.97 C
3128 24-06-2016 19:00:00 22.56667 C 93.3333 % 21.43 C
3129 24-06-2016 20:00:00 21.74167 C 94.1667 % 20.76 C
3130 24-06-2016 21:00:00 21.03333 C 95.0000 % 20.2 C
3131 24-06-2016 22:00:00 20.29167 C 95.4167 % 19.53 C
3132 24-06-2016 23:00:00 19.90833 C 95.9167 % 19.24 C
3133 25-06-2016 00:00:00 19.525 C 96.0000 % 18.87 C
3134 25-06-2016 01:00:00 19.175 C 96.0000 % 18.52 C
3135 25-06-2016 02:00:00 19.14167 C 96.0000 % 18.49 C
3136 25-06-2016 03:00:00 19.2 C 96.0000 % 18.55 C
3137 25-06-2016 04:00:00 19.06667 C 96.0000 % 18.41 C
3138 25-06-2016 05:00:00 18.91667 C 96.0000 % 18.26 C
3139 25-06-2016 06:00:00 18.625 C 96.0000 % 17.97 C
3140 25-06-2016 07:00:00 18.375 C 96.5000 % 17.81 C
3141 25-06-2016 08:00:00 18.35 C 96.8333 % 17.84 C
3142 25-06-2016 09:00:00 17.66667 C 96.4167 % 17.09 C
3143 25-06-2016 10:00:00 17.6 C 96.3333 % 17.01 C
3144 25-06-2016 11:00:00 17.01667 C 96.0000 % 16.37 C
3145 25-06-2016 12:00:00 16.66667 C 96.0000 % 16.03 C
3146 25-06-2016 13:00:00 16.21667 C 95.9167 % 15.56 C
3147 25-06-2016 14:00:00 15.94167 C 96.0000 % 15.3 C
3148 25-06-2016 15:00:00 15.79167 C 95.8333 % 15.13 C
3149 25-06-2016 16:00:00 15.48333 C 95.5000 % 14.77 C
3150 25-06-2016 17:00:00 15.45833 C 95.6667 % 14.77 C
Sensor: Nr:Datum:Temp:Feuchte:Taupunkt:
Aussen-T/F 3151 25-06-2016 18:00:00 15.675 C 95.0000 % 14.88 C
3152 25-06-2016 19:00:00 15.23333 C 95.0000 % 14.44 C
3153 25-06-2016 20:00:00 15.10833 C 96.0000 % 14.48 C
3154 25-06-2016 21:00:00 14.225 C 95.4167 % 13.5 C
3155 25-06-2016 22:00:00 13.28333 C 95.9167 % 12.65 C
3156 25-06-2016 23:00:00 12.76667 C 96.0000 % 12.15 C
3157 26-06-2016 00:00:00 12.6 C 96.7500 % 12.1 C
3158 26-06-2016 01:00:00 13.35833 C 97.0000 % 12.89 C
3159 26-06-2016 02:00:00 13.05 C 97.0000 % 12.59 C
3160 26-06-2016 03:00:00 12.75 C 97.0000 % 12.29 C
3161 26-06-2016 04:00:00 12.175 C 97.0000 % 11.71 C
3162 26-06-2016 05:00:00 11.40833 C 97.0000 % 10.95 C
3163 26-06-2016 06:00:00 11.44167 C 97.0000 % 10.98 C
3164 26-06-2016 07:00:00 12.29167 C 97.5833 % 11.92 C
3165 26-06-2016 08:00:00 13.05833 C 97.2500 % 12.63 C
3166 26-06-2016 09:00:00 13.95 C 94.6667 % 13.11 C
3167 26-06-2016 10:00:00 16.13333 C 85.0000 % 13.61 C
3168 26-06-2016 11:00:00 17.075 C 77.2500 % 13.06 C
3169 26-06-2016 12:00:00 17.90833 C 73.0000 % 13 C
3170 26-06-2016 13:00:00 19.31667 C 67.3333 % 13.11 C
3171 26-06-2016 14:00:00 19.7 C 67.5000 % 13.52 C
3172 26-06-2016 15:00:00 20.48333 C 65.6667 % 13.84 C
3173 26-06-2016 16:00:00 20.675 C 64.2500 % 13.69 C
3174 26-06-2016 17:00:00 19.44167 C 66.7500 % 13.1 C
3175 26-06-2016 18:00:00 18.675 C 73.5833 % 13.86 C
Sensor: Nr:Datum:Temp:Feuchte:Taupunkt:
Aussen-T/F 3176 26-06-2016 19:00:00 17.79167 C 75.9167 % 13.49 C
3177 26-06-2016 20:00:00 16.025 C 87.2500 % 13.91 C
3178 26-06-2016 21:00:00 14.75 C 90.6667 % 13.24 C
3179 26-06-2016 22:00:00 13.3 C 92.4167 % 12.1 C
3180 26-06-2016 23:00:00 12.61667 C 94.4167 % 11.74 C
3181 27-06-2016 00:00:00 12.34167 C 95.0000 % 11.56 C
3182 27-06-2016 01:00:00 12.15 C 95.0833 % 11.39 C
3183 27-06-2016 02:00:00 11.875 C 95.5833 % 11.19 C
3184 27-06-2016 03:00:00 12.25833 C 96.0000 % 11.64 C
3185 27-06-2016 04:00:00 12.18333 C 95.6667 % 11.51 C
3186 27-06-2016 05:00:00 11.99167 C 95.1667 % 11.24 C
3187 27-06-2016 06:00:00 11.53333 C 95.0000 % 10.76 C
3188 27-06-2016 07:00:00 11.68333 C 95.8333 % 11.04 C
3189 27-06-2016 08:00:00 13.58333 C 93.3333 % 12.53 C
3190 27-06-2016 09:00:00 15.74167 C 82.7500 % 12.82 C
3191 27-06-2016 10:00:00 16.85 C 79.9167 % 13.36 C
3192 27-06-2016 11:00:00 17.26667 C 79.6667 % 13.72 C
3193 27-06-2016 12:00:00 17.64167 C 80.1667 % 14.18 C
3194 27-06-2016 13:00:00 18.29167 C 78.4167 % 14.47 C
3195 27-06-2016 14:00:00 18.78333 C 78.3333 % 14.93 C
3196 27-06-2016 15:00:00 18.91667 C 79.0000 % 15.2 C
3197 27-06-2016 16:00:00 18.95 C 79.5000 % 15.33 C
3198 27-06-2016 17:00:00 19.59167 C 78.7500 % 15.8 C
3199 27-06-2016 18:00:00 20.31667 C 76.9167 % 16.14 C
3200 27-06-2016 19:00:00 20.075 C 77.8333 % 16.09 C
Sensor: Nr:Datum:Temp:Feuchte:Taupunkt:
Aussen-T/F 3201 27-06-2016 20:00:00 18.775 C 83.1667 % 15.86 C
3202 27-06-2016 21:00:00 17.7 C 86.8333 % 15.48 C
3203 27-06-2016 22:00:00 17.13333 C 91.0833 % 15.67 C
3204 27-06-2016 23:00:00 16.34167 C 93.5833 % 15.3 C
3205 28-06-2016 00:00:00 15.96667 C 94.8333 % 15.14 C
3206 28-06-2016 01:00:00 15.86667 C 95.0000 % 15.07 C
3207 28-06-2016 02:00:00 15.43333 C 95.9167 % 14.79 C
3208 28-06-2016 03:00:00 14.90833 C 96.0000 % 14.28 C
3209 28-06-2016 04:00:00 14.18333 C 96.0000 % 13.55 C
3210 28-06-2016 05:00:00 14.55833 C 96.2500 % 13.97 C
3211 28-06-2016 06:00:00 14.81667 C 96.5833 % 14.28 C
3212 28-06-2016 07:00:00 15.28333 C 97.0000 % 14.81 C
3213 28-06-2016 08:00:00 15.725 C 96.6667 % 15.2 C
3214 28-06-2016 09:00:00 16.48333 C 95.5000 % 15.76 C
3215 28-06-2016 10:00:00 17.69167 C 90.9167 % 16.19 C
3216 28-06-2016 11:00:00 19.05 C 83.0833 % 16.11 C
3217 28-06-2016 12:00:00 20.38333 C 76.2500 % 16.06 C
3218 28-06-2016 13:00:00 21.175 C 71.2500 % 15.76 C
3219 28-06-2016 14:00:00 21.41667 C 67.4167 % 15.13 C
3220 28-06-2016 15:00:00 22.325 C 61.5833 % 14.59 C
3221 28-06-2016 16:00:00 23.30833 C 59.0000 % 14.85 C
3222 28-06-2016 17:00:00 22.9 C 65.3333 % 16.05 C
3223 28-06-2016 18:00:00 23.06667 C 65.3333 % 16.21 C
3224 28-06-2016 19:00:00 21.775 C 74.2500 % 16.99 C
3225 28-06-2016 20:00:00 19.36667 C 83.3333 % 16.47 C
Sensor: Nr:Datum:Temp:Feuchte:Taupunkt:
Aussen-T/F 3226 28-06-2016 21:00:00 18.13333 C 87.1667 % 15.97 C
3227 28-06-2016 22:00:00 17.29167 C 89.3333 % 15.52 C
3228 28-06-2016 23:00:00 17.275 C 90.7500 % 15.75 C
3229 29-06-2016 00:00:00 17.03333 C 91.1667 % 15.58 C
3230 29-06-2016 01:00:00 17.08333 C 90.7500 % 15.56 C
3231 29-06-2016 02:00:00 16.86667 C 91.4167 % 15.46 C
3232 29-06-2016 03:00:00 16.70833 C 91.8333 % 15.37 C
3233 29-06-2016 04:00:00 16.84167 C 90.8333 % 15.34 C
3234 29-06-2016 05:00:00 17.08333 C 89.2500 % 15.3 C
3235 29-06-2016 06:00:00 17.5 C 85.5000 % 15.04 C
3236 29-06-2016 07:00:00 17.85 C 83.5833 % 15.03 C
3237 29-06-2016 08:00:00 18.325 C 81.0833 % 15.02 C
3238 29-06-2016 09:00:00 19.08333 C 72.3333 % 13.99 C
3239 29-06-2016 10:00:00 19.575 C 68.1667 % 13.55 C
3240 29-06-2016 11:00:00 20.16667 C 62.1667 % 12.7 C
3241 29-06-2016 12:00:00 20.275 C 60.4167 % 12.37 C
3242 29-06-2016 13:00:00 20.725 C 55.1667 % 11.41 C
3243 29-06-2016 14:00:00 21.54167 C 56.4167 % 12.51 C
3244 29-06-2016 15:00:00 23 C 51.5833 % 12.5 C
3245 29-06-2016 16:00:00 22.74167 C 51.0833 % 12.11 C
3246 29-06-2016 17:00:00 23.46667 C 51.8333 % 13 C
3247 29-06-2016 18:00:00 23.01667 C 61.5833 % 15.24 C
3248 29-06-2016 19:00:00 20.10833 C 73.2500 % 15.17 C
3249 29-06-2016 20:00:00 18.46667 C 78.5833 % 14.68 C
3250 29-06-2016 21:00:00 17.28333 C 81.1667 % 14.03 C
Sensor: Nr:Datum:Temp:Feuchte:Taupunkt:
Aussen-T/F 3251 29-06-2016 22:00:00 16.48333 C 84.0833 % 13.79 C
3252 29-06-2016 23:00:00 15.84167 C 86.0000 % 13.51 C
3253 30-06-2016 00:00:00 15.68333 C 87.2500 % 13.57 C
3254 30-06-2016 01:00:00 15.575 C 88.2500 % 13.64 C
3255 30-06-2016 02:00:00 15.725 C 88.0833 % 13.76 C
3256 30-06-2016 03:00:00 15.875 C 87.8333 % 13.86 C
3257 30-06-2016 04:00:00 15.9 C 87.9167 % 13.9 C
3258 30-06-2016 05:00:00 15.85 C 89.5833 % 14.14 C
3259 30-06-2016 06:00:00 15.88333 C 91.1667 % 14.44 C
3260 30-06-2016 07:00:00 16.34167 C 92.5833 % 15.14 C
3261 30-06-2016 08:00:00 17.30833 C 89.6667 % 15.59 C
3262 30-06-2016 09:00:00 18.4 C 81.0833 % 15.1 C
3263 30-06-2016 10:00:00 19.45 C 74.6667 % 14.84 C
3264 30-06-2016 11:00:00 20.45833 C 70.8333 % 14.99 C
3265 30-06-2016 12:00:00 21.175 C 70.7500 % 15.65 C
3266 30-06-2016 13:00:00 21.30833 C 69.5833 % 15.52 C
3267 30-06-2016 14:00:00 21.26667 C 72.5000 % 16.12 C
3268 30-06-2016 15:00:00 22.00833 C 68.9167 % 16.04 C
3269 30-06-2016 16:00:00 21.66667 C 71.6667 % 16.33 C
3270 30-06-2016 17:00:00 22.475 C 69.1667 % 16.54 C
3271 30-06-2016 18:00:00 21.975 C 70.5000 % 16.36 C
3272 30-06-2016 19:00:00 21.6 C 76.7500 % 17.34 C
3273 30-06-2016 20:00:00 20.40833 C 79.9167 % 16.83 C
3274 30-06-2016 21:00:00 19.13333 C 83.7500 % 16.32 C
3275 30-06-2016 22:00:00 17.84167 C 87.1667 % 15.68 C
Sensor: Nr:Datum:Temp:Feuchte:Taupunkt:
Aussen-T/F 3276 30-06-2016 23:00:00 16.85 C 90.2500 % 15.24 C
3277 01-07-2016 00:00:00 16.825 C 91.7500 % 15.48 C
3278 01-07-2016 01:00:00 16.86667 C 92.0000 % 15.56 C
3279 01-07-2016 02:00:00 16.98333 C 92.0000 % 15.67 C
3280 01-07-2016 03:00:00 16.65833 C 92.3333 % 15.41 C
3281 01-07-2016 04:00:00 16.55 C 93.0833 % 15.43 C
3282 01-07-2016 05:00:00 16.81667 C 93.0833 % 15.69 C
3283 01-07-2016 06:00:00 17.75833 C 89.6667 % 16.04 C
3284 01-07-2016 07:00:00 18.45833 C 87.4167 % 16.33 C
3285 01-07-2016 08:00:00 19.25 C 86.0000 % 16.85 C
3286 01-07-2016 09:00:00 19.95 C 84.7500 % 17.31 C
3287 01-07-2016 10:00:00 21.15 C 78.7500 % 17.31 C
3288 01-07-2016 11:00:00 22.13333 C 73.2500 % 17.12 C
3289 01-07-2016 12:00:00 22.075 C 70.5000 % 16.46 C
3290 01-07-2016 13:00:00 22.125 C 70.9167 % 16.6 C
3291 01-07-2016 14:00:00 22.55833 C 69.1667 % 16.62 C
3292 01-07-2016 15:00:00 22.625 C 67.5000 % 16.3 C
3293 01-07-2016 16:00:00 23.96667 C 64.7500 % 16.92 C
3294 01-07-2016 17:00:00 22.75 C 68.5000 % 16.65 C
3295 01-07-2016 18:00:00 21.93333 C 73.0000 % 16.87 C
3296 01-07-2016 19:00:00 22.75 C 71.0000 % 17.22 C
3297 01-07-2016 20:00:00 21.93333 C 75.0000 % 17.3 C
3298 01-07-2016 21:00:00 19.40833 C 82.7500 % 16.4 C
3299 01-07-2016 22:00:00 17.99167 C 87.7500 % 15.93 C
3300 01-07-2016 23:00:00 17.65 C 90.4167 % 16.06 C
Sensor: Nr:Datum:Temp:Feuchte:Taupunkt:
Aussen-T/F 3301 02-07-2016 00:00:00 17.88333 C 91.0000 % 16.39 C
3302 02-07-2016 01:00:00 17.50833 C 91.1667 % 16.05 C
3303 02-07-2016 02:00:00 17.86667 C 90.4167 % 16.28 C
3304 02-07-2016 03:00:00 18.65833 C 85.7500 % 16.22 C
3305 02-07-2016 04:00:00 18.39167 C 86.5000 % 16.1 C
3306 02-07-2016 05:00:00 18.06667 C 84.4167 % 15.4 C
3307 02-07-2016 06:00:00 15.65 C 90.8333 % 14.16 C
3308 02-07-2016 07:00:00 14.75 C 90.6667 % 13.24 C
3309 02-07-2016 08:00:00 14.24167 C 88.5833 % 12.38 C
3310 02-07-2016 09:00:00 14.31667 C 89.4167 % 12.6 C
3311 02-07-2016 10:00:00 14.65 C 87.9167 % 12.67 C
3312 02-07-2016 11:00:00 15.60833 C 83.5833 % 12.84 C
3313 02-07-2016 12:00:00 16.5 C 79.1667 % 12.88 C
3314 02-07-2016 13:00:00 17.86667 C 71.8333 % 12.72 C
3315 02-07-2016 14:00:00 18.65833 C 70.1667 % 13.12 C
3316 02-07-2016 15:00:00 20.15833 C 61.2500 % 12.47 C
3317 02-07-2016 16:00:00 21.08333 C 46.4167 % 9.16 C
3318 02-07-2016 17:00:00 19.30833 C 57.0833 % 10.61 C
3319 02-07-2016 18:00:00 18.925 C 56.8333 % 10.18 C
3320 02-07-2016 19:00:00 17.83333 C 63.5833 % 10.84 C
3321 02-07-2016 20:00:00 16.63333 C 70.5833 % 11.27 C
3322 02-07-2016 21:00:00 15.125 C 79.4167 % 11.59 C
3323 02-07-2016 22:00:00 13.21667 C 84.8333 % 10.72 C
3324 02-07-2016 23:00:00 12.90833 C 87.0000 % 10.8 C
3325 03-07-2016 00:00:00 12.46667 C 88.7500 % 10.66 C
Sensor: Nr:Datum:Temp:Feuchte:Taupunkt:
Aussen-T/F 3326 03-07-2016 01:00:00 11.76667 C 91.0833 % 10.36 C
3327 03-07-2016 02:00:00 12.24167 C 88.3333 % 10.37 C
3328 03-07-2016 03:00:00 11.91111 C 89.1111 % 10.18 C
3329 03-07-2016 04:00:00 11.9 C 89.8571 % 10.29 C
3330 03-07-2016 05:00:00 11.71667 C 90.8333 % 10.27 C
3331 03-07-2016 06:00:00 11.75833 C 92.0000 % 10.5 C
3332 03-07-2016 07:00:00 12.6 C 90.4167 % 11.07 C
3333 03-07-2016 08:00:00 13.71667 C 86.5000 % 11.51 C
3334 03-07-2016 09:00:00 16.33 C 78.0000 % 12.49 C
3335 03-07-2016 10:00:00 17.48 C 74.3000 % 12.86 C
3336 03-07-2016 12:00:00 15.80909 C 87.0909 % 13.67 C
3337 03-07-2016 13:00:00 16.66667 C 82.7500 % 13.72 C
3338 03-07-2016 14:00:00 15.34167 C 82.1667 % 12.32 C
3339 03-07-2016 15:00:00 16.225 C 89.3333 % 14.47 C
3340 03-07-2016 16:00:00 20.21667 C 73.2500 % 15.28 C
3341 03-07-2016 17:00:00 19.31667 C 69.0833 % 13.51 C
3342 03-07-2016 18:00:00 19.08333 C 72.1667 % 13.96 C
3343 03-07-2016 19:00:00 19.075 C 73.4167 % 14.21 C
3344 03-07-2016 20:00:00 17.35833 C 80.5000 % 13.97 C
3345 03-07-2016 21:00:00 15.75 C 82.0000 % 12.69 C
3346 03-07-2016 22:00:00 15.16667 C 84.9167 % 12.65 C
3347 03-07-2016 23:00:00 14.46667 C 87.5000 % 12.42 C
3348 04-07-2016 00:00:00 13.06667 C 89.1667 % 11.32 C
3349 04-07-2016 01:00:00 11.85 C 92.0833 % 10.61 C
3350 04-07-2016 02:00:00 11.70833 C 93.6667 % 10.72 C
Sensor: Nr:Datum:Temp:Feuchte:Taupunkt:
Aussen-T/F 3351 04-07-2016 03:00:00 12.19167 C 93.0833 % 11.11 C
3352 04-07-2016 04:00:00 12.06667 C 93.5000 % 11.05 C
3353 04-07-2016 05:00:00 12.21667 C 94.0000 % 11.28 C
3354 04-07-2016 06:00:00 12.5 C 94.0000 % 11.56 C
3355 04-07-2016 07:00:00 13.375 C 92.4167 % 12.17 C
3356 04-07-2016 08:00:00 14.74167 C 89.2500 % 12.99 C
3357 04-07-2016 09:00:00 16.49167 C 85.3333 % 14.02 C
3358 04-07-2016 10:00:00 18.34167 C 77.4167 % 14.32 C
3359 04-07-2016 11:00:00 19.1 C 77.4167 % 15.06 C
3360 04-07-2016 12:00:00 18.28333 C 83.7500 % 15.49 C
3361 04-07-2016 13:00:00 19.05 C 81.5833 % 15.83 C
3362 04-07-2016 14:00:00 20.05 C 77.1667 % 15.93 C
3363 04-07-2016 15:00:00 20.80833 C 74.9167 % 16.2 C
3364 04-07-2016 16:00:00 21.25 C 75.5000 % 16.75 C
3365 04-07-2016 17:00:00 23.25833 C 67.7500 % 16.96 C
3366 04-07-2016 18:00:00 24.73333 C 62.7500 % 17.15 C
3367 04-07-2016 19:00:00 23.875 C 66.3333 % 17.22 C
3368 04-07-2016 20:00:00 22.40833 C 74.0833 % 17.56 C
3369 04-07-2016 21:00:00 20.11667 C 80.4167 % 16.64 C
3370 04-07-2016 22:00:00 18.69167 C 86.1667 % 16.33 C
3371 04-07-2016 23:00:00 18.225 C 88.3333 % 16.26 C
3372 05-07-2016 00:00:00 17.85 C 89.9167 % 16.17 C
3373 05-07-2016 01:00:00 17.65 C 90.8333 % 16.13 C
3374 05-07-2016 02:00:00 17.58333 C 91.0000 % 16.1 C
3375 05-07-2016 03:00:00 17.33333 C 91.0000 % 15.85 C
Sensor: Nr:Datum:Temp:Feuchte:Taupunkt:
Aussen-T/F 3376 05-07-2016 04:00:00 17.28333 C 91.0000 % 15.8 C
3377 05-07-2016 05:00:00 16.91667 C 91.5833 % 15.54 C
3378 05-07-2016 06:00:00 16.90833 C 92.5833 % 15.7 C
3379 05-07-2016 07:00:00 17.56667 C 91.0833 % 16.09 C
3380 05-07-2016 08:00:00 18.5 C 86.6667 % 16.24 C
3381 05-07-2016 09:00:00 19.45 C 81.6667 % 16.23 C
3382 05-07-2016 10:00:00 20.48333 C 75.0000 % 15.9 C
3383 05-07-2016 11:00:00 20.70833 C 69.3333 % 14.89 C
3384 05-07-2016 12:00:00 20.88333 C 69.5000 % 15.1 C
3385 05-07-2016 13:00:00 21.15 C 71.5833 % 15.81 C
3386 05-07-2016 14:00:00 21.175 C 72.1667 % 15.96 C
3387 05-07-2016 15:00:00 22.44167 C 68.3333 % 16.32 C
3388 05-07-2016 16:00:00 21.8 C 73.7500 % 16.91 C
3389 05-07-2016 17:00:00 22.08333 C 66.5833 % 15.57 C
3390 05-07-2016 18:00:00 21.05833 C 67.7500 % 14.87 C
3391 05-07-2016 19:00:00 22.05 C 64.4167 % 15.03 C
3392 05-07-2016 20:00:00 21.3 C 60.1667 % 13.27 C
3393 05-07-2016 21:00:00 19.525 C 68.3333 % 13.54 C
3394 05-07-2016 22:00:00 17.625 C 74.7500 % 13.09 C
3395 05-07-2016 23:00:00 16.49167 C 77.7500 % 12.6 C
3396 06-07-2016 00:00:00 15.43333 C 78.7500 % 11.76 C
3397 06-07-2016 01:00:00 13.9 C 84.2500 % 11.29 C
3398 06-07-2016 02:00:00 12.85 C 87.0000 % 10.74 C
3399 06-07-2016 03:00:00 12.075 C 88.9167 % 10.31 C
3400 06-07-2016 04:00:00 11.06667 C 91.0833 % 9.67 C
Sensor: Nr:Datum:Temp:Feuchte:Taupunkt:
Aussen-T/F 3401 06-07-2016 05:00:00 10.675 C 92.0000 % 9.43 C
3402 06-07-2016 06:00:00 10.60833 C 92.1667 % 9.39 C
3403 06-07-2016 07:00:00 11.10833 C 92.7500 % 9.98 C
3404 06-07-2016 08:00:00 13.075 C 87.0000 % 10.96 C
3405 06-07-2016 09:00:00 15.1 C 78.8333 % 11.46 C
3406 06-07-2016 10:00:00 17.10833 C 73.3333 % 12.3 C
3407 06-07-2016 11:00:00 17.66667 C 73.0833 % 12.79 C
3408 06-07-2016 12:00:00 18.28333 C 71.1667 % 12.97 C
3409 06-07-2016 13:00:00 19.34167 C 67.6667 % 13.21 C
3410 06-07-2016 14:00:00 19.8 C 66.4167 % 13.36 C
3411 06-07-2016 15:00:00 20.81667 C 61.9167 % 13.25 C
3412 06-07-2016 16:00:00 22.2 C 52.1667 % 11.93 C
3413 06-07-2016 17:00:00 22.975 C 46.5000 % 10.9 C
3414 06-07-2016 18:00:00 23.03333 C 48.0833 % 11.46 C
3415 06-07-2016 19:00:00 22.23333 C 52.4167 % 12.03 C
3416 06-07-2016 20:00:00 20.69167 C 58.9167 % 12.38 C
3417 06-07-2016 21:00:00 18.05 C 70.9167 % 12.7 C
3418 06-07-2016 22:00:00 15.79167 C 78.6667 % 12.1 C
3419 06-07-2016 23:00:00 14.76667 C 82.2500 % 11.77 C
3420 07-07-2016 00:00:00 13.3 C 86.4167 % 11.08 C
3421 07-07-2016 01:00:00 12.56667 C 89.2500 % 10.85 C
3422 07-07-2016 02:00:00 12.06667 C 91.4167 % 10.71 C
3423 07-07-2016 03:00:00 11.425 C 92.5000 % 10.25 C
3424 07-07-2016 04:00:00 11.13333 C 93.3333 % 10.1 C
3425 07-07-2016 05:00:00 10.775 C 94.0000 % 9.85 C
Sensor: Nr:Datum:Temp:Feuchte:Taupunkt:
Aussen-T/F 3426 07-07-2016 06:00:00 10.75 C 94.5000 % 9.9 C
3427 07-07-2016 07:00:00 11.05833 C 94.7500 % 10.25 C
3428 07-07-2016 08:00:00 12.05833 C 95.0000 % 11.28 C
3429 07-07-2016 09:00:00 13.5 C 93.5833 % 12.49 C
3430 07-07-2016 10:00:00 16.19167 C 85.4167 % 13.74 C
3431 07-07-2016 11:00:00 18.5 C 74.2500 % 13.83 C
3432 07-07-2016 12:00:00 19.55 C 63.7500 % 12.5 C
3433 07-07-2016 13:00:00 20.69167 C 53.2500 % 10.85 C
3434 07-07-2016 14:00:00 22.60833 C 49.3333 % 11.46 C
3435 07-07-2016 15:00:00 23.85833 C 48.9167 % 12.48 C
3436 07-07-2016 16:00:00 24.9 C 53.1667 % 14.71 C
3437 07-07-2016 17:00:00 24.8 C 62.7500 % 17.21 C
3438 07-07-2016 18:00:00 23.64167 C 67.5833 % 17.29 C
3439 07-07-2016 19:00:00 23.55 C 66.8333 % 17.03 C
3440 07-07-2016 20:00:00 20.89167 C 74.0833 % 16.1 C
3441 07-07-2016 21:00:00 19.125 C 76.7500 % 14.95 C
3442 07-07-2016 22:00:00 17.28333 C 81.8333 % 14.15 C
3443 07-07-2016 23:00:00 15.83333 C 86.4167 % 13.57 C
3444 08-07-2016 00:00:00 14.74167 C 88.4167 % 12.85 C
3445 08-07-2016 01:00:00 13.96667 C 89.3333 % 12.24 C
3446 08-07-2016 02:00:00 13.84167 C 91.0833 % 12.41 C
3447 08-07-2016 03:00:00 13.06667 C 92.0000 % 11.8 C
3448 08-07-2016 04:00:00 12.825 C 93.1667 % 11.75 C
3449 08-07-2016 05:00:00 12.6 C 93.4167 % 11.57 C
3450 08-07-2016 06:00:00 12.80833 C 94.2500 % 11.91 C
Sensor: Nr:Datum:Temp:Feuchte:Taupunkt:
Aussen-T/F 3451 08-07-2016 07:00:00 13.125 C 94.0000 % 12.18 C
3452 08-07-2016 08:00:00 14.36667 C 93.5000 % 13.33 C
3453 08-07-2016 09:00:00 16.15 C 91.0000 % 14.68 C
3454 08-07-2016 10:00:00 19.03333 C 87.0833 % 16.83 C
3455 08-07-2016 11:00:00 22.44167 C 70.3333 % 16.77 C
3456 08-07-2016 12:00:00 24.03333 C 64.4167 % 16.9 C
3457 08-07-2016 13:00:00 25.25 C 63.4167 % 17.81 C
3458 08-07-2016 14:00:00 25.88333 C 58.8333 % 17.21 C
3459 08-07-2016 15:00:00 24.41667 C 65.0833 % 17.43 C
3460 08-07-2016 16:00:00 23.51667 C 67.3333 % 17.11 C
3461 08-07-2016 17:00:00 23.61667 C 70.7500 % 17.99 C
3462 08-07-2016 18:00:00 22.25833 C 76.3333 % 17.89 C
3463 08-07-2016 19:00:00 22.26667 C 77.7500 % 18.19 C
3464 08-07-2016 20:00:00 22.1 C 78.0000 % 18.08 C
3465 08-07-2016 21:00:00 21.35 C 76.9167 % 17.14 C
3466 08-07-2016 22:00:00 20.05 C 79.1667 % 16.33 C
3467 08-07-2016 23:00:00 19.225 C 81.9167 % 16.06 C
3468 09-07-2016 00:00:00 18.475 C 84.0000 % 15.72 C
3469 09-07-2016 01:00:00 17.85833 C 85.4167 % 15.38 C
3470 09-07-2016 02:00:00 17.425 C 86.5833 % 15.16 C
3471 09-07-2016 03:00:00 17.325 C 86.0833 % 14.98 C
3472 09-07-2016 04:00:00 17.275 C 85.8333 % 14.88 C
3473 09-07-2016 05:00:00 17.2 C 86.5833 % 14.94 C
3474 09-07-2016 06:00:00 17.39167 C 87.2500 % 15.25 C
3475 09-07-2016 07:00:00 18.09167 C 84.7500 % 15.48 C
Sensor: Nr:Datum:Temp:Feuchte:Taupunkt:
Aussen-T/F 3476 09-07-2016 08:00:00 18.775 C 84.2500 % 16.06 C
3477 09-07-2016 09:00:00 19.98333 C 78.8333 % 16.2 C
3478 09-07-2016 10:00:00 21.1 C 74.1667 % 16.32 C
3479 09-07-2016 11:00:00 21.81667 C 71.5000 % 16.43 C
3480 09-07-2016 12:00:00 22.55 C 68.5833 % 16.48 C
3481 09-07-2016 13:00:00 23.41667 C 66.2500 % 16.76 C
3482 09-07-2016 14:00:00 24.11667 C 64.5000 % 17 C
3483 09-07-2016 15:00:00 25.825 C 59.0000 % 17.2 C
3484 09-07-2016 16:00:00 25.59167 C 64.5833 % 18.42 C
3485 09-07-2016 17:00:00 26.31667 C 62.0833 % 18.47 C
3486 09-07-2016 18:00:00 26.23333 C 66.7500 % 19.56 C
3487 09-07-2016 19:00:00 24.73333 C 71.0833 % 19.14 C
3488 09-07-2016 20:00:00 24.31667 C 71.5000 % 18.83 C
3489 09-07-2016 21:00:00 21.74167 C 76.0833 % 17.34 C
3490 09-07-2016 22:00:00 19.875 C 80.7500 % 16.47 C
3491 09-07-2016 23:00:00 18.7 C 84.2500 % 15.99 C
3492 10-07-2016 00:00:00 17.94167 C 87.0000 % 15.75 C
3493 10-07-2016 01:00:00 17.125 C 88.8333 % 15.27 C
3494 10-07-2016 02:00:00 16.48333 C 90.3333 % 14.9 C
3495 10-07-2016 03:00:00 15.51667 C 92.0000 % 14.22 C
3496 10-07-2016 04:00:00 14.88333 C 93.3333 % 13.82 C
3497 10-07-2016 05:00:00 14.55833 C 94.0000 % 13.6 C
3498 10-07-2016 06:00:00 14.74167 C 94.9167 % 13.94 C
3499 10-07-2016 07:00:00 15.34167 C 95.0000 % 14.55 C
3500 10-07-2016 08:00:00 16.44167 C 94.5833 % 15.57 C
Sensor: Nr:Datum:Temp:Feuchte:Taupunkt:
Aussen-T/F 3501 10-07-2016 09:00:00 17.66667 C 92.6667 % 16.46 C
3502 10-07-2016 10:00:00 20.08333 C 89.0833 % 18.23 C
3503 10-07-2016 11:00:00 22.58333 C 83.2500 % 19.6 C
3504 10-07-2016 12:00:00 24.8 C 71.8333 % 19.37 C
3505 10-07-2016 13:00:00 26.39167 C 68.4167 % 20.11 C
3506 10-07-2016 14:00:00 27.70833 C 62.2500 % 19.83 C
3507 10-07-2016 15:00:00 30.03333 C 56.0833 % 20.31 C
3508 10-07-2016 16:00:00 32.38333 C 49.4167 % 20.43 C
3509 10-07-2016 17:00:00 32.39167 C 51.6667 % 21.16 C
3510 10-07-2016 18:00:00 30.08333 C 59.2500 % 21.25 C
3511 10-07-2016 19:00:00 26.98333 C 69.9167 % 21.02 C
3512 10-07-2016 20:00:00 24.94167 C 76.8333 % 20.59 C
3513 10-07-2016 21:00:00 23.425 C 77.4167 % 19.25 C
3514 10-07-2016 22:00:00 22.29167 C 80.6667 % 18.81 C
3515 10-07-2016 23:00:00 21.40833 C 83.0833 % 18.42 C
3516 11-07-2016 00:00:00 20.74167 C 85.0000 % 18.13 C
3517 11-07-2016 01:00:00 20.225 C 86.5833 % 17.91 C
3518 11-07-2016 02:00:00 19.425 C 87.6667 % 17.33 C
3519 11-07-2016 03:00:00 19.18333 C 89.6667 % 17.44 C
3520 11-07-2016 04:00:00 18.675 C 89.6667 % 16.94 C
3521 11-07-2016 05:00:00 18.70833 C 91.0000 % 17.21 C
3522 11-07-2016 06:00:00 18.94167 C 90.5833 % 17.37 C
3523 11-07-2016 07:00:00 19.275 C 91.1667 % 17.8 C
3524 11-07-2016 08:00:00 20.20833 C 89.5000 % 18.43 C
3525 11-07-2016 09:00:00 22.18333 C 78.5000 % 18.27 C
Sensor: Nr:Datum:Temp:Feuchte:Taupunkt:
Aussen-T/F 3526 11-07-2016 10:00:00 23.76667 C 68.8333 % 17.7 C
3527 11-07-2016 11:00:00 23.5 C 67.5833 % 17.16 C
3528 11-07-2016 12:00:00 23.85 C 67.6667 % 17.51 C
3529 11-07-2016 13:00:00 24.40833 C 62.8333 % 16.87 C
3530 11-07-2016 14:00:00 24.44167 C 56.1667 % 15.14 C
3531 11-07-2016 15:00:00 24.29167 C 57.0000 % 15.23 C
3532 11-07-2016 16:00:00 24.375 C 59.3333 % 15.93 C
3533 11-07-2016 17:00:00 24.20833 C 63.1667 % 16.76 C
3534 11-07-2016 18:00:00 24.19167 C 57.9167 % 15.39 C
3535 11-07-2016 19:00:00 23.6 C 56.3333 % 14.4 C
3536 11-07-2016 20:00:00 21.75833 C 62.0833 % 14.18 C
3537 11-07-2016 21:00:00 20.35 C 66.1667 % 13.83 C
3538 11-07-2016 22:00:00 19.61667 C 70.3333 % 14.07 C
3539 11-07-2016 23:00:00 18.88333 C 74.8333 % 14.32 C
3540 12-07-2016 00:00:00 18.275 C 78.2500 % 14.42 C
3541 12-07-2016 01:00:00 17.66667 C 78.3333 % 13.85 C
3542 12-07-2016 02:00:00 16.36667 C 82.1667 % 13.32 C
3543 12-07-2016 03:00:00 15.00833 C 86.8333 % 12.83 C
3544 12-07-2016 04:00:00 14.475 C 89.5833 % 12.78 C
3545 12-07-2016 05:00:00 14.29167 C 91.3333 % 12.9 C
3546 12-07-2016 06:00:00 14.65833 C 91.4167 % 13.28 C
3547 12-07-2016 07:00:00 15.29167 C 90.0833 % 13.68 C
3548 12-07-2016 08:00:00 16.80833 C 86.0000 % 14.45 C
3549 12-07-2016 09:00:00 18.39167 C 81.0000 % 15.07 C
3550 12-07-2016 10:00:00 19.91667 C 72.5000 % 14.83 C
Sensor: Nr:Datum:Temp:Feuchte:Taupunkt:
Aussen-T/F 3551 12-07-2016 11:00:00 20.975 C 67.5000 % 14.73 C
3552 12-07-2016 12:00:00 21.88333 C 65.5000 % 15.13 C
3553 12-07-2016 13:00:00 22.18333 C 63.5833 % 14.95 C
3554 12-07-2016 14:00:00 23.125 C 55.8333 % 13.82 C
3555 12-07-2016 15:00:00 24.875 C 49.2500 % 13.51 C
3556 12-07-2016 16:00:00 24.65833 C 51.1667 % 13.9 C
3557 12-07-2016 17:00:00 24.2 C 54.1667 % 14.35 C
3558 12-07-2016 18:00:00 23.51667 C 58.0000 % 14.78 C
3559 12-07-2016 19:00:00 22.08333 C 60.5833 % 14.11 C
3560 12-07-2016 20:00:00 19.275 C 75.2500 % 14.79 C
3561 12-07-2016 21:00:00 17.53333 C 81.9167 % 14.41 C
3562 12-07-2016 22:00:00 16.5 C 90.0833 % 14.87 C
3563 12-07-2016 23:00:00 15.56667 C 92.5833 % 14.37 C
3564 13-07-2016 00:00:00 14.94167 C 93.5833 % 13.92 C
3565 13-07-2016 01:00:00 14.05 C 93.7500 % 13.06 C
3566 13-07-2016 02:00:00 13.59167 C 94.2500 % 12.69 C
3567 13-07-2016 03:00:00 13.18333 C 94.9167 % 12.39 C
3568 13-07-2016 04:00:00 12.58333 C 95.0000 % 11.8 C
3569 13-07-2016 05:00:00 12.33333 C 95.3333 % 11.61 C
3570 13-07-2016 06:00:00 12.85 C 96.0000 % 12.23 C
3571 13-07-2016 07:00:00 13.10833 C 96.0000 % 12.49 C
3572 13-07-2016 08:00:00 13.73333 C 96.0000 % 13.11 C
3573 13-07-2016 09:00:00 15.20833 C 93.7500 % 14.21 C
3574 13-07-2016 10:00:00 14.95833 C 88.3333 % 13.05 C
3575 13-07-2016 11:00:00 13.15833 C 94.3333 % 12.27 C
Sensor: Nr:Datum:Temp:Feuchte:Taupunkt:
Aussen-T/F 3576 13-07-2016 12:00:00 14.80833 C 94.5833 % 13.95 C
3577 13-07-2016 13:00:00 15.8 C 91.5833 % 14.43 C
3578 13-07-2016 14:00:00 16.99167 C 84.6667 % 14.39 C
3579 13-07-2016 15:00:00 18.525 C 75.6667 % 14.15 C
3580 13-07-2016 16:00:00 19.78333 C 72.7500 % 14.75 C
3581 13-07-2016 17:00:00 15.29167 C 87.5000 % 13.23 C
3582 13-07-2016 18:00:00 15.88333 C 90.0000 % 14.25 C
3583 13-07-2016 19:00:00 16.38333 C 89.5833 % 14.67 C
3584 13-07-2016 20:00:00 15.225 C 91.9167 % 13.92 C
3585 13-07-2016 21:00:00 14.025 C 93.5833 % 13.01 C
3586 13-07-2016 22:00:00 13.38333 C 94.5833 % 12.53 C
3587 13-07-2016 23:00:00 13.31667 C 95.3333 % 12.59 C
3588 14-07-2016 00:00:00 13.35833 C 96.0000 % 12.73 C
3589 14-07-2016 01:00:00 12.83333 C 95.0833 % 12.07 C
3590 14-07-2016 02:00:00 12.14167 C 95.0000 % 11.37 C
3591 14-07-2016 03:00:00 11.525 C 95.0000 % 10.75 C
3592 14-07-2016 04:00:00 11.33333 C 95.9167 % 10.71 C
3593 14-07-2016 05:00:00 11.05833 C 96.0000 % 10.45 C
3594 14-07-2016 06:00:00 11.025 C 96.0000 % 10.41 C
3595 14-07-2016 07:00:00 11.425 C 96.0000 % 10.81 C
3596 14-07-2016 08:00:00 12.55 C 95.0000 % 11.77 C
3597 14-07-2016 09:00:00 14.05 C 86.5000 % 11.83 C
3598 14-07-2016 10:00:00 15.18333 C 80.1667 % 11.79 C
3599 14-07-2016 11:00:00 15.95833 C 72.6667 % 11.06 C
3600 14-07-2016 12:00:00 16.54167 C 67.9167 % 10.6 C
Sensor: Nr:Datum:Temp:Feuchte:Taupunkt:
Aussen-T/F 3601 14-07-2016 13:00:00 17.5 C 62.3333 % 10.23 C
3602 14-07-2016 14:00:00 18.06667 C 60.3333 % 10.27 C
3603 14-07-2016 15:00:00 18.225 C 59.1667 % 10.13 C
3604 14-07-2016 16:00:00 17.88333 C 65.2500 % 11.27 C
3605 14-07-2016 17:00:00 17.95 C 62.1667 % 10.61 C
3606 14-07-2016 18:00:00 18.525 C 62.3333 % 11.19 C
3607 14-07-2016 19:00:00 19.48333 C 59.0000 % 11.27 C
3608 14-07-2016 20:00:00 17.45 C 69.8333 % 11.89 C
3609 14-07-2016 21:00:00 15.43333 C 78.3333 % 11.68 C
3610 14-07-2016 22:00:00 14.8 C 82.3333 % 11.82 C
3611 14-07-2016 23:00:00 14.4 C 77.4167 % 10.5 C
3612 15-07-2016 00:00:00 13.4 C 80.8333 % 10.18 C
3613 15-07-2016 01:00:00 12.95 C 84.3333 % 10.37 C
3614 15-07-2016 02:00:00 12.90833 C 86.4167 % 10.7 C
3615 15-07-2016 03:00:00 12.15 C 87.8333 % 10.2 C
3616 15-07-2016 04:00:00 11.79167 C 88.6667 % 9.98 C
3617 15-07-2016 05:00:00 11.99167 C 87.8333 % 10.04 C
3618 15-07-2016 06:00:00 12.275 C 87.5000 % 10.26 C
3619 15-07-2016 07:00:00 12.50833 C 85.9167 % 10.22 C
3620 15-07-2016 08:00:00 13.04167 C 85.7500 % 10.71 C
3621 15-07-2016 09:00:00 14.39167 C 81.4167 % 11.25 C
3622 15-07-2016 10:00:00 15.15 C 77.0000 % 11.15 C
3623 15-07-2016 11:00:00 16.45 C 69.1667 % 10.79 C
3624 15-07-2016 12:00:00 17.74167 C 62.7500 % 10.55 C
3625 15-07-2016 13:00:00 18.48333 C 60.9167 % 10.81 C
Sensor: Nr:Datum:Temp:Feuchte:Taupunkt:
Aussen-T/F 3626 15-07-2016 14:00:00 19.26667 C 59.2500 % 11.13 C
3627 15-07-2016 15:00:00 19.95833 C 60.5000 % 12.09 C
3628 15-07-2016 16:00:00 20.59167 C 58.9167 % 12.28 C
3629 15-07-2016 17:00:00 21.11667 C 61.7500 % 13.49 C
3630 15-07-2016 18:00:00 22.125 C 49.6667 % 11.12 C
3631 15-07-2016 19:00:00 22.375 C 49.6667 % 11.35 C
3632 15-07-2016 20:00:00 19.70833 C 66.3333 % 13.26 C
3633 15-07-2016 21:00:00 16.86667 C 76.1667 % 12.65 C
3634 15-07-2016 22:00:00 15.15 C 81.6667 % 12.04 C
3635 15-07-2016 23:00:00 13.58333 C 86.7500 % 11.42 C
3636 16-07-2016 00:00:00 12.66667 C 88.9167 % 10.89 C
3637 16-07-2016 01:00:00 12.125 C 90.9167 % 10.69 C
3638 16-07-2016 02:00:00 11.6 C 92.0000 % 10.35 C
3639 16-07-2016 03:00:00 11.23333 C 93.2500 % 10.18 C
3640 16-07-2016 04:00:00 11.6 C 94.0000 % 10.67 C
3641 16-07-2016 05:00:00 11.88333 C 93.5000 % 10.87 C
3642 16-07-2016 06:00:00 12.15 C 93.2500 % 11.09 C
3643 16-07-2016 07:00:00 13.125 C 90.9167 % 11.68 C
3644 16-07-2016 08:00:00 14.325 C 87.9167 % 12.35 C
3645 16-07-2016 09:00:00 15.81667 C 83.4167 % 13.01 C
3646 16-07-2016 10:00:00 17.38333 C 78.0833 % 13.53 C
3647 16-07-2016 11:00:00 18.73333 C 75.5000 % 14.32 C
3648 16-07-2016 12:00:00 20.075 C 67.0000 % 13.76 C
3649 16-07-2016 13:00:00 21.23333 C 66.5000 % 14.75 C
3650 16-07-2016 14:00:00 21.25 C 69.5000 % 15.45 C
Sensor: Nr:Datum:Temp:Feuchte:Taupunkt:
Aussen-T/F 3651 16-07-2016 15:00:00 21.65833 C 69.2500 % 15.78 C
3652 16-07-2016 16:00:00 22.225 C 73.5833 % 17.28 C
3653 16-07-2016 17:00:00 21.55 C 78.9167 % 17.74 C
3654 16-07-2016 18:00:00 21.15 C 80.5000 % 17.66 C
3655 16-07-2016 19:00:00 20.525 C 82.8333 % 17.51 C
3656 16-07-2016 20:00:00 20.30833 C 82.3333 % 17.2 C
3657 16-07-2016 21:00:00 19.1 C 84.1667 % 16.36 C
3658 16-07-2016 22:00:00 18.35833 C 86.8333 % 16.13 C
3659 16-07-2016 23:00:00 17.575 C 90.0000 % 15.92 C
3660 17-07-2016 00:00:00 16.48333 C 92.1667 % 15.21 C
3661 17-07-2016 01:00:00 16.56667 C 94.0000 % 15.6 C
3662 17-07-2016 02:00:00 17.04167 C 93.8333 % 16.04 C
3663 17-07-2016 03:00:00 17.21667 C 93.0000 % 16.07 C
3664 17-07-2016 04:00:00 17.075 C 93.6667 % 16.05 C
3665 17-07-2016 05:00:00 16.48333 C 93.8333 % 15.49 C
3666 17-07-2016 06:00:00 16.83333 C 95.0000 % 16.03 C
3667 17-07-2016 07:00:00 17.56667 C 94.5833 % 16.69 C
3668 17-07-2016 08:00:00 18.78333 C 91.2500 % 17.33 C
3669 17-07-2016 09:00:00 20.25 C 86.6667 % 17.95 C
3670 17-07-2016 10:00:00 22.40833 C 78.1667 % 18.42 C
3671 17-07-2016 11:00:00 23.7 C 71.9167 % 18.33 C
3672 17-07-2016 12:00:00 24.35 C 74.3333 % 19.49 C
3673 17-07-2016 13:00:00 24.38333 C 73.5833 % 19.36 C
3674 17-07-2016 14:00:00 25.38333 C 74.6667 % 20.55 C
3675 17-07-2016 15:00:00 25.53333 C 70.4167 % 19.75 C
Sensor: Nr:Datum:Temp:Feuchte:Taupunkt:
Aussen-T/F 3676 17-07-2016 16:00:00 26.575 C 61.0833 % 18.46 C
3677 17-07-2016 17:00:00 26.34167 C 59.4167 % 17.8 C
3678 17-07-2016 18:00:00 25.89167 C 59.1667 % 17.31 C
3679 17-07-2016 19:00:00 25.15 C 63.3333 % 17.69 C
3680 17-07-2016 20:00:00 24.8 C 66.0833 % 18.03 C
3681 17-07-2016 21:00:00 22.475 C 77.7500 % 18.4 C
3682 17-07-2016 22:00:00 20.85833 C 84.7500 % 18.2 C
3683 17-07-2016 23:00:00 20.19167 C 87.2500 % 18 C
3684 18-07-2016 00:00:00 19.43333 C 89.0833 % 17.59 C
3685 18-07-2016 01:00:00 18.75833 C 91.3333 % 17.32 C
3686 18-07-2016 02:00:00 18.11667 C 92.4167 % 16.87 C
3687 18-07-2016 03:00:00 17.63333 C 93.3333 % 16.54 C
3688 18-07-2016 04:00:00 17.34167 C 93.9167 % 16.35 C
3689 18-07-2016 05:00:00 16.58333 C 93.8333 % 15.59 C
3690 18-07-2016 06:00:00 16.26667 C 94.7500 % 15.42 C
3691 18-07-2016 07:00:00 16.35 C 95.0000 % 15.55 C
3692 18-07-2016 08:00:00 16.95833 C 95.4167 % 16.22 C
3693 18-07-2016 09:00:00 18.11667 C 95.4167 % 17.37 C
3694 18-07-2016 10:00:00 20.675 C 87.4167 % 18.51 C
3695 18-07-2016 11:00:00 23.03333 C 73.8333 % 18.11 C
3696 18-07-2016 12:00:00 23.84167 C 66.7500 % 17.28 C
3697 18-07-2016 13:00:00 24.39167 C 63.7500 % 17.08 C
3698 18-07-2016 14:00:00 25.325 C 53.5000 % 15.2 C
3699 18-07-2016 15:00:00 27.06667 C 50.5000 % 15.91 C
3700 18-07-2016 16:00:00 29 C 44.7500 % 15.78 C
Sensor: Nr:Datum:Temp:Feuchte:Taupunkt:
Aussen-T/F 3701 18-07-2016 17:00:00 29.81667 C 44.7500 % 16.51 C
3702 18-07-2016 18:00:00 30.10833 C 43.3333 % 16.27 C
3703 18-07-2016 19:00:00 29.23333 C 51.1667 % 18.1 C
3704 18-07-2016 20:00:00 25.39167 C 64.0833 % 18.11 C
3705 18-07-2016 21:00:00 22.30833 C 71.0000 % 16.8 C
3706 18-07-2016 22:00:00 20.10833 C 77.8333 % 16.12 C
3707 18-07-2016 23:00:00 18.55833 C 82.2500 % 15.47 C
3708 19-07-2016 00:00:00 17.49167 C 85.7500 % 15.08 C
3709 19-07-2016 01:00:00 16.675 C 88.4167 % 14.75 C
3710 19-07-2016 02:00:00 16.1 C 90.3333 % 14.52 C
3711 19-07-2016 03:00:00 15.475 C 92.4167 % 14.25 C
3712 19-07-2016 04:00:00 15.04167 C 93.2500 % 13.96 C
3713 19-07-2016 05:00:00 14.61667 C 94.0000 % 13.66 C
3714 19-07-2016 06:00:00 14.61667 C 94.8333 % 13.8 C
3715 19-07-2016 07:00:00 14.98333 C 95.0000 % 14.19 C
3716 19-07-2016 08:00:00 15.89167 C 95.0000 % 15.09 C
3717 19-07-2016 09:00:00 17.25833 C 94.7500 % 16.41 C
3718 19-07-2016 10:00:00 19.65 C 91.5833 % 18.24 C
3719 19-07-2016 11:00:00 22.2 C 85.0833 % 19.57 C
3720 19-07-2016 12:00:00 24.98333 C 68.4167 % 18.76 C
3721 19-07-2016 13:00:00 26.69167 C 57.9167 % 17.72 C
3722 19-07-2016 14:00:00 26.29167 C 67.6667 % 19.83 C
3723 19-07-2016 15:00:00 26.46667 C 69.2500 % 20.37 C
3724 19-07-2016 16:00:00 29.76667 C 62.8333 % 21.92 C
3725 19-07-2016 17:00:00 31.61667 C 56.0000 % 21.76 C
Sensor: Nr:Datum:Temp:Feuchte:Taupunkt:
Aussen-T/F 3726 19-07-2016 18:00:00 32.075 C 53.1667 % 21.33 C
3727 19-07-2016 19:00:00 29.95 C 58.2500 % 20.85 C
3728 19-07-2016 20:00:00 26.71667 C 62.3333 % 18.91 C
3729 19-07-2016 21:00:00 23.65 C 67.6667 % 17.32 C
3730 19-07-2016 22:00:00 21.04167 C 73.5000 % 16.12 C
3731 19-07-2016 23:00:00 19.55 C 78.4167 % 15.69 C
3732 20-07-2016 00:00:00 18.25 C 83.7500 % 15.45 C
3733 20-07-2016 01:00:00 17.325 C 87.4167 % 15.21 C
3734 20-07-2016 02:00:00 16.71667 C 89.3333 % 14.95 C
3735 20-07-2016 03:00:00 16.075 C 91.1667 % 14.63 C
3736 20-07-2016 04:00:00 15.50833 C 92.5000 % 14.3 C
3737 20-07-2016 05:00:00 15.01667 C 93.4167 % 13.96 C
3738 20-07-2016 06:00:00 14.775 C 94.0833 % 13.83 C
3739 20-07-2016 07:00:00 15.2 C 95.0000 % 14.4 C
3740 20-07-2016 08:00:00 16.14167 C 95.3333 % 15.39 C
3741 20-07-2016 09:00:00 17.85833 C 95.0000 % 17.05 C
3742 20-07-2016 10:00:00 20.58333 C 90.0000 % 18.88 C
3743 20-07-2016 11:00:00 23.99167 C 78.5000 % 20.02 C
3744 20-07-2016 12:00:00 27.03333 C 65.8333 % 20.09 C
3745 20-07-2016 13:00:00 29.05 C 58.2500 % 20.01 C
3746 20-07-2016 14:00:00 30.20833 C 55.5000 % 20.31 C
3747 20-07-2016 15:00:00 32.19167 C 50.1667 % 20.5 C
3748 20-07-2016 16:00:00 34.70833 C 45.3333 % 21.14 C
3749 20-07-2016 17:00:00 34.75 C 51.2500 % 23.19 C
3750 20-07-2016 18:00:00 32.93333 C 54.2500 % 22.46 C
Sensor: Nr:Datum:Temp:Feuchte:Taupunkt:
Aussen-T/F 3751 20-07-2016 19:00:00 30.2 C 56.7500 % 20.66 C
3752 20-07-2016 20:00:00 26.63333 C 63.8333 % 19.22 C
3753 20-07-2016 21:00:00 25.88333 C 67.0833 % 19.3 C
3754 20-07-2016 22:00:00 25.25 C 70.0833 % 19.4 C
3755 20-07-2016 23:00:00 23.9 C 73.2500 % 18.82 C
3756 21-07-2016 00:00:00 23.5 C 74.0000 % 18.6 C
3757 21-07-2016 01:00:00 22.8 C 77.2500 % 18.61 C
3758 21-07-2016 02:00:00 22.39167 C 77.8333 %